<?xml version="1.0" encoding="UTF-8" standalone="no" ?>
<gpx xmlns="http://www.topografix.com/GPX/1/1" xmlns:xsi="http://www.w3.org/2001/XMLSchema-instance" xsi:schemaLocation="http://www.topografix.com/GPX/1/1 http://www.topografix.com/GPX/1/1/gpx.xsd" version="1.1" creator="VisuGPX - https://www.visugpx.com">
  <metadata>
    <name>Dents de Roque Forcade,Tour Cauvin </name>
    <desc><![CDATA[Sentier de contournement des Dents, difficile,
(branches et broussailles) du départ et sur 2km.



]]></desc>
  </metadata>
  <trk>
    <name><![CDATA[Dents de Roque Forcade,Tour Cauvin _1]]></name>
    <trkseg>
      <trkpt lat="43.31557" lon="5.6618">
        <ele>721.8</ele>
        <time>2022-03-09T08:55:21Z</time>
      </trkpt>
      <trkpt lat="43.31564" lon="5.66183">
        <ele>722.9</ele>
        <time>2022-03-09T08:55:34Z</time>
      </trkpt>
      <trkpt lat="43.31569" lon="5.66186">
        <ele>724.1</ele>
        <time>2022-03-09T08:55:41Z</time>
      </trkpt>
      <trkpt lat="43.31574" lon="5.66188">
        <ele>725.3</ele>
        <time>2022-03-09T08:55:51Z</time>
      </trkpt>
      <trkpt lat="43.31579" lon="5.66189">
        <ele>726.5</ele>
        <time>2022-03-09T08:55:57Z</time>
      </trkpt>
      <trkpt lat="43.31583" lon="5.66191">
        <ele>727.7</ele>
        <time>2022-03-09T08:56:02Z</time>
      </trkpt>
      <trkpt lat="43.31588" lon="5.66193">
        <ele>728.5</ele>
        <time>2022-03-09T08:56:06Z</time>
      </trkpt>
      <trkpt lat="43.31593" lon="5.66193">
        <ele>729.3</ele>
        <time>2022-03-09T08:56:13Z</time>
      </trkpt>
      <trkpt lat="43.31597" lon="5.66193">
        <ele>730</ele>
        <time>2022-03-09T08:56:18Z</time>
      </trkpt>
      <trkpt lat="43.31602" lon="5.66191">
        <ele>730.9</ele>
        <time>2022-03-09T08:56:24Z</time>
      </trkpt>
      <trkpt lat="43.31605" lon="5.66186">
        <ele>731.7</ele>
        <time>2022-03-09T08:56:28Z</time>
      </trkpt>
      <trkpt lat="43.31607" lon="5.66192">
        <ele>731.6</ele>
        <time>2022-03-09T08:56:42Z</time>
      </trkpt>
      <trkpt lat="43.31611" lon="5.66199">
        <ele>730.7</ele>
        <time>2022-03-09T08:56:48Z</time>
      </trkpt>
      <trkpt lat="43.31615" lon="5.66203">
        <ele>731.1</ele>
        <time>2022-03-09T08:56:53Z</time>
      </trkpt>
      <trkpt lat="43.31618" lon="5.66208">
        <ele>731.6</ele>
        <time>2022-03-09T08:57:01Z</time>
      </trkpt>
      <trkpt lat="43.31614" lon="5.66204">
        <ele>730.6</ele>
        <time>2022-03-09T08:57:36Z</time>
      </trkpt>
      <trkpt lat="43.31611" lon="5.662">
        <ele>730.3</ele>
        <time>2022-03-09T08:57:39Z</time>
      </trkpt>
      <trkpt lat="43.31607" lon="5.66193">
        <ele>731.6</ele>
        <time>2022-03-09T08:57:43Z</time>
      </trkpt>
      <trkpt lat="43.31605" lon="5.66186">
        <ele>731.6</ele>
        <time>2022-03-09T08:57:47Z</time>
      </trkpt>
      <trkpt lat="43.31606" lon="5.66179">
        <ele>732.3</ele>
        <time>2022-03-09T08:57:52Z</time>
      </trkpt>
      <trkpt lat="43.31609" lon="5.66175">
        <ele>733.6</ele>
        <time>2022-03-09T08:57:59Z</time>
      </trkpt>
      <trkpt lat="43.31614" lon="5.66175">
        <ele>735.2</ele>
        <time>2022-03-09T08:58:09Z</time>
      </trkpt>
      <trkpt lat="43.31618" lon="5.66177">
        <ele>736.6</ele>
        <time>2022-03-09T08:58:20Z</time>
      </trkpt>
      <trkpt lat="43.31623" lon="5.66176">
        <ele>738.4</ele>
        <time>2022-03-09T08:58:29Z</time>
      </trkpt>
      <trkpt lat="43.31627" lon="5.66178">
        <ele>739.8</ele>
        <time>2022-03-09T08:58:43Z</time>
      </trkpt>
      <trkpt lat="43.31632" lon="5.66179">
        <ele>741.5</ele>
        <time>2022-03-09T08:58:51Z</time>
      </trkpt>
      <trkpt lat="43.31635" lon="5.66184">
        <ele>742.4</ele>
        <time>2022-03-09T08:58:57Z</time>
      </trkpt>
      <trkpt lat="43.31638" lon="5.66189">
        <ele>743</ele>
        <time>2022-03-09T08:59:07Z</time>
      </trkpt>
      <trkpt lat="43.31641" lon="5.66193">
        <ele>744.1</ele>
        <time>2022-03-09T08:59:16Z</time>
      </trkpt>
      <trkpt lat="43.31644" lon="5.66198">
        <ele>745</ele>
        <time>2022-03-09T08:59:23Z</time>
      </trkpt>
      <trkpt lat="43.31648" lon="5.66204">
        <ele>746.2</ele>
        <time>2022-03-09T08:59:31Z</time>
      </trkpt>
      <trkpt lat="43.31651" lon="5.66208">
        <ele>747.7</ele>
        <time>2022-03-09T08:59:40Z</time>
      </trkpt>
      <trkpt lat="43.31655" lon="5.66212">
        <ele>749.7</ele>
        <time>2022-03-09T08:59:48Z</time>
      </trkpt>
      <trkpt lat="43.31658" lon="5.66217">
        <ele>750.8</ele>
        <time>2022-03-09T09:00:00Z</time>
      </trkpt>
      <trkpt lat="43.31661" lon="5.66222">
        <ele>752.7</ele>
        <time>2022-03-09T09:00:07Z</time>
      </trkpt>
      <trkpt lat="43.31664" lon="5.66227">
        <ele>754.5</ele>
        <time>2022-03-09T09:00:12Z</time>
      </trkpt>
      <trkpt lat="43.31667" lon="5.66231">
        <ele>756.1</ele>
        <time>2022-03-09T09:00:18Z</time>
      </trkpt>
      <trkpt lat="43.31671" lon="5.66235">
        <ele>757.1</ele>
        <time>2022-03-09T09:00:27Z</time>
      </trkpt>
      <trkpt lat="43.31674" lon="5.66241">
        <ele>757.8</ele>
        <time>2022-03-09T09:00:33Z</time>
      </trkpt>
      <trkpt lat="43.31675" lon="5.66247">
        <ele>758.2</ele>
        <time>2022-03-09T09:00:45Z</time>
      </trkpt>
      <trkpt lat="43.31676" lon="5.66253">
        <ele>758.5</ele>
        <time>2022-03-09T09:00:54Z</time>
      </trkpt>
      <trkpt lat="43.3168" lon="5.66257">
        <ele>759.6</ele>
        <time>2022-03-09T09:01:01Z</time>
      </trkpt>
      <trkpt lat="43.3168" lon="5.66263">
        <ele>759.6</ele>
        <time>2022-03-09T09:01:14Z</time>
      </trkpt>
      <trkpt lat="43.31683" lon="5.66268">
        <ele>760.5</ele>
        <time>2022-03-09T09:01:29Z</time>
      </trkpt>
      <trkpt lat="43.31686" lon="5.66274">
        <ele>761.6</ele>
        <time>2022-03-09T09:02:46Z</time>
      </trkpt>
      <trkpt lat="43.31687" lon="5.6628">
        <ele>762.2</ele>
        <time>2022-03-09T09:02:52Z</time>
      </trkpt>
      <trkpt lat="43.31689" lon="5.66286">
        <ele>763.3</ele>
        <time>2022-03-09T09:02:59Z</time>
      </trkpt>
      <trkpt lat="43.31693" lon="5.66289">
        <ele>765.3</ele>
        <time>2022-03-09T09:03:05Z</time>
      </trkpt>
      <trkpt lat="43.31695" lon="5.66295">
        <ele>766.2</ele>
        <time>2022-03-09T09:03:13Z</time>
      </trkpt>
      <trkpt lat="43.31697" lon="5.66301">
        <ele>766.7</ele>
        <time>2022-03-09T09:03:22Z</time>
      </trkpt>
      <trkpt lat="43.317" lon="5.66306">
        <ele>767.2</ele>
        <time>2022-03-09T09:03:31Z</time>
      </trkpt>
      <trkpt lat="43.31703" lon="5.66311">
        <ele>767.6</ele>
        <time>2022-03-09T09:03:43Z</time>
      </trkpt>
      <trkpt lat="43.31706" lon="5.66316">
        <ele>768.2</ele>
        <time>2022-03-09T09:03:53Z</time>
      </trkpt>
      <trkpt lat="43.31709" lon="5.6632">
        <ele>769.3</ele>
        <time>2022-03-09T09:04:00Z</time>
      </trkpt>
      <trkpt lat="43.31714" lon="5.66324">
        <ele>770.8</ele>
        <time>2022-03-09T09:04:07Z</time>
      </trkpt>
      <trkpt lat="43.31717" lon="5.66328">
        <ele>772.4</ele>
        <time>2022-03-09T09:04:13Z</time>
      </trkpt>
      <trkpt lat="43.31719" lon="5.66335">
        <ele>774</ele>
        <time>2022-03-09T09:04:23Z</time>
      </trkpt>
      <trkpt lat="43.31721" lon="5.6634">
        <ele>775.6</ele>
        <time>2022-03-09T09:04:32Z</time>
      </trkpt>
      <trkpt lat="43.31725" lon="5.66345">
        <ele>776.5</ele>
        <time>2022-03-09T09:04:42Z</time>
      </trkpt>
      <trkpt lat="43.31728" lon="5.6635">
        <ele>777.1</ele>
        <time>2022-03-09T09:04:55Z</time>
      </trkpt>
      <trkpt lat="43.31732" lon="5.66357">
        <ele>778.6</ele>
        <time>2022-03-09T09:05:07Z</time>
      </trkpt>
      <trkpt lat="43.31734" lon="5.66363">
        <ele>779.5</ele>
        <time>2022-03-09T09:05:18Z</time>
      </trkpt>
      <trkpt lat="43.31737" lon="5.66369">
        <ele>780</ele>
        <time>2022-03-09T09:05:24Z</time>
      </trkpt>
      <trkpt lat="43.31741" lon="5.66373">
        <ele>781</ele>
        <time>2022-03-09T09:05:54Z</time>
      </trkpt>
      <trkpt lat="43.31743" lon="5.66378">
        <ele>782.3</ele>
        <time>2022-03-09T09:07:09Z</time>
      </trkpt>
      <trkpt lat="43.31747" lon="5.66384">
        <ele>784.5</ele>
        <time>2022-03-09T09:07:14Z</time>
      </trkpt>
      <trkpt lat="43.3175" lon="5.66389">
        <ele>786.9</ele>
        <time>2022-03-09T09:07:19Z</time>
      </trkpt>
      <trkpt lat="43.31754" lon="5.66392">
        <ele>786.6</ele>
        <time>2022-03-09T09:07:24Z</time>
      </trkpt>
      <trkpt lat="43.31757" lon="5.66397">
        <ele>786.6</ele>
        <time>2022-03-09T09:07:31Z</time>
      </trkpt>
      <trkpt lat="43.3176" lon="5.66402">
        <ele>787.1</ele>
        <time>2022-03-09T09:07:38Z</time>
      </trkpt>
      <trkpt lat="43.31763" lon="5.66406">
        <ele>787.6</ele>
        <time>2022-03-09T09:07:46Z</time>
      </trkpt>
      <trkpt lat="43.31766" lon="5.66412">
        <ele>788.8</ele>
        <time>2022-03-09T09:07:54Z</time>
      </trkpt>
      <trkpt lat="43.31768" lon="5.66419">
        <ele>790.3</ele>
        <time>2022-03-09T09:08:01Z</time>
      </trkpt>
      <trkpt lat="43.31772" lon="5.66424">
        <ele>792</ele>
        <time>2022-03-09T09:08:08Z</time>
      </trkpt>
      <trkpt lat="43.31774" lon="5.6643">
        <ele>793.8</ele>
        <time>2022-03-09T09:08:15Z</time>
      </trkpt>
      <trkpt lat="43.31774" lon="5.66437">
        <ele>795.6</ele>
        <time>2022-03-09T09:08:24Z</time>
      </trkpt>
      <trkpt lat="43.31774" lon="5.66443">
        <ele>797.3</ele>
        <time>2022-03-09T09:08:32Z</time>
      </trkpt>
      <trkpt lat="43.31771" lon="5.66447">
        <ele>796.9</ele>
        <time>2022-03-09T09:08:44Z</time>
      </trkpt>
      <trkpt lat="43.31774" lon="5.66452">
        <ele>798.5</ele>
        <time>2022-03-09T09:08:52Z</time>
      </trkpt>
      <trkpt lat="43.31776" lon="5.66459">
        <ele>800.3</ele>
        <time>2022-03-09T09:09:02Z</time>
      </trkpt>
      <trkpt lat="43.31778" lon="5.66465">
        <ele>801.8</ele>
        <time>2022-03-09T09:09:09Z</time>
      </trkpt>
      <trkpt lat="43.31781" lon="5.66471">
        <ele>802.1</ele>
        <time>2022-03-09T09:09:16Z</time>
      </trkpt>
      <trkpt lat="43.31784" lon="5.66476">
        <ele>802.6</ele>
        <time>2022-03-09T09:09:23Z</time>
      </trkpt>
      <trkpt lat="43.31786" lon="5.66482">
        <ele>803.6</ele>
        <time>2022-03-09T09:09:31Z</time>
      </trkpt>
      <trkpt lat="43.31788" lon="5.66488">
        <ele>804.8</ele>
        <time>2022-03-09T09:09:38Z</time>
      </trkpt>
      <trkpt lat="43.31789" lon="5.66495">
        <ele>806.3</ele>
        <time>2022-03-09T09:09:47Z</time>
      </trkpt>
      <trkpt lat="43.3179" lon="5.66501">
        <ele>808</ele>
        <time>2022-03-09T09:09:58Z</time>
      </trkpt>
      <trkpt lat="43.31793" lon="5.66507">
        <ele>809.7</ele>
        <time>2022-03-09T09:10:06Z</time>
      </trkpt>
      <trkpt lat="43.31793" lon="5.66513">
        <ele>811.9</ele>
        <time>2022-03-09T09:10:21Z</time>
      </trkpt>
      <trkpt lat="43.31791" lon="5.66519">
        <ele>814</ele>
        <time>2022-03-09T09:10:33Z</time>
      </trkpt>
      <trkpt lat="43.3179" lon="5.66525">
        <ele>816.3</ele>
        <time>2022-03-09T09:10:44Z</time>
      </trkpt>
      <trkpt lat="43.31791" lon="5.66532">
        <ele>818.3</ele>
        <time>2022-03-09T09:10:52Z</time>
      </trkpt>
      <trkpt lat="43.31789" lon="5.66538">
        <ele>820.4</ele>
        <time>2022-03-09T09:11:06Z</time>
      </trkpt>
      <trkpt lat="43.31792" lon="5.66543">
        <ele>822</ele>
        <time>2022-03-09T09:11:15Z</time>
      </trkpt>
      <trkpt lat="43.31795" lon="5.66548">
        <ele>823.5</ele>
        <time>2022-03-09T09:11:25Z</time>
      </trkpt>
      <trkpt lat="43.31798" lon="5.66553">
        <ele>825</ele>
        <time>2022-03-09T09:12:51Z</time>
      </trkpt>
      <trkpt lat="43.31802" lon="5.66557">
        <ele>826.8</ele>
        <time>2022-03-09T09:12:56Z</time>
      </trkpt>
      <trkpt lat="43.31806" lon="5.66561">
        <ele>828.3</ele>
        <time>2022-03-09T09:13:02Z</time>
      </trkpt>
      <trkpt lat="43.31811" lon="5.66564">
        <ele>826.9</ele>
        <time>2022-03-09T09:13:16Z</time>
      </trkpt>
      <trkpt lat="43.31815" lon="5.66568">
        <ele>826.2</ele>
        <time>2022-03-09T09:13:19Z</time>
      </trkpt>
      <trkpt lat="43.31818" lon="5.66573">
        <ele>826.6</ele>
        <time>2022-03-09T09:13:22Z</time>
      </trkpt>
      <trkpt lat="43.3182" lon="5.66579">
        <ele>827.6</ele>
        <time>2022-03-09T09:13:29Z</time>
      </trkpt>
      <trkpt lat="43.31818" lon="5.66573">
        <ele>826.4</ele>
        <time>2022-03-09T09:13:48Z</time>
      </trkpt>
      <trkpt lat="43.31815" lon="5.66568">
        <ele>826.5</ele>
        <time>2022-03-09T09:13:52Z</time>
      </trkpt>
      <trkpt lat="43.3181" lon="5.66567">
        <ele>828.6</ele>
        <time>2022-03-09T09:13:58Z</time>
      </trkpt>
      <trkpt lat="43.31805" lon="5.66565">
        <ele>829.9</ele>
        <time>2022-03-09T09:14:05Z</time>
      </trkpt>
      <trkpt lat="43.31807" lon="5.66571">
        <ele>831.1</ele>
        <time>2022-03-09T09:14:20Z</time>
      </trkpt>
      <trkpt lat="43.31803" lon="5.66571">
        <ele>832.3</ele>
        <time>2022-03-09T09:14:30Z</time>
      </trkpt>
      <trkpt lat="43.31799" lon="5.66576">
        <ele>834.1</ele>
        <time>2022-03-09T09:14:44Z</time>
      </trkpt>
      <trkpt lat="43.31796" lon="5.6658">
        <ele>835.9</ele>
        <time>2022-03-09T09:15:08Z</time>
      </trkpt>
      <trkpt lat="43.31791" lon="5.66581">
        <ele>836.6</ele>
        <time>2022-03-09T09:15:28Z</time>
      </trkpt>
      <trkpt lat="43.31788" lon="5.66586">
        <ele>838.8</ele>
        <time>2022-03-09T09:15:42Z</time>
      </trkpt>
      <trkpt lat="43.31791" lon="5.66591">
        <ele>841.1</ele>
        <time>2022-03-09T09:16:08Z</time>
      </trkpt>
      <trkpt lat="43.31793" lon="5.66597">
        <ele>843.7</ele>
        <time>2022-03-09T09:16:22Z</time>
      </trkpt>
      <trkpt lat="43.31793" lon="5.66603">
        <ele>846.4</ele>
        <time>2022-03-09T09:16:41Z</time>
      </trkpt>
      <trkpt lat="43.31791" lon="5.66609">
        <ele>849.1</ele>
        <time>2022-03-09T09:17:25Z</time>
      </trkpt>
      <trkpt lat="43.31791" lon="5.66615">
        <ele>853.2</ele>
        <time>2022-03-09T09:18:03Z</time>
      </trkpt>
      <trkpt lat="43.31796" lon="5.66617">
        <ele>855.6</ele>
        <time>2022-03-09T09:18:57Z</time>
      </trkpt>
      <trkpt lat="43.31799" lon="5.66622">
        <ele>861.3</ele>
        <time>2022-03-09T09:19:09Z</time>
      </trkpt>
      <trkpt lat="43.31801" lon="5.66628">
        <ele>869.1</ele>
        <time>2022-03-09T09:19:24Z</time>
      </trkpt>
      <trkpt lat="43.31802" lon="5.66634">
        <ele>878.1</ele>
        <time>2022-03-09T09:19:34Z</time>
      </trkpt>
      <trkpt lat="43.31802" lon="5.66641">
        <ele>884.1</ele>
        <time>2022-03-09T09:19:40Z</time>
      </trkpt>
      <trkpt lat="43.31804" lon="5.66647">
        <ele>887.1</ele>
        <time>2022-03-09T09:19:47Z</time>
      </trkpt>
      <trkpt lat="43.31807" lon="5.66653">
        <ele>887.3</ele>
        <time>2022-03-09T09:19:56Z</time>
      </trkpt>
      <trkpt lat="43.31806" lon="5.6666">
        <ele>888.4</ele>
        <time>2022-03-09T09:20:00Z</time>
      </trkpt>
      <trkpt lat="43.31806" lon="5.66666">
        <ele>889.1</ele>
        <time>2022-03-09T09:20:07Z</time>
      </trkpt>
      <trkpt lat="43.31807" lon="5.66672">
        <ele>881.8</ele>
        <time>2022-03-09T09:20:15Z</time>
      </trkpt>
      <trkpt lat="43.3181" lon="5.66678">
        <ele>873.8</ele>
        <time>2022-03-09T09:20:21Z</time>
      </trkpt>
      <trkpt lat="43.31815" lon="5.66679">
        <ele>866.9</ele>
        <time>2022-03-09T09:20:32Z</time>
      </trkpt>
      <trkpt lat="43.31818" lon="5.66685">
        <ele>860</ele>
        <time>2022-03-09T09:20:37Z</time>
      </trkpt>
      <trkpt lat="43.31819" lon="5.66692">
        <ele>855.2</ele>
        <time>2022-03-09T09:20:44Z</time>
      </trkpt>
      <trkpt lat="43.31819" lon="5.66698">
        <ele>853.8</ele>
        <time>2022-03-09T09:20:50Z</time>
      </trkpt>
      <trkpt lat="43.31817" lon="5.66703">
        <ele>854.6</ele>
        <time>2022-03-09T09:21:00Z</time>
      </trkpt>
      <trkpt lat="43.31817" lon="5.6671">
        <ele>853.9</ele>
        <time>2022-03-09T09:21:09Z</time>
      </trkpt>
      <trkpt lat="43.31819" lon="5.66716">
        <ele>852.7</ele>
        <time>2022-03-09T09:21:23Z</time>
      </trkpt>
      <trkpt lat="43.31818" lon="5.66722">
        <ele>852.2</ele>
        <time>2022-03-09T09:21:38Z</time>
      </trkpt>
      <trkpt lat="43.31821" lon="5.66728">
        <ele>853.3</ele>
        <time>2022-03-09T09:21:46Z</time>
      </trkpt>
      <trkpt lat="43.31824" lon="5.66732">
        <ele>854.7</ele>
        <time>2022-03-09T09:21:56Z</time>
      </trkpt>
      <trkpt lat="43.31827" lon="5.66738">
        <ele>857.3</ele>
        <time>2022-03-09T09:22:12Z</time>
      </trkpt>
      <trkpt lat="43.31829" lon="5.66743">
        <ele>860.7</ele>
        <time>2022-03-09T09:22:21Z</time>
      </trkpt>
      <trkpt lat="43.31831" lon="5.6675">
        <ele>864.7</ele>
        <time>2022-03-09T09:22:28Z</time>
      </trkpt>
      <trkpt lat="43.31832" lon="5.66756">
        <ele>866.4</ele>
        <time>2022-03-09T09:22:45Z</time>
      </trkpt>
      <trkpt lat="43.31834" lon="5.66762">
        <ele>867.2</ele>
        <time>2022-03-09T09:22:59Z</time>
      </trkpt>
      <trkpt lat="43.31836" lon="5.66769">
        <ele>864.6</ele>
        <time>2022-03-09T09:23:07Z</time>
      </trkpt>
      <trkpt lat="43.31838" lon="5.66775">
        <ele>863.4</ele>
        <time>2022-03-09T09:23:16Z</time>
      </trkpt>
      <trkpt lat="43.3184" lon="5.66781">
        <ele>860.9</ele>
        <time>2022-03-09T09:23:25Z</time>
      </trkpt>
      <trkpt lat="43.31839" lon="5.66787">
        <ele>861.9</ele>
        <time>2022-03-09T09:23:44Z</time>
      </trkpt>
      <trkpt lat="43.3184" lon="5.66794">
        <ele>860.6</ele>
        <time>2022-03-09T09:23:51Z</time>
      </trkpt>
      <trkpt lat="43.31841" lon="5.668">
        <ele>858.6</ele>
        <time>2022-03-09T09:24:01Z</time>
      </trkpt>
      <trkpt lat="43.31845" lon="5.66804">
        <ele>854.6</ele>
        <time>2022-03-09T09:24:40Z</time>
      </trkpt>
      <trkpt lat="43.31848" lon="5.668">
        <ele>850.8</ele>
        <time>2022-03-09T09:25:36Z</time>
      </trkpt>
      <trkpt lat="43.31852" lon="5.66804">
        <ele>846.8</ele>
        <time>2022-03-09T09:25:52Z</time>
      </trkpt>
      <trkpt lat="43.31857" lon="5.66805">
        <ele>842.1</ele>
        <time>2022-03-09T09:26:07Z</time>
      </trkpt>
      <trkpt lat="43.31861" lon="5.66808">
        <ele>839.2</ele>
        <time>2022-03-09T09:26:12Z</time>
      </trkpt>
      <trkpt lat="43.31866" lon="5.6681">
        <ele>838</ele>
        <time>2022-03-09T09:26:18Z</time>
      </trkpt>
      <trkpt lat="43.3187" lon="5.66813">
        <ele>837.7</ele>
        <time>2022-03-09T09:26:25Z</time>
      </trkpt>
      <trkpt lat="43.31873" lon="5.66819">
        <ele>839.5</ele>
        <time>2022-03-09T09:26:42Z</time>
      </trkpt>
      <trkpt lat="43.31875" lon="5.66825">
        <ele>841.9</ele>
        <time>2022-03-09T09:26:48Z</time>
      </trkpt>
      <trkpt lat="43.31877" lon="5.6683">
        <ele>844.2</ele>
        <time>2022-03-09T09:26:59Z</time>
      </trkpt>
      <trkpt lat="43.31878" lon="5.66838">
        <ele>849.4</ele>
        <time>2022-03-09T09:27:08Z</time>
      </trkpt>
      <trkpt lat="43.31879" lon="5.66845">
        <ele>854.5</ele>
        <time>2022-03-09T09:27:19Z</time>
      </trkpt>
      <trkpt lat="43.31883" lon="5.66847">
        <ele>853.9</ele>
        <time>2022-03-09T09:27:42Z</time>
      </trkpt>
      <trkpt lat="43.31885" lon="5.66854">
        <ele>858.4</ele>
        <time>2022-03-09T09:28:22Z</time>
      </trkpt>
      <trkpt lat="43.31883" lon="5.6686">
        <ele>864.7</ele>
        <time>2022-03-09T09:28:29Z</time>
      </trkpt>
      <trkpt lat="43.31878" lon="5.66858">
        <ele>866.4</ele>
        <time>2022-03-09T09:28:35Z</time>
      </trkpt>
      <trkpt lat="43.31873" lon="5.66859">
        <ele>870.1</ele>
        <time>2022-03-09T09:28:50Z</time>
      </trkpt>
      <trkpt lat="43.31869" lon="5.66857">
        <ele>870.6</ele>
        <time>2022-03-09T09:28:57Z</time>
      </trkpt>
      <trkpt lat="43.31865" lon="5.66852">
        <ele>868.9</ele>
        <time>2022-03-09T09:29:03Z</time>
      </trkpt>
      <trkpt lat="43.31863" lon="5.66846">
        <ele>865.2</ele>
        <time>2022-03-09T09:29:11Z</time>
      </trkpt>
      <trkpt lat="43.31862" lon="5.66839">
        <ele>860.4</ele>
        <time>2022-03-09T09:29:17Z</time>
      </trkpt>
      <trkpt lat="43.3186" lon="5.66832">
        <ele>856.6</ele>
        <time>2022-03-09T09:29:23Z</time>
      </trkpt>
      <trkpt lat="43.31855" lon="5.66833">
        <ele>862.5</ele>
        <time>2022-03-09T09:29:31Z</time>
      </trkpt>
      <trkpt lat="43.31851" lon="5.66834">
        <ele>867.7</ele>
        <time>2022-03-09T09:29:39Z</time>
      </trkpt>
      <trkpt lat="43.31856" lon="5.66837">
        <ele>863.8</ele>
        <time>2022-03-09T09:29:50Z</time>
      </trkpt>
      <trkpt lat="43.31858" lon="5.66844">
        <ele>866.4</ele>
        <time>2022-03-09T09:29:53Z</time>
      </trkpt>
      <trkpt lat="43.31862" lon="5.6685">
        <ele>869.8</ele>
        <time>2022-03-09T09:29:58Z</time>
      </trkpt>
      <trkpt lat="43.31866" lon="5.66854">
        <ele>870.3</ele>
        <time>2022-03-09T09:30:03Z</time>
      </trkpt>
      <trkpt lat="43.31871" lon="5.66854">
        <ele>867.5</ele>
        <time>2022-03-09T09:30:08Z</time>
      </trkpt>
      <trkpt lat="43.31875" lon="5.66852">
        <ele>863.1</ele>
        <time>2022-03-09T09:30:20Z</time>
      </trkpt>
      <trkpt lat="43.31878" lon="5.66857">
        <ele>864.7</ele>
        <time>2022-03-09T09:30:30Z</time>
      </trkpt>
      <trkpt lat="43.31883" lon="5.66859">
        <ele>863.6</ele>
        <time>2022-03-09T09:31:40Z</time>
      </trkpt>
      <trkpt lat="43.31886" lon="5.66855">
        <ele>858.2</ele>
        <time>2022-03-09T09:32:54Z</time>
      </trkpt>
      <trkpt lat="43.31891" lon="5.66854">
        <ele>856</ele>
        <time>2022-03-09T09:33:05Z</time>
      </trkpt>
      <trkpt lat="43.31895" lon="5.66851">
        <ele>852.1</ele>
        <time>2022-03-09T09:33:20Z</time>
      </trkpt>
      <trkpt lat="43.31899" lon="5.66851">
        <ele>851</ele>
        <time>2022-03-09T09:35:47Z</time>
      </trkpt>
      <trkpt lat="43.31901" lon="5.66857">
        <ele>856.5</ele>
        <time>2022-03-09T09:35:57Z</time>
      </trkpt>
      <trkpt lat="43.31905" lon="5.6686">
        <ele>858.9</ele>
        <time>2022-03-09T09:36:04Z</time>
      </trkpt>
      <trkpt lat="43.3191" lon="5.66863">
        <ele>861.9</ele>
        <time>2022-03-09T09:36:10Z</time>
      </trkpt>
      <trkpt lat="43.31914" lon="5.66867">
        <ele>865</ele>
        <time>2022-03-09T09:36:16Z</time>
      </trkpt>
      <trkpt lat="43.31918" lon="5.6687">
        <ele>866.5</ele>
        <time>2022-03-09T09:36:24Z</time>
      </trkpt>
      <trkpt lat="43.31922" lon="5.66874">
        <ele>867.7</ele>
        <time>2022-03-09T09:36:31Z</time>
      </trkpt>
      <trkpt lat="43.31924" lon="5.66879">
        <ele>871.1</ele>
        <time>2022-03-09T09:36:44Z</time>
      </trkpt>
      <trkpt lat="43.31928" lon="5.66884">
        <ele>872.7</ele>
        <time>2022-03-09T09:36:54Z</time>
      </trkpt>
      <trkpt lat="43.31932" lon="5.66888">
        <ele>871.8</ele>
        <time>2022-03-09T09:37:02Z</time>
      </trkpt>
      <trkpt lat="43.31936" lon="5.66889">
        <ele>869.3</ele>
        <time>2022-03-09T09:37:09Z</time>
      </trkpt>
      <trkpt lat="43.31939" lon="5.66894">
        <ele>874.1</ele>
        <time>2022-03-09T09:37:15Z</time>
      </trkpt>
      <trkpt lat="43.31943" lon="5.66898">
        <ele>875.9</ele>
        <time>2022-03-09T09:37:27Z</time>
      </trkpt>
      <trkpt lat="43.31947" lon="5.669">
        <ele>877.6</ele>
        <time>2022-03-09T09:37:37Z</time>
      </trkpt>
      <trkpt lat="43.31952" lon="5.66902">
        <ele>881.1</ele>
        <time>2022-03-09T09:37:43Z</time>
      </trkpt>
      <trkpt lat="43.31956" lon="5.66905">
        <ele>884.4</ele>
        <time>2022-03-09T09:37:49Z</time>
      </trkpt>
      <trkpt lat="43.31961" lon="5.66907">
        <ele>887</ele>
        <time>2022-03-09T09:37:58Z</time>
      </trkpt>
      <trkpt lat="43.31965" lon="5.66909">
        <ele>890</ele>
        <time>2022-03-09T09:38:03Z</time>
      </trkpt>
      <trkpt lat="43.3197" lon="5.66912">
        <ele>893.6</ele>
        <time>2022-03-09T09:38:14Z</time>
      </trkpt>
      <trkpt lat="43.31974" lon="5.66912">
        <ele>891.1</ele>
        <time>2022-03-09T09:38:26Z</time>
      </trkpt>
      <trkpt lat="43.31979" lon="5.66911">
        <ele>884.5</ele>
        <time>2022-03-09T09:38:33Z</time>
      </trkpt>
      <trkpt lat="43.31984" lon="5.66913">
        <ele>882.8</ele>
        <time>2022-03-09T09:38:56Z</time>
      </trkpt>
      <trkpt lat="43.31986" lon="5.66919">
        <ele>887.1</ele>
        <time>2022-03-09T09:39:06Z</time>
      </trkpt>
      <trkpt lat="43.31988" lon="5.66925">
        <ele>890.3</ele>
        <time>2022-03-09T09:39:42Z</time>
      </trkpt>
      <trkpt lat="43.31992" lon="5.66924">
        <ele>884.9</ele>
        <time>2022-03-09T09:39:59Z</time>
      </trkpt>
      <trkpt lat="43.31992" lon="5.66931">
        <ele>893.1</ele>
        <time>2022-03-09T09:40:36Z</time>
      </trkpt>
      <trkpt lat="43.31996" lon="5.66935">
        <ele>894.8</ele>
        <time>2022-03-09T09:41:09Z</time>
      </trkpt>
      <trkpt lat="43.31993" lon="5.6693">
        <ele>891.4</ele>
        <time>2022-03-09T09:42:04Z</time>
      </trkpt>
      <trkpt lat="43.31998" lon="5.66929">
        <ele>885.3</ele>
        <time>2022-03-09T09:43:52Z</time>
      </trkpt>
      <trkpt lat="43.32003" lon="5.66931">
        <ele>884.9</ele>
        <time>2022-03-09T09:44:03Z</time>
      </trkpt>
      <trkpt lat="43.32007" lon="5.66934">
        <ele>884.8</ele>
        <time>2022-03-09T09:44:07Z</time>
      </trkpt>
      <trkpt lat="43.32012" lon="5.66936">
        <ele>884.4</ele>
        <time>2022-03-09T09:44:12Z</time>
      </trkpt>
      <trkpt lat="43.32016" lon="5.66941">
        <ele>885.4</ele>
        <time>2022-03-09T09:44:21Z</time>
      </trkpt>
      <trkpt lat="43.3202" lon="5.66944">
        <ele>884.3</ele>
        <time>2022-03-09T09:44:26Z</time>
      </trkpt>
      <trkpt lat="43.32024" lon="5.66949">
        <ele>881.6</ele>
        <time>2022-03-09T09:44:30Z</time>
      </trkpt>
      <trkpt lat="43.32029" lon="5.66953">
        <ele>879</ele>
        <time>2022-03-09T09:44:35Z</time>
      </trkpt>
      <trkpt lat="43.32033" lon="5.66956">
        <ele>877.5</ele>
        <time>2022-03-09T09:44:41Z</time>
      </trkpt>
      <trkpt lat="43.32038" lon="5.6696">
        <ele>876.3</ele>
        <time>2022-03-09T09:44:48Z</time>
      </trkpt>
      <trkpt lat="43.32042" lon="5.66963">
        <ele>874.9</ele>
        <time>2022-03-09T09:44:54Z</time>
      </trkpt>
      <trkpt lat="43.32044" lon="5.6697">
        <ele>876</ele>
        <time>2022-03-09T09:47:24Z</time>
      </trkpt>
      <trkpt lat="43.3204" lon="5.66975">
        <ele>877.1</ele>
        <time>2022-03-09T09:47:33Z</time>
      </trkpt>
      <trkpt lat="43.32036" lon="5.66977">
        <ele>877.3</ele>
        <time>2022-03-09T09:47:42Z</time>
      </trkpt>
      <trkpt lat="43.32031" lon="5.6698">
        <ele>877.4</ele>
        <time>2022-03-09T09:47:50Z</time>
      </trkpt>
      <trkpt lat="43.32027" lon="5.6698">
        <ele>879.1</ele>
        <time>2022-03-09T09:48:00Z</time>
      </trkpt>
      <trkpt lat="43.32022" lon="5.66979">
        <ele>881</ele>
        <time>2022-03-09T09:48:13Z</time>
      </trkpt>
      <trkpt lat="43.32018" lon="5.6698">
        <ele>881.1</ele>
        <time>2022-03-09T09:48:23Z</time>
      </trkpt>
      <trkpt lat="43.32013" lon="5.66982">
        <ele>881</ele>
        <time>2022-03-09T09:48:34Z</time>
      </trkpt>
      <trkpt lat="43.32008" lon="5.6698">
        <ele>882.7</ele>
        <time>2022-03-09T09:48:42Z</time>
      </trkpt>
      <trkpt lat="43.32003" lon="5.66978">
        <ele>885</ele>
        <time>2022-03-09T09:48:57Z</time>
      </trkpt>
      <trkpt lat="43.31998" lon="5.66978">
        <ele>885.9</ele>
        <time>2022-03-09T09:49:08Z</time>
      </trkpt>
      <trkpt lat="43.31994" lon="5.66978">
        <ele>887.4</ele>
        <time>2022-03-09T09:49:19Z</time>
      </trkpt>
      <trkpt lat="43.31989" lon="5.66975">
        <ele>890.1</ele>
        <time>2022-03-09T09:49:31Z</time>
      </trkpt>
      <trkpt lat="43.31985" lon="5.66976">
        <ele>891.4</ele>
        <time>2022-03-09T09:49:42Z</time>
      </trkpt>
      <trkpt lat="43.31981" lon="5.66972">
        <ele>893.9</ele>
        <time>2022-03-09T09:50:12Z</time>
      </trkpt>
      <trkpt lat="43.31976" lon="5.66972">
        <ele>895.2</ele>
        <time>2022-03-09T09:50:23Z</time>
      </trkpt>
      <trkpt lat="43.31971" lon="5.66971">
        <ele>897.7</ele>
        <time>2022-03-09T09:50:33Z</time>
      </trkpt>
      <trkpt lat="43.31967" lon="5.66973">
        <ele>900.3</ele>
        <time>2022-03-09T09:50:54Z</time>
      </trkpt>
      <trkpt lat="43.31963" lon="5.66976">
        <ele>901.9</ele>
        <time>2022-03-09T09:51:48Z</time>
      </trkpt>
      <trkpt lat="43.31959" lon="5.6698">
        <ele>903.7</ele>
        <time>2022-03-09T09:51:57Z</time>
      </trkpt>
      <trkpt lat="43.31955" lon="5.66982">
        <ele>905.6</ele>
        <time>2022-03-09T09:52:03Z</time>
      </trkpt>
      <trkpt lat="43.31952" lon="5.66987">
        <ele>904.8</ele>
        <time>2022-03-09T09:52:29Z</time>
      </trkpt>
      <trkpt lat="43.31948" lon="5.66992">
        <ele>904.8</ele>
        <time>2022-03-09T09:52:35Z</time>
      </trkpt>
      <trkpt lat="43.31945" lon="5.66996">
        <ele>904.8</ele>
        <time>2022-03-09T09:52:42Z</time>
      </trkpt>
      <trkpt lat="43.31948" lon="5.67001">
        <ele>900.6</ele>
        <time>2022-03-09T09:53:41Z</time>
      </trkpt>
      <trkpt lat="43.31945" lon="5.66997">
        <ele>904.7</ele>
        <time>2022-03-09T09:54:06Z</time>
      </trkpt>
      <trkpt lat="43.31949" lon="5.67">
        <ele>900.6</ele>
        <time>2022-03-09T09:55:17Z</time>
      </trkpt>
      <trkpt lat="43.31947" lon="5.67006">
        <ele>900.1</ele>
        <time>2022-03-09T09:55:57Z</time>
      </trkpt>
      <trkpt lat="43.31944" lon="5.67011">
        <ele>900.7</ele>
        <time>2022-03-09T09:56:01Z</time>
      </trkpt>
      <trkpt lat="43.31942" lon="5.67017">
        <ele>901.9</ele>
        <time>2022-03-09T09:56:05Z</time>
      </trkpt>
      <trkpt lat="43.3194" lon="5.67022">
        <ele>902.8</ele>
        <time>2022-03-09T09:56:11Z</time>
      </trkpt>
      <trkpt lat="43.31937" lon="5.67029">
        <ele>905.2</ele>
        <time>2022-03-09T09:56:19Z</time>
      </trkpt>
      <trkpt lat="43.31935" lon="5.67035">
        <ele>905.1</ele>
        <time>2022-03-09T09:56:26Z</time>
      </trkpt>
      <trkpt lat="43.31932" lon="5.67041">
        <ele>906.4</ele>
        <time>2022-03-09T09:56:35Z</time>
      </trkpt>
      <trkpt lat="43.3193" lon="5.67047">
        <ele>906.3</ele>
        <time>2022-03-09T09:56:40Z</time>
      </trkpt>
      <trkpt lat="43.31928" lon="5.67053">
        <ele>906.6</ele>
        <time>2022-03-09T09:56:46Z</time>
      </trkpt>
      <trkpt lat="43.31925" lon="5.67058">
        <ele>907.3</ele>
        <time>2022-03-09T09:56:53Z</time>
      </trkpt>
      <trkpt lat="43.31923" lon="5.67063">
        <ele>910.3</ele>
        <time>2022-03-09T09:56:59Z</time>
      </trkpt>
      <trkpt lat="43.31923" lon="5.6707">
        <ele>911.3</ele>
        <time>2022-03-09T09:57:06Z</time>
      </trkpt>
      <trkpt lat="43.31924" lon="5.67077">
        <ele>910.9</ele>
        <time>2022-03-09T09:57:13Z</time>
      </trkpt>
      <trkpt lat="43.31925" lon="5.67083">
        <ele>909.8</ele>
        <time>2022-03-09T09:57:20Z</time>
      </trkpt>
      <trkpt lat="43.31925" lon="5.67089">
        <ele>908.7</ele>
        <time>2022-03-09T09:57:28Z</time>
      </trkpt>
      <trkpt lat="43.31926" lon="5.67096">
        <ele>906.9</ele>
        <time>2022-03-09T09:57:36Z</time>
      </trkpt>
      <trkpt lat="43.31926" lon="5.67103">
        <ele>905.9</ele>
        <time>2022-03-09T09:57:44Z</time>
      </trkpt>
      <trkpt lat="43.31926" lon="5.6711">
        <ele>904.5</ele>
        <time>2022-03-09T09:57:50Z</time>
      </trkpt>
      <trkpt lat="43.31927" lon="5.67117">
        <ele>903</ele>
        <time>2022-03-09T09:57:57Z</time>
      </trkpt>
      <trkpt lat="43.31929" lon="5.67123">
        <ele>901.1</ele>
        <time>2022-03-09T09:58:03Z</time>
      </trkpt>
      <trkpt lat="43.31928" lon="5.6713">
        <ele>902.3</ele>
        <time>2022-03-09T09:58:09Z</time>
      </trkpt>
      <trkpt lat="43.31928" lon="5.67136">
        <ele>902.9</ele>
        <time>2022-03-09T09:58:16Z</time>
      </trkpt>
      <trkpt lat="43.31928" lon="5.67143">
        <ele>902.9</ele>
        <time>2022-03-09T09:58:22Z</time>
      </trkpt>
      <trkpt lat="43.31927" lon="5.6715">
        <ele>903.5</ele>
        <time>2022-03-09T09:58:29Z</time>
      </trkpt>
      <trkpt lat="43.31928" lon="5.67156">
        <ele>902.2</ele>
        <time>2022-03-09T09:58:36Z</time>
      </trkpt>
      <trkpt lat="43.31927" lon="5.67162">
        <ele>903.5</ele>
        <time>2022-03-09T09:58:46Z</time>
      </trkpt>
      <trkpt lat="43.31928" lon="5.67169">
        <ele>902.6</ele>
        <time>2022-03-09T09:58:52Z</time>
      </trkpt>
      <trkpt lat="43.31926" lon="5.67175">
        <ele>903.3</ele>
        <time>2022-03-09T09:58:59Z</time>
      </trkpt>
      <trkpt lat="43.31927" lon="5.67182">
        <ele>902</ele>
        <time>2022-03-09T09:59:08Z</time>
      </trkpt>
      <trkpt lat="43.31924" lon="5.67187">
        <ele>904</ele>
        <time>2022-03-09T09:59:22Z</time>
      </trkpt>
      <trkpt lat="43.31923" lon="5.67194">
        <ele>904.6</ele>
        <time>2022-03-09T09:59:33Z</time>
      </trkpt>
      <trkpt lat="43.31926" lon="5.67199">
        <ele>900.8</ele>
        <time>2022-03-09T09:59:42Z</time>
      </trkpt>
      <trkpt lat="43.31925" lon="5.67206">
        <ele>900.2</ele>
        <time>2022-03-09T09:59:51Z</time>
      </trkpt>
      <trkpt lat="43.31923" lon="5.67211">
        <ele>901.8</ele>
        <time>2022-03-09T09:59:58Z</time>
      </trkpt>
      <trkpt lat="43.3192" lon="5.67216">
        <ele>903.6</ele>
        <time>2022-03-09T10:00:05Z</time>
      </trkpt>
      <trkpt lat="43.31918" lon="5.67222">
        <ele>904.8</ele>
        <time>2022-03-09T10:00:20Z</time>
      </trkpt>
      <trkpt lat="43.31919" lon="5.67229">
        <ele>903</ele>
        <time>2022-03-09T10:00:25Z</time>
      </trkpt>
      <trkpt lat="43.31919" lon="5.67236">
        <ele>901.2</ele>
        <time>2022-03-09T10:00:30Z</time>
      </trkpt>
      <trkpt lat="43.31921" lon="5.67242">
        <ele>898.4</ele>
        <time>2022-03-09T10:00:38Z</time>
      </trkpt>
      <trkpt lat="43.31922" lon="5.67248">
        <ele>897.5</ele>
        <time>2022-03-09T10:00:47Z</time>
      </trkpt>
      <trkpt lat="43.31923" lon="5.67255">
        <ele>896.5</ele>
        <time>2022-03-09T10:01:17Z</time>
      </trkpt>
      <trkpt lat="43.31923" lon="5.67264">
        <ele>897.3</ele>
        <time>2022-03-09T10:01:21Z</time>
      </trkpt>
      <trkpt lat="43.31922" lon="5.6727">
        <ele>898.5</ele>
        <time>2022-03-09T10:01:32Z</time>
      </trkpt>
      <trkpt lat="43.31922" lon="5.67277">
        <ele>899.5</ele>
        <time>2022-03-09T10:01:36Z</time>
      </trkpt>
      <trkpt lat="43.31921" lon="5.67284">
        <ele>902.3</ele>
        <time>2022-03-09T10:01:40Z</time>
      </trkpt>
      <trkpt lat="43.31919" lon="5.6729">
        <ele>907.5</ele>
        <time>2022-03-09T10:01:46Z</time>
      </trkpt>
      <trkpt lat="43.31918" lon="5.67297">
        <ele>911.7</ele>
        <time>2022-03-09T10:01:52Z</time>
      </trkpt>
      <trkpt lat="43.31917" lon="5.67303">
        <ele>915.7</ele>
        <time>2022-03-09T10:01:58Z</time>
      </trkpt>
      <trkpt lat="43.3192" lon="5.67309">
        <ele>913.6</ele>
        <time>2022-03-09T10:02:07Z</time>
      </trkpt>
      <trkpt lat="43.31921" lon="5.67316">
        <ele>913.2</ele>
        <time>2022-03-09T10:02:19Z</time>
      </trkpt>
      <trkpt lat="43.31923" lon="5.67321">
        <ele>911.8</ele>
        <time>2022-03-09T10:02:29Z</time>
      </trkpt>
      <trkpt lat="43.31928" lon="5.67321">
        <ele>904.5</ele>
        <time>2022-03-09T10:02:36Z</time>
      </trkpt>
      <trkpt lat="43.31933" lon="5.67321">
        <ele>897.9</ele>
        <time>2022-03-09T10:02:41Z</time>
      </trkpt>
      <trkpt lat="43.31934" lon="5.67328">
        <ele>897.1</ele>
        <time>2022-03-09T10:02:55Z</time>
      </trkpt>
      <trkpt lat="43.31936" lon="5.67334">
        <ele>895.7</ele>
        <time>2022-03-09T10:03:04Z</time>
      </trkpt>
      <trkpt lat="43.3194" lon="5.67339">
        <ele>893.6</ele>
        <time>2022-03-09T10:03:13Z</time>
      </trkpt>
      <trkpt lat="43.31944" lon="5.67342">
        <ele>890.3</ele>
        <time>2022-03-09T10:03:22Z</time>
      </trkpt>
      <trkpt lat="43.31946" lon="5.67347">
        <ele>891.6</ele>
        <time>2022-03-09T10:03:32Z</time>
      </trkpt>
      <trkpt lat="43.3195" lon="5.67351">
        <ele>890.2</ele>
        <time>2022-03-09T10:03:47Z</time>
      </trkpt>
      <trkpt lat="43.31955" lon="5.67353">
        <ele>887.1</ele>
        <time>2022-03-09T10:03:53Z</time>
      </trkpt>
      <trkpt lat="43.31956" lon="5.67359">
        <ele>888.3</ele>
        <time>2022-03-09T10:04:10Z</time>
      </trkpt>
      <trkpt lat="43.31955" lon="5.67352">
        <ele>886.2</ele>
        <time>2022-03-09T10:04:49Z</time>
      </trkpt>
      <trkpt lat="43.31958" lon="5.67357">
        <ele>886.1</ele>
        <time>2022-03-09T10:05:49Z</time>
      </trkpt>
      <trkpt lat="43.3196" lon="5.67363">
        <ele>885.7</ele>
        <time>2022-03-09T10:05:59Z</time>
      </trkpt>
      <trkpt lat="43.31959" lon="5.67369">
        <ele>889.6</ele>
        <time>2022-03-09T10:08:59Z</time>
      </trkpt>
      <trkpt lat="43.31961" lon="5.67375">
        <ele>889.6</ele>
        <time>2022-03-09T10:09:09Z</time>
      </trkpt>
      <trkpt lat="43.31962" lon="5.67382">
        <ele>890.1</ele>
        <time>2022-03-09T10:09:23Z</time>
      </trkpt>
      <trkpt lat="43.31964" lon="5.67389">
        <ele>890.4</ele>
        <time>2022-03-09T10:09:27Z</time>
      </trkpt>
      <trkpt lat="43.31966" lon="5.67395">
        <ele>887.9</ele>
        <time>2022-03-09T10:09:32Z</time>
      </trkpt>
      <trkpt lat="43.31968" lon="5.67401">
        <ele>886.3</ele>
        <time>2022-03-09T10:09:38Z</time>
      </trkpt>
      <trkpt lat="43.31972" lon="5.67405">
        <ele>882.4</ele>
        <time>2022-03-09T10:09:44Z</time>
      </trkpt>
      <trkpt lat="43.31974" lon="5.67412">
        <ele>882</ele>
        <time>2022-03-09T10:09:52Z</time>
      </trkpt>
      <trkpt lat="43.31977" lon="5.67418">
        <ele>881.9</ele>
        <time>2022-03-09T10:09:59Z</time>
      </trkpt>
      <trkpt lat="43.31976" lon="5.67424">
        <ele>885.7</ele>
        <time>2022-03-09T10:10:09Z</time>
      </trkpt>
      <trkpt lat="43.31978" lon="5.6743">
        <ele>887.5</ele>
        <time>2022-03-09T10:10:22Z</time>
      </trkpt>
      <trkpt lat="43.31977" lon="5.67437">
        <ele>891.7</ele>
        <time>2022-03-09T10:10:36Z</time>
      </trkpt>
      <trkpt lat="43.3198" lon="5.67442">
        <ele>891</ele>
        <time>2022-03-09T10:10:51Z</time>
      </trkpt>
      <trkpt lat="43.31985" lon="5.67442">
        <ele>885.2</ele>
        <time>2022-03-09T10:11:01Z</time>
      </trkpt>
      <trkpt lat="43.31988" lon="5.67447">
        <ele>881.9</ele>
        <time>2022-03-09T10:11:23Z</time>
      </trkpt>
      <trkpt lat="43.31983" lon="5.67447">
        <ele>888.7</ele>
        <time>2022-03-09T10:11:29Z</time>
      </trkpt>
      <trkpt lat="43.31988" lon="5.67445">
        <ele>882.1</ele>
        <time>2022-03-09T10:12:12Z</time>
      </trkpt>
      <trkpt lat="43.31987" lon="5.67451">
        <ele>884.9</ele>
        <time>2022-03-09T10:12:58Z</time>
      </trkpt>
      <trkpt lat="43.31985" lon="5.67457">
        <ele>889.5</ele>
        <time>2022-03-09T10:13:15Z</time>
      </trkpt>
      <trkpt lat="43.31981" lon="5.6746">
        <ele>897</ele>
        <time>2022-03-09T10:13:30Z</time>
      </trkpt>
      <trkpt lat="43.3198" lon="5.67466">
        <ele>900.1</ele>
        <time>2022-03-09T10:13:47Z</time>
      </trkpt>
      <trkpt lat="43.31982" lon="5.67472">
        <ele>899.3</ele>
        <time>2022-03-09T10:13:56Z</time>
      </trkpt>
      <trkpt lat="43.31985" lon="5.67478">
        <ele>894.5</ele>
        <time>2022-03-09T10:14:07Z</time>
      </trkpt>
      <trkpt lat="43.31987" lon="5.67487">
        <ele>890.5</ele>
        <time>2022-03-09T10:14:18Z</time>
      </trkpt>
      <trkpt lat="43.3199" lon="5.67493">
        <ele>885.4</ele>
        <time>2022-03-09T10:14:25Z</time>
      </trkpt>
      <trkpt lat="43.31994" lon="5.67497">
        <ele>879.6</ele>
        <time>2022-03-09T10:14:29Z</time>
      </trkpt>
      <trkpt lat="43.31994" lon="5.67504">
        <ele>880.2</ele>
        <time>2022-03-09T10:14:34Z</time>
      </trkpt>
      <trkpt lat="43.31995" lon="5.6751">
        <ele>880.7</ele>
        <time>2022-03-09T10:14:43Z</time>
      </trkpt>
      <trkpt lat="43.31996" lon="5.67516">
        <ele>879.1</ele>
        <time>2022-03-09T10:14:50Z</time>
      </trkpt>
      <trkpt lat="43.31996" lon="5.67523">
        <ele>880</ele>
        <time>2022-03-09T10:15:08Z</time>
      </trkpt>
      <trkpt lat="43.31998" lon="5.67529">
        <ele>879.4</ele>
        <time>2022-03-09T10:15:18Z</time>
      </trkpt>
      <trkpt lat="43.32" lon="5.67535">
        <ele>878.9</ele>
        <time>2022-03-09T10:15:25Z</time>
      </trkpt>
      <trkpt lat="43.32003" lon="5.6754">
        <ele>878.1</ele>
        <time>2022-03-09T10:15:36Z</time>
      </trkpt>
      <trkpt lat="43.32006" lon="5.67544">
        <ele>876.4</ele>
        <time>2022-03-09T10:15:41Z</time>
      </trkpt>
      <trkpt lat="43.32009" lon="5.67549">
        <ele>875.8</ele>
        <time>2022-03-09T10:15:46Z</time>
      </trkpt>
      <trkpt lat="43.3201" lon="5.67555">
        <ele>876.9</ele>
        <time>2022-03-09T10:15:53Z</time>
      </trkpt>
      <trkpt lat="43.32013" lon="5.67561">
        <ele>877.3</ele>
        <time>2022-03-09T10:16:07Z</time>
      </trkpt>
      <trkpt lat="43.32015" lon="5.67566">
        <ele>877.6</ele>
        <time>2022-03-09T10:16:25Z</time>
      </trkpt>
      <trkpt lat="43.32019" lon="5.6757">
        <ele>875.7</ele>
        <time>2022-03-09T10:16:37Z</time>
      </trkpt>
      <trkpt lat="43.32018" lon="5.67577">
        <ele>879.9</ele>
        <time>2022-03-09T10:16:48Z</time>
      </trkpt>
      <trkpt lat="43.3202" lon="5.67583">
        <ele>880.5</ele>
        <time>2022-03-09T10:16:53Z</time>
      </trkpt>
      <trkpt lat="43.32021" lon="5.67589">
        <ele>882.3</ele>
        <time>2022-03-09T10:17:01Z</time>
      </trkpt>
      <trkpt lat="43.32022" lon="5.67595">
        <ele>885.2</ele>
        <time>2022-03-09T10:17:08Z</time>
      </trkpt>
      <trkpt lat="43.32024" lon="5.67601">
        <ele>886.3</ele>
        <time>2022-03-09T10:17:15Z</time>
      </trkpt>
      <trkpt lat="43.32028" lon="5.67605">
        <ele>885.6</ele>
        <time>2022-03-09T10:17:20Z</time>
      </trkpt>
      <trkpt lat="43.32033" lon="5.67607">
        <ele>883.7</ele>
        <time>2022-03-09T10:17:26Z</time>
      </trkpt>
      <trkpt lat="43.32036" lon="5.67612">
        <ele>883.5</ele>
        <time>2022-03-09T10:17:31Z</time>
      </trkpt>
      <trkpt lat="43.32039" lon="5.67618">
        <ele>883.5</ele>
        <time>2022-03-09T10:17:37Z</time>
      </trkpt>
      <trkpt lat="43.32042" lon="5.67623">
        <ele>883</ele>
        <time>2022-03-09T10:17:43Z</time>
      </trkpt>
      <trkpt lat="43.32044" lon="5.6763">
        <ele>883.5</ele>
        <time>2022-03-09T10:17:50Z</time>
      </trkpt>
      <trkpt lat="43.32047" lon="5.67635">
        <ele>884</ele>
        <time>2022-03-09T10:17:56Z</time>
      </trkpt>
      <trkpt lat="43.32052" lon="5.67636">
        <ele>881</ele>
        <time>2022-03-09T10:18:01Z</time>
      </trkpt>
      <trkpt lat="43.32056" lon="5.67634">
        <ele>877.1</ele>
        <time>2022-03-09T10:18:18Z</time>
      </trkpt>
      <trkpt lat="43.32055" lon="5.6764">
        <ele>881</ele>
        <time>2022-03-09T10:19:01Z</time>
      </trkpt>
      <trkpt lat="43.32056" lon="5.67646">
        <ele>882.8</ele>
        <time>2022-03-09T10:19:10Z</time>
      </trkpt>
      <trkpt lat="43.32059" lon="5.67651">
        <ele>883.1</ele>
        <time>2022-03-09T10:19:18Z</time>
      </trkpt>
      <trkpt lat="43.32063" lon="5.67656">
        <ele>883.1</ele>
        <time>2022-03-09T10:19:24Z</time>
      </trkpt>
      <trkpt lat="43.32065" lon="5.67661">
        <ele>883.6</ele>
        <time>2022-03-09T10:19:29Z</time>
      </trkpt>
      <trkpt lat="43.32068" lon="5.67666">
        <ele>884</ele>
        <time>2022-03-09T10:19:35Z</time>
      </trkpt>
      <trkpt lat="43.32072" lon="5.6767">
        <ele>882.3</ele>
        <time>2022-03-09T10:19:39Z</time>
      </trkpt>
      <trkpt lat="43.32076" lon="5.67673">
        <ele>880.7</ele>
        <time>2022-03-09T10:19:43Z</time>
      </trkpt>
      <trkpt lat="43.32079" lon="5.67677">
        <ele>880.7</ele>
        <time>2022-03-09T10:19:57Z</time>
      </trkpt>
      <trkpt lat="43.32079" lon="5.67684">
        <ele>883.2</ele>
        <time>2022-03-09T10:20:06Z</time>
      </trkpt>
      <trkpt lat="43.32083" lon="5.67688">
        <ele>884.2</ele>
        <time>2022-03-09T10:20:22Z</time>
      </trkpt>
      <trkpt lat="43.32087" lon="5.67692">
        <ele>884.3</ele>
        <time>2022-03-09T10:20:29Z</time>
      </trkpt>
      <trkpt lat="43.32091" lon="5.67696">
        <ele>884.3</ele>
        <time>2022-03-09T10:20:37Z</time>
      </trkpt>
      <trkpt lat="43.32094" lon="5.67701">
        <ele>883.6</ele>
        <time>2022-03-09T10:20:49Z</time>
      </trkpt>
      <trkpt lat="43.32091" lon="5.67706">
        <ele>884.6</ele>
        <time>2022-03-09T10:21:06Z</time>
      </trkpt>
      <trkpt lat="43.32091" lon="5.677">
        <ele>884.6</ele>
        <time>2022-03-09T10:21:17Z</time>
      </trkpt>
      <trkpt lat="43.32088" lon="5.67705">
        <ele>885.3</ele>
        <time>2022-03-09T10:31:29Z</time>
      </trkpt>
      <trkpt lat="43.32087" lon="5.67711">
        <ele>885.4</ele>
        <time>2022-03-09T10:32:16Z</time>
      </trkpt>
      <trkpt lat="43.32083" lon="5.67715">
        <ele>885.5</ele>
        <time>2022-03-09T10:32:21Z</time>
      </trkpt>
      <trkpt lat="43.32078" lon="5.67718">
        <ele>885.2</ele>
        <time>2022-03-09T10:32:44Z</time>
      </trkpt>
      <trkpt lat="43.32073" lon="5.67721">
        <ele>884.8</ele>
        <time>2022-03-09T10:32:48Z</time>
      </trkpt>
      <trkpt lat="43.32069" lon="5.67726">
        <ele>884</ele>
        <time>2022-03-09T10:32:55Z</time>
      </trkpt>
      <trkpt lat="43.32066" lon="5.67731">
        <ele>883.1</ele>
        <time>2022-03-09T10:33:01Z</time>
      </trkpt>
      <trkpt lat="43.32062" lon="5.67736">
        <ele>882.3</ele>
        <time>2022-03-09T10:33:06Z</time>
      </trkpt>
      <trkpt lat="43.32058" lon="5.67734">
        <ele>882.4</ele>
        <time>2022-03-09T10:33:14Z</time>
      </trkpt>
      <trkpt lat="43.32054" lon="5.6773">
        <ele>882.8</ele>
        <time>2022-03-09T10:33:21Z</time>
      </trkpt>
      <trkpt lat="43.32053" lon="5.67723">
        <ele>883.8</ele>
        <time>2022-03-09T10:33:28Z</time>
      </trkpt>
      <trkpt lat="43.32057" lon="5.67719">
        <ele>884.6</ele>
        <time>2022-03-09T10:33:44Z</time>
      </trkpt>
      <trkpt lat="43.32062" lon="5.67718">
        <ele>884.8</ele>
        <time>2022-03-09T10:33:49Z</time>
      </trkpt>
      <trkpt lat="43.32066" lon="5.67716">
        <ele>885.3</ele>
        <time>2022-03-09T10:33:55Z</time>
      </trkpt>
      <trkpt lat="43.3207" lon="5.67711">
        <ele>885.9</ele>
        <time>2022-03-09T10:33:59Z</time>
      </trkpt>
      <trkpt lat="43.32074" lon="5.67708">
        <ele>886.2</ele>
        <time>2022-03-09T10:34:04Z</time>
      </trkpt>
      <trkpt lat="43.32079" lon="5.67705">
        <ele>886.4</ele>
        <time>2022-03-09T10:34:09Z</time>
      </trkpt>
      <trkpt lat="43.32084" lon="5.67705">
        <ele>886.1</ele>
        <time>2022-03-09T10:34:13Z</time>
      </trkpt>
      <trkpt lat="43.32089" lon="5.67703">
        <ele>885</ele>
        <time>2022-03-09T10:34:17Z</time>
      </trkpt>
      <trkpt lat="43.32086" lon="5.67708">
        <ele>885.6</ele>
        <time>2022-03-09T10:35:52Z</time>
      </trkpt>
      <trkpt lat="43.32087" lon="5.67702">
        <ele>885.4</ele>
        <time>2022-03-09T10:37:51Z</time>
      </trkpt>
      <trkpt lat="43.32091" lon="5.67698">
        <ele>884.3</ele>
        <time>2022-03-09T10:38:17Z</time>
      </trkpt>
      <trkpt lat="43.32087" lon="5.67702">
        <ele>885.5</ele>
        <time>2022-03-09T10:38:37Z</time>
      </trkpt>
      <trkpt lat="43.32084" lon="5.67706">
        <ele>886</ele>
        <time>2022-03-09T10:40:00Z</time>
      </trkpt>
      <trkpt lat="43.32062" lon="5.67682">
        <ele>888.5</ele>
        <time>2022-03-09T10:42:28Z</time>
      </trkpt>
      <trkpt lat="43.32058" lon="5.67677">
        <ele>890.2</ele>
        <time>2022-03-09T10:42:35Z</time>
      </trkpt>
      <trkpt lat="43.32054" lon="5.67674">
        <ele>891.9</ele>
        <time>2022-03-09T10:42:41Z</time>
      </trkpt>
      <trkpt lat="43.32049" lon="5.67672">
        <ele>892.3</ele>
        <time>2022-03-09T10:42:51Z</time>
      </trkpt>
      <trkpt lat="43.32046" lon="5.67667">
        <ele>892.9</ele>
        <time>2022-03-09T10:42:57Z</time>
      </trkpt>
      <trkpt lat="43.32043" lon="5.67662">
        <ele>892.3</ele>
        <time>2022-03-09T10:43:07Z</time>
      </trkpt>
      <trkpt lat="43.32039" lon="5.67658">
        <ele>892.4</ele>
        <time>2022-03-09T10:43:14Z</time>
      </trkpt>
      <trkpt lat="43.32035" lon="5.67654">
        <ele>893.1</ele>
        <time>2022-03-09T10:43:25Z</time>
      </trkpt>
      <trkpt lat="43.32033" lon="5.67648">
        <ele>894.1</ele>
        <time>2022-03-09T10:43:32Z</time>
      </trkpt>
      <trkpt lat="43.32029" lon="5.67645">
        <ele>896.3</ele>
        <time>2022-03-09T10:43:41Z</time>
      </trkpt>
      <trkpt lat="43.32024" lon="5.67643">
        <ele>897.3</ele>
        <time>2022-03-09T10:43:46Z</time>
      </trkpt>
      <trkpt lat="43.3202" lon="5.67639">
        <ele>898</ele>
        <time>2022-03-09T10:43:53Z</time>
      </trkpt>
      <trkpt lat="43.32018" lon="5.67633">
        <ele>897.3</ele>
        <time>2022-03-09T10:44:00Z</time>
      </trkpt>
      <trkpt lat="43.32015" lon="5.67627">
        <ele>897.2</ele>
        <time>2022-03-09T10:44:07Z</time>
      </trkpt>
      <trkpt lat="43.32011" lon="5.67624">
        <ele>897.9</ele>
        <time>2022-03-09T10:44:20Z</time>
      </trkpt>
      <trkpt lat="43.32007" lon="5.67621">
        <ele>899.1</ele>
        <time>2022-03-09T10:45:14Z</time>
      </trkpt>
      <trkpt lat="43.32005" lon="5.67615">
        <ele>900.4</ele>
        <time>2022-03-09T10:45:25Z</time>
      </trkpt>
      <trkpt lat="43.32002" lon="5.6761">
        <ele>902.1</ele>
        <time>2022-03-09T10:45:35Z</time>
      </trkpt>
      <trkpt lat="43.32" lon="5.67603">
        <ele>902.2</ele>
        <time>2022-03-09T10:45:42Z</time>
      </trkpt>
      <trkpt lat="43.31998" lon="5.67597">
        <ele>902.1</ele>
        <time>2022-03-09T10:45:47Z</time>
      </trkpt>
      <trkpt lat="43.31996" lon="5.67591">
        <ele>902</ele>
        <time>2022-03-09T10:45:53Z</time>
      </trkpt>
      <trkpt lat="43.31991" lon="5.67589">
        <ele>902.5</ele>
        <time>2022-03-09T10:46:00Z</time>
      </trkpt>
      <trkpt lat="43.31988" lon="5.67584">
        <ele>903.2</ele>
        <time>2022-03-09T10:46:07Z</time>
      </trkpt>
      <trkpt lat="43.31984" lon="5.67579">
        <ele>903.1</ele>
        <time>2022-03-09T10:46:16Z</time>
      </trkpt>
      <trkpt lat="43.3198" lon="5.6758">
        <ele>904.5</ele>
        <time>2022-03-09T10:46:27Z</time>
      </trkpt>
      <trkpt lat="43.31977" lon="5.67586">
        <ele>904.8</ele>
        <time>2022-03-09T10:46:34Z</time>
      </trkpt>
      <trkpt lat="43.31974" lon="5.67591">
        <ele>904.5</ele>
        <time>2022-03-09T10:46:40Z</time>
      </trkpt>
      <trkpt lat="43.31969" lon="5.67593">
        <ele>904.2</ele>
        <time>2022-03-09T10:46:49Z</time>
      </trkpt>
      <trkpt lat="43.31965" lon="5.67592">
        <ele>904.2</ele>
        <time>2022-03-09T10:46:57Z</time>
      </trkpt>
      <trkpt lat="43.3196" lon="5.6759">
        <ele>904.4</ele>
        <time>2022-03-09T10:47:05Z</time>
      </trkpt>
      <trkpt lat="43.31956" lon="5.67589">
        <ele>904.6</ele>
        <time>2022-03-09T10:47:13Z</time>
      </trkpt>
      <trkpt lat="43.31951" lon="5.67589">
        <ele>904.4</ele>
        <time>2022-03-09T10:47:18Z</time>
      </trkpt>
      <trkpt lat="43.31947" lon="5.67586">
        <ele>904.6</ele>
        <time>2022-03-09T10:47:23Z</time>
      </trkpt>
      <trkpt lat="43.31943" lon="5.67581">
        <ele>905.3</ele>
        <time>2022-03-09T10:47:29Z</time>
      </trkpt>
      <trkpt lat="43.31938" lon="5.67578">
        <ele>905.7</ele>
        <time>2022-03-09T10:47:38Z</time>
      </trkpt>
      <trkpt lat="43.31934" lon="5.67583">
        <ele>905.1</ele>
        <time>2022-03-09T10:48:22Z</time>
      </trkpt>
      <trkpt lat="43.31933" lon="5.67589">
        <ele>904.2</ele>
        <time>2022-03-09T10:48:28Z</time>
      </trkpt>
      <trkpt lat="43.31933" lon="5.67595">
        <ele>903.3</ele>
        <time>2022-03-09T10:48:34Z</time>
      </trkpt>
      <trkpt lat="43.31937" lon="5.67599">
        <ele>902.7</ele>
        <time>2022-03-09T10:48:40Z</time>
      </trkpt>
      <trkpt lat="43.3194" lon="5.67603">
        <ele>902.1</ele>
        <time>2022-03-09T10:48:47Z</time>
      </trkpt>
      <trkpt lat="43.31938" lon="5.67609">
        <ele>901.3</ele>
        <time>2022-03-09T10:48:56Z</time>
      </trkpt>
      <trkpt lat="43.31935" lon="5.67615">
        <ele>900.2</ele>
        <time>2022-03-09T10:49:02Z</time>
      </trkpt>
      <trkpt lat="43.31934" lon="5.67621">
        <ele>899</ele>
        <time>2022-03-09T10:49:07Z</time>
      </trkpt>
      <trkpt lat="43.31933" lon="5.67627">
        <ele>897.9</ele>
        <time>2022-03-09T10:49:14Z</time>
      </trkpt>
      <trkpt lat="43.31932" lon="5.67634">
        <ele>896.6</ele>
        <time>2022-03-09T10:49:24Z</time>
      </trkpt>
      <trkpt lat="43.31935" lon="5.67639">
        <ele>895.7</ele>
        <time>2022-03-09T10:49:30Z</time>
      </trkpt>
      <trkpt lat="43.31936" lon="5.67645">
        <ele>894.8</ele>
        <time>2022-03-09T10:49:37Z</time>
      </trkpt>
      <trkpt lat="43.31937" lon="5.67652">
        <ele>893.9</ele>
        <time>2022-03-09T10:49:46Z</time>
      </trkpt>
      <trkpt lat="43.31938" lon="5.67658">
        <ele>893</ele>
        <time>2022-03-09T10:49:54Z</time>
      </trkpt>
      <trkpt lat="43.31937" lon="5.67664">
        <ele>892.1</ele>
        <time>2022-03-09T10:50:02Z</time>
      </trkpt>
      <trkpt lat="43.31934" lon="5.67671">
        <ele>890.9</ele>
        <time>2022-03-09T10:50:10Z</time>
      </trkpt>
      <trkpt lat="43.31936" lon="5.67676">
        <ele>889.8</ele>
        <time>2022-03-09T10:50:22Z</time>
      </trkpt>
      <trkpt lat="43.3194" lon="5.67681">
        <ele>888.9</ele>
        <time>2022-03-09T10:50:30Z</time>
      </trkpt>
      <trkpt lat="43.31941" lon="5.67687">
        <ele>887.6</ele>
        <time>2022-03-09T10:50:40Z</time>
      </trkpt>
      <trkpt lat="43.31938" lon="5.67693">
        <ele>886.5</ele>
        <time>2022-03-09T10:50:50Z</time>
      </trkpt>
      <trkpt lat="43.31936" lon="5.67699">
        <ele>885.5</ele>
        <time>2022-03-09T10:51:00Z</time>
      </trkpt>
      <trkpt lat="43.31937" lon="5.67706">
        <ele>884.4</ele>
        <time>2022-03-09T10:51:07Z</time>
      </trkpt>
      <trkpt lat="43.31935" lon="5.67711">
        <ele>883.5</ele>
        <time>2022-03-09T10:51:15Z</time>
      </trkpt>
      <trkpt lat="43.31935" lon="5.67718">
        <ele>882.5</ele>
        <time>2022-03-09T10:51:22Z</time>
      </trkpt>
      <trkpt lat="43.31935" lon="5.67724">
        <ele>881.5</ele>
        <time>2022-03-09T10:51:32Z</time>
      </trkpt>
      <trkpt lat="43.31935" lon="5.67731">
        <ele>880.6</ele>
        <time>2022-03-09T10:51:39Z</time>
      </trkpt>
      <trkpt lat="43.31933" lon="5.67736">
        <ele>880.1</ele>
        <time>2022-03-09T10:51:46Z</time>
      </trkpt>
      <trkpt lat="43.31931" lon="5.67743">
        <ele>879.4</ele>
        <time>2022-03-09T10:51:54Z</time>
      </trkpt>
      <trkpt lat="43.31932" lon="5.67749">
        <ele>878.6</ele>
        <time>2022-03-09T10:52:02Z</time>
      </trkpt>
      <trkpt lat="43.31933" lon="5.67756">
        <ele>877.7</ele>
        <time>2022-03-09T10:52:10Z</time>
      </trkpt>
      <trkpt lat="43.31934" lon="5.67762">
        <ele>876.9</ele>
        <time>2022-03-09T10:52:17Z</time>
      </trkpt>
      <trkpt lat="43.31934" lon="5.67769">
        <ele>876.1</ele>
        <time>2022-03-09T10:52:26Z</time>
      </trkpt>
      <trkpt lat="43.31934" lon="5.67776">
        <ele>875.2</ele>
        <time>2022-03-09T10:52:33Z</time>
      </trkpt>
      <trkpt lat="43.31935" lon="5.67783">
        <ele>874.7</ele>
        <time>2022-03-09T10:52:38Z</time>
      </trkpt>
      <trkpt lat="43.31932" lon="5.67788">
        <ele>874.3</ele>
        <time>2022-03-09T10:52:45Z</time>
      </trkpt>
      <trkpt lat="43.31934" lon="5.67794">
        <ele>873.9</ele>
        <time>2022-03-09T10:52:51Z</time>
      </trkpt>
      <trkpt lat="43.31936" lon="5.678">
        <ele>873.4</ele>
        <time>2022-03-09T10:52:59Z</time>
      </trkpt>
      <trkpt lat="43.31935" lon="5.67807">
        <ele>872.9</ele>
        <time>2022-03-09T10:53:06Z</time>
      </trkpt>
      <trkpt lat="43.31934" lon="5.67814">
        <ele>872.3</ele>
        <time>2022-03-09T10:53:14Z</time>
      </trkpt>
      <trkpt lat="43.31935" lon="5.6782">
        <ele>871.8</ele>
        <time>2022-03-09T10:53:20Z</time>
      </trkpt>
      <trkpt lat="43.31936" lon="5.67826">
        <ele>871.3</ele>
        <time>2022-03-09T10:53:26Z</time>
      </trkpt>
      <trkpt lat="43.31937" lon="5.67833">
        <ele>870.8</ele>
        <time>2022-03-09T10:53:31Z</time>
      </trkpt>
      <trkpt lat="43.31938" lon="5.6784">
        <ele>870.3</ele>
        <time>2022-03-09T10:53:36Z</time>
      </trkpt>
      <trkpt lat="43.31939" lon="5.67847">
        <ele>870.1</ele>
        <time>2022-03-09T10:53:40Z</time>
      </trkpt>
      <trkpt lat="43.3194" lon="5.67853">
        <ele>869.8</ele>
        <time>2022-03-09T10:53:45Z</time>
      </trkpt>
      <trkpt lat="43.31941" lon="5.67859">
        <ele>869.5</ele>
        <time>2022-03-09T10:53:50Z</time>
      </trkpt>
      <trkpt lat="43.31942" lon="5.67866">
        <ele>869.4</ele>
        <time>2022-03-09T10:53:58Z</time>
      </trkpt>
      <trkpt lat="43.31942" lon="5.67872">
        <ele>869.3</ele>
        <time>2022-03-09T10:54:14Z</time>
      </trkpt>
      <trkpt lat="43.31942" lon="5.67878">
        <ele>869.1</ele>
        <time>2022-03-09T10:54:19Z</time>
      </trkpt>
      <trkpt lat="43.31942" lon="5.67885">
        <ele>868.8</ele>
        <time>2022-03-09T10:54:25Z</time>
      </trkpt>
      <trkpt lat="43.31942" lon="5.67892">
        <ele>868.7</ele>
        <time>2022-03-09T10:54:31Z</time>
      </trkpt>
      <trkpt lat="43.31944" lon="5.67898">
        <ele>868.9</ele>
        <time>2022-03-09T10:54:37Z</time>
      </trkpt>
      <trkpt lat="43.31945" lon="5.67905">
        <ele>869</ele>
        <time>2022-03-09T10:54:43Z</time>
      </trkpt>
      <trkpt lat="43.31947" lon="5.67912">
        <ele>868.9</ele>
        <time>2022-03-09T10:54:50Z</time>
      </trkpt>
      <trkpt lat="43.31948" lon="5.67918">
        <ele>868.9</ele>
        <time>2022-03-09T10:54:55Z</time>
      </trkpt>
      <trkpt lat="43.3195" lon="5.67925">
        <ele>868.9</ele>
        <time>2022-03-09T10:55:03Z</time>
      </trkpt>
      <trkpt lat="43.31949" lon="5.67931">
        <ele>868.9</ele>
        <time>2022-03-09T10:55:11Z</time>
      </trkpt>
      <trkpt lat="43.31946" lon="5.67937">
        <ele>869</ele>
        <time>2022-03-09T10:55:18Z</time>
      </trkpt>
      <trkpt lat="43.31943" lon="5.67942">
        <ele>869.1</ele>
        <time>2022-03-09T10:55:25Z</time>
      </trkpt>
      <trkpt lat="43.31941" lon="5.67949">
        <ele>869.1</ele>
        <time>2022-03-09T10:55:32Z</time>
      </trkpt>
      <trkpt lat="43.3194" lon="5.67955">
        <ele>869</ele>
        <time>2022-03-09T10:55:37Z</time>
      </trkpt>
      <trkpt lat="43.31938" lon="5.67961">
        <ele>869</ele>
        <time>2022-03-09T10:55:43Z</time>
      </trkpt>
      <trkpt lat="43.31937" lon="5.67967">
        <ele>868.8</ele>
        <time>2022-03-09T10:55:51Z</time>
      </trkpt>
      <trkpt lat="43.31934" lon="5.67973">
        <ele>868.6</ele>
        <time>2022-03-09T10:55:58Z</time>
      </trkpt>
      <trkpt lat="43.31934" lon="5.67979">
        <ele>868.3</ele>
        <time>2022-03-09T10:56:05Z</time>
      </trkpt>
      <trkpt lat="43.31933" lon="5.67985">
        <ele>868</ele>
        <time>2022-03-09T10:56:11Z</time>
      </trkpt>
      <trkpt lat="43.31933" lon="5.67991">
        <ele>867.7</ele>
        <time>2022-03-09T10:56:18Z</time>
      </trkpt>
      <trkpt lat="43.31933" lon="5.67998">
        <ele>867.5</ele>
        <time>2022-03-09T10:56:24Z</time>
      </trkpt>
      <trkpt lat="43.31934" lon="5.68004">
        <ele>867.2</ele>
        <time>2022-03-09T10:56:29Z</time>
      </trkpt>
      <trkpt lat="43.31935" lon="5.68011">
        <ele>867</ele>
        <time>2022-03-09T10:56:37Z</time>
      </trkpt>
      <trkpt lat="43.31935" lon="5.68017">
        <ele>866.6</ele>
        <time>2022-03-09T10:56:45Z</time>
      </trkpt>
      <trkpt lat="43.31933" lon="5.68024">
        <ele>865.8</ele>
        <time>2022-03-09T10:56:55Z</time>
      </trkpt>
      <trkpt lat="43.31932" lon="5.68032">
        <ele>865.4</ele>
        <time>2022-03-09T10:57:00Z</time>
      </trkpt>
      <trkpt lat="43.31933" lon="5.68038">
        <ele>865.5</ele>
        <time>2022-03-09T10:57:06Z</time>
      </trkpt>
      <trkpt lat="43.31934" lon="5.68044">
        <ele>865.8</ele>
        <time>2022-03-09T10:57:13Z</time>
      </trkpt>
      <trkpt lat="43.31935" lon="5.68051">
        <ele>866</ele>
        <time>2022-03-09T10:57:20Z</time>
      </trkpt>
      <trkpt lat="43.31936" lon="5.68058">
        <ele>866.2</ele>
        <time>2022-03-09T10:57:26Z</time>
      </trkpt>
      <trkpt lat="43.31936" lon="5.68064">
        <ele>866.3</ele>
        <time>2022-03-09T10:57:33Z</time>
      </trkpt>
      <trkpt lat="43.31934" lon="5.6807">
        <ele>866.2</ele>
        <time>2022-03-09T10:57:40Z</time>
      </trkpt>
      <trkpt lat="43.31931" lon="5.68076">
        <ele>866.1</ele>
        <time>2022-03-09T10:57:46Z</time>
      </trkpt>
      <trkpt lat="43.31928" lon="5.68082">
        <ele>866.3</ele>
        <time>2022-03-09T10:57:52Z</time>
      </trkpt>
      <trkpt lat="43.31926" lon="5.68088">
        <ele>866.4</ele>
        <time>2022-03-09T10:57:56Z</time>
      </trkpt>
      <trkpt lat="43.31924" lon="5.68094">
        <ele>866.5</ele>
        <time>2022-03-09T10:58:00Z</time>
      </trkpt>
      <trkpt lat="43.3192" lon="5.68116">
        <ele>867</ele>
        <time>2022-03-09T10:58:24Z</time>
      </trkpt>
      <trkpt lat="43.31919" lon="5.68123">
        <ele>867</ele>
        <time>2022-03-09T10:58:32Z</time>
      </trkpt>
      <trkpt lat="43.31918" lon="5.68129">
        <ele>867</ele>
        <time>2022-03-09T10:58:39Z</time>
      </trkpt>
      <trkpt lat="43.31916" lon="5.68135">
        <ele>866.7</ele>
        <time>2022-03-09T10:58:45Z</time>
      </trkpt>
      <trkpt lat="43.31915" lon="5.68141">
        <ele>866.2</ele>
        <time>2022-03-09T10:58:50Z</time>
      </trkpt>
      <trkpt lat="43.31913" lon="5.68147">
        <ele>865.9</ele>
        <time>2022-03-09T10:58:56Z</time>
      </trkpt>
      <trkpt lat="43.31911" lon="5.68153">
        <ele>865.9</ele>
        <time>2022-03-09T10:59:04Z</time>
      </trkpt>
      <trkpt lat="43.3191" lon="5.6816">
        <ele>866.3</ele>
        <time>2022-03-09T10:59:10Z</time>
      </trkpt>
      <trkpt lat="43.31908" lon="5.68166">
        <ele>866.9</ele>
        <time>2022-03-09T10:59:20Z</time>
      </trkpt>
      <trkpt lat="43.31908" lon="5.68173">
        <ele>866.9</ele>
        <time>2022-03-09T10:59:26Z</time>
      </trkpt>
      <trkpt lat="43.31908" lon="5.6818">
        <ele>866.7</ele>
        <time>2022-03-09T10:59:31Z</time>
      </trkpt>
      <trkpt lat="43.31909" lon="5.68186">
        <ele>866.5</ele>
        <time>2022-03-09T10:59:36Z</time>
      </trkpt>
      <trkpt lat="43.31909" lon="5.68193">
        <ele>866.3</ele>
        <time>2022-03-09T10:59:42Z</time>
      </trkpt>
      <trkpt lat="43.31911" lon="5.68198">
        <ele>866.1</ele>
        <time>2022-03-09T10:59:48Z</time>
      </trkpt>
      <trkpt lat="43.31915" lon="5.68204">
        <ele>865.7</ele>
        <time>2022-03-09T10:59:56Z</time>
      </trkpt>
      <trkpt lat="43.31919" lon="5.68207">
        <ele>865.5</ele>
        <time>2022-03-09T11:00:02Z</time>
      </trkpt>
      <trkpt lat="43.31921" lon="5.68213">
        <ele>865.2</ele>
        <time>2022-03-09T11:00:10Z</time>
      </trkpt>
      <trkpt lat="43.31921" lon="5.68219">
        <ele>864.9</ele>
        <time>2022-03-09T11:00:24Z</time>
      </trkpt>
      <trkpt lat="43.31926" lon="5.6822">
        <ele>864.8</ele>
        <time>2022-03-09T11:00:30Z</time>
      </trkpt>
      <trkpt lat="43.3193" lon="5.68216">
        <ele>864.7</ele>
        <time>2022-03-09T11:01:05Z</time>
      </trkpt>
      <trkpt lat="43.31928" lon="5.68222">
        <ele>864.6</ele>
        <time>2022-03-09T11:02:40Z</time>
      </trkpt>
      <trkpt lat="43.31924" lon="5.68226">
        <ele>864.6</ele>
        <time>2022-03-09T11:02:55Z</time>
      </trkpt>
      <trkpt lat="43.3192" lon="5.68229">
        <ele>864.6</ele>
        <time>2022-03-09T11:03:02Z</time>
      </trkpt>
      <trkpt lat="43.31915" lon="5.68231">
        <ele>864.7</ele>
        <time>2022-03-09T11:03:11Z</time>
      </trkpt>
      <trkpt lat="43.31911" lon="5.68235">
        <ele>864.8</ele>
        <time>2022-03-09T11:03:22Z</time>
      </trkpt>
      <trkpt lat="43.3191" lon="5.68241">
        <ele>864.7</ele>
        <time>2022-03-09T11:03:32Z</time>
      </trkpt>
      <trkpt lat="43.31909" lon="5.68248">
        <ele>864.6</ele>
        <time>2022-03-09T11:03:36Z</time>
      </trkpt>
      <trkpt lat="43.31907" lon="5.68253">
        <ele>864.7</ele>
        <time>2022-03-09T11:03:42Z</time>
      </trkpt>
      <trkpt lat="43.31907" lon="5.6826">
        <ele>864.7</ele>
        <time>2022-03-09T11:03:48Z</time>
      </trkpt>
      <trkpt lat="43.31907" lon="5.68267">
        <ele>864.7</ele>
        <time>2022-03-09T11:03:55Z</time>
      </trkpt>
      <trkpt lat="43.31907" lon="5.68274">
        <ele>864.7</ele>
        <time>2022-03-09T11:04:02Z</time>
      </trkpt>
      <trkpt lat="43.31906" lon="5.68281">
        <ele>864.7</ele>
        <time>2022-03-09T11:04:08Z</time>
      </trkpt>
      <trkpt lat="43.31906" lon="5.68287">
        <ele>864.4</ele>
        <time>2022-03-09T11:04:14Z</time>
      </trkpt>
      <trkpt lat="43.31906" lon="5.68294">
        <ele>864.2</ele>
        <time>2022-03-09T11:04:20Z</time>
      </trkpt>
      <trkpt lat="43.31904" lon="5.68301">
        <ele>864.1</ele>
        <time>2022-03-09T11:04:26Z</time>
      </trkpt>
      <trkpt lat="43.31901" lon="5.68306">
        <ele>864.1</ele>
        <time>2022-03-09T11:04:31Z</time>
      </trkpt>
      <trkpt lat="43.31899" lon="5.68312">
        <ele>864.3</ele>
        <time>2022-03-09T11:04:38Z</time>
      </trkpt>
      <trkpt lat="43.31897" lon="5.68318">
        <ele>864.4</ele>
        <time>2022-03-09T11:04:45Z</time>
      </trkpt>
      <trkpt lat="43.31894" lon="5.68324">
        <ele>864.7</ele>
        <time>2022-03-09T11:04:50Z</time>
      </trkpt>
      <trkpt lat="43.31891" lon="5.68329">
        <ele>864.8</ele>
        <time>2022-03-09T11:04:55Z</time>
      </trkpt>
      <trkpt lat="43.31888" lon="5.68335">
        <ele>865</ele>
        <time>2022-03-09T11:05:01Z</time>
      </trkpt>
      <trkpt lat="43.31885" lon="5.6834">
        <ele>865</ele>
        <time>2022-03-09T11:05:07Z</time>
      </trkpt>
      <trkpt lat="43.31882" lon="5.68345">
        <ele>865.1</ele>
        <time>2022-03-09T11:05:14Z</time>
      </trkpt>
      <trkpt lat="43.31879" lon="5.6835">
        <ele>865.2</ele>
        <time>2022-03-09T11:05:21Z</time>
      </trkpt>
      <trkpt lat="43.3188" lon="5.68357">
        <ele>865.3</ele>
        <time>2022-03-09T11:05:32Z</time>
      </trkpt>
      <trkpt lat="43.31884" lon="5.6836">
        <ele>865.2</ele>
        <time>2022-03-09T11:05:39Z</time>
      </trkpt>
      <trkpt lat="43.31888" lon="5.68364">
        <ele>865</ele>
        <time>2022-03-09T11:05:45Z</time>
      </trkpt>
      <trkpt lat="43.31891" lon="5.68368">
        <ele>864.7</ele>
        <time>2022-03-09T11:05:53Z</time>
      </trkpt>
      <trkpt lat="43.31897" lon="5.68368">
        <ele>864.1</ele>
        <time>2022-03-09T11:06:00Z</time>
      </trkpt>
      <trkpt lat="43.31902" lon="5.6837">
        <ele>863.5</ele>
        <time>2022-03-09T11:06:05Z</time>
      </trkpt>
      <trkpt lat="43.31906" lon="5.6837">
        <ele>862.9</ele>
        <time>2022-03-09T11:06:12Z</time>
      </trkpt>
      <trkpt lat="43.31912" lon="5.68371">
        <ele>862.2</ele>
        <time>2022-03-09T11:06:17Z</time>
      </trkpt>
      <trkpt lat="43.31917" lon="5.68373">
        <ele>861.6</ele>
        <time>2022-03-09T11:06:23Z</time>
      </trkpt>
      <trkpt lat="43.31922" lon="5.68373">
        <ele>861.1</ele>
        <time>2022-03-09T11:06:46Z</time>
      </trkpt>
      <trkpt lat="43.31927" lon="5.68372">
        <ele>860.5</ele>
        <time>2022-03-09T11:06:53Z</time>
      </trkpt>
      <trkpt lat="43.31931" lon="5.68374">
        <ele>860</ele>
        <time>2022-03-09T11:06:57Z</time>
      </trkpt>
      <trkpt lat="43.31937" lon="5.68375">
        <ele>859.3</ele>
        <time>2022-03-09T11:07:01Z</time>
      </trkpt>
      <trkpt lat="43.31941" lon="5.68378">
        <ele>858.7</ele>
        <time>2022-03-09T11:07:05Z</time>
      </trkpt>
      <trkpt lat="43.31946" lon="5.68381">
        <ele>858.2</ele>
        <time>2022-03-09T11:07:10Z</time>
      </trkpt>
      <trkpt lat="43.31951" lon="5.68382">
        <ele>857.7</ele>
        <time>2022-03-09T11:07:14Z</time>
      </trkpt>
      <trkpt lat="43.31956" lon="5.68384">
        <ele>857.2</ele>
        <time>2022-03-09T11:07:19Z</time>
      </trkpt>
      <trkpt lat="43.3196" lon="5.6839">
        <ele>856.8</ele>
        <time>2022-03-09T11:07:24Z</time>
      </trkpt>
      <trkpt lat="43.31965" lon="5.68388">
        <ele>856.5</ele>
        <time>2022-03-09T11:07:30Z</time>
      </trkpt>
      <trkpt lat="43.3197" lon="5.68388">
        <ele>856.1</ele>
        <time>2022-03-09T11:07:34Z</time>
      </trkpt>
      <trkpt lat="43.31974" lon="5.68384">
        <ele>856</ele>
        <time>2022-03-09T11:07:44Z</time>
      </trkpt>
      <trkpt lat="43.31979" lon="5.68383">
        <ele>856</ele>
        <time>2022-03-09T11:07:53Z</time>
      </trkpt>
      <trkpt lat="43.31983" lon="5.68387">
        <ele>856</ele>
        <time>2022-03-09T11:07:57Z</time>
      </trkpt>
      <trkpt lat="43.31988" lon="5.68386">
        <ele>856.1</ele>
        <time>2022-03-09T11:08:03Z</time>
      </trkpt>
      <trkpt lat="43.31993" lon="5.68385">
        <ele>856.1</ele>
        <time>2022-03-09T11:08:10Z</time>
      </trkpt>
      <trkpt lat="43.31998" lon="5.68386">
        <ele>856.1</ele>
        <time>2022-03-09T11:08:14Z</time>
      </trkpt>
      <trkpt lat="43.32003" lon="5.6839">
        <ele>856</ele>
        <time>2022-03-09T11:08:19Z</time>
      </trkpt>
      <trkpt lat="43.32007" lon="5.68393">
        <ele>855.8</ele>
        <time>2022-03-09T11:08:25Z</time>
      </trkpt>
      <trkpt lat="43.32012" lon="5.68395">
        <ele>855.6</ele>
        <time>2022-03-09T11:08:33Z</time>
      </trkpt>
      <trkpt lat="43.32016" lon="5.68399">
        <ele>855.5</ele>
        <time>2022-03-09T11:08:38Z</time>
      </trkpt>
      <trkpt lat="43.32019" lon="5.68404">
        <ele>855.3</ele>
        <time>2022-03-09T11:08:46Z</time>
      </trkpt>
      <trkpt lat="43.32023" lon="5.68407">
        <ele>855.3</ele>
        <time>2022-03-09T11:08:52Z</time>
      </trkpt>
      <trkpt lat="43.32026" lon="5.68412">
        <ele>855.1</ele>
        <time>2022-03-09T11:08:57Z</time>
      </trkpt>
      <trkpt lat="43.3203" lon="5.68418">
        <ele>855</ele>
        <time>2022-03-09T11:09:02Z</time>
      </trkpt>
      <trkpt lat="43.32031" lon="5.68425">
        <ele>854.7</ele>
        <time>2022-03-09T11:09:06Z</time>
      </trkpt>
      <trkpt lat="43.32034" lon="5.6843">
        <ele>854.5</ele>
        <time>2022-03-09T11:09:11Z</time>
      </trkpt>
      <trkpt lat="43.32039" lon="5.68433">
        <ele>854.4</ele>
        <time>2022-03-09T11:09:15Z</time>
      </trkpt>
      <trkpt lat="43.32044" lon="5.68435">
        <ele>854.3</ele>
        <time>2022-03-09T11:09:20Z</time>
      </trkpt>
      <trkpt lat="43.32048" lon="5.68437">
        <ele>854.3</ele>
        <time>2022-03-09T11:09:28Z</time>
      </trkpt>
      <trkpt lat="43.32052" lon="5.68439">
        <ele>854.2</ele>
        <time>2022-03-09T11:09:33Z</time>
      </trkpt>
      <trkpt lat="43.32057" lon="5.68443">
        <ele>854</ele>
        <time>2022-03-09T11:09:45Z</time>
      </trkpt>
      <trkpt lat="43.3206" lon="5.68447">
        <ele>853.7</ele>
        <time>2022-03-09T11:09:53Z</time>
      </trkpt>
      <trkpt lat="43.32064" lon="5.68452">
        <ele>853.4</ele>
        <time>2022-03-09T11:09:59Z</time>
      </trkpt>
      <trkpt lat="43.32066" lon="5.68458">
        <ele>853.1</ele>
        <time>2022-03-09T11:10:05Z</time>
      </trkpt>
      <trkpt lat="43.32069" lon="5.68464">
        <ele>852.8</ele>
        <time>2022-03-09T11:10:14Z</time>
      </trkpt>
      <trkpt lat="43.32072" lon="5.68468">
        <ele>852.6</ele>
        <time>2022-03-09T11:10:22Z</time>
      </trkpt>
      <trkpt lat="43.32077" lon="5.6847">
        <ele>852.3</ele>
        <time>2022-03-09T11:10:30Z</time>
      </trkpt>
      <trkpt lat="43.32081" lon="5.68474">
        <ele>852.1</ele>
        <time>2022-03-09T11:10:38Z</time>
      </trkpt>
      <trkpt lat="43.32084" lon="5.68479">
        <ele>851.9</ele>
        <time>2022-03-09T11:10:44Z</time>
      </trkpt>
      <trkpt lat="43.32087" lon="5.68485">
        <ele>851.8</ele>
        <time>2022-03-09T11:10:50Z</time>
      </trkpt>
      <trkpt lat="43.3209" lon="5.6849">
        <ele>851.7</ele>
        <time>2022-03-09T11:10:55Z</time>
      </trkpt>
      <trkpt lat="43.32094" lon="5.68494">
        <ele>851.5</ele>
        <time>2022-03-09T11:11:01Z</time>
      </trkpt>
      <trkpt lat="43.32096" lon="5.68501">
        <ele>851.6</ele>
        <time>2022-03-09T11:11:14Z</time>
      </trkpt>
      <trkpt lat="43.32097" lon="5.68507">
        <ele>851.5</ele>
        <time>2022-03-09T11:11:20Z</time>
      </trkpt>
      <trkpt lat="43.32101" lon="5.68511">
        <ele>851.3</ele>
        <time>2022-03-09T11:11:27Z</time>
      </trkpt>
      <trkpt lat="43.32106" lon="5.68513">
        <ele>851.2</ele>
        <time>2022-03-09T11:11:32Z</time>
      </trkpt>
      <trkpt lat="43.3211" lon="5.68518">
        <ele>851</ele>
        <time>2022-03-09T11:11:39Z</time>
      </trkpt>
      <trkpt lat="43.32112" lon="5.68523">
        <ele>851</ele>
        <time>2022-03-09T11:11:48Z</time>
      </trkpt>
      <trkpt lat="43.32114" lon="5.68529">
        <ele>850.9</ele>
        <time>2022-03-09T11:11:54Z</time>
      </trkpt>
      <trkpt lat="43.32116" lon="5.68535">
        <ele>850.8</ele>
        <time>2022-03-09T11:11:57Z</time>
      </trkpt>
      <trkpt lat="43.32119" lon="5.6854">
        <ele>850.7</ele>
        <time>2022-03-09T11:12:02Z</time>
      </trkpt>
      <trkpt lat="43.32121" lon="5.68546">
        <ele>850.6</ele>
        <time>2022-03-09T11:12:10Z</time>
      </trkpt>
      <trkpt lat="43.32124" lon="5.68552">
        <ele>850.5</ele>
        <time>2022-03-09T11:12:16Z</time>
      </trkpt>
      <trkpt lat="43.32126" lon="5.68558">
        <ele>850.4</ele>
        <time>2022-03-09T11:12:20Z</time>
      </trkpt>
      <trkpt lat="43.32128" lon="5.68564">
        <ele>850.2</ele>
        <time>2022-03-09T11:12:25Z</time>
      </trkpt>
      <trkpt lat="43.32131" lon="5.68569">
        <ele>850</ele>
        <time>2022-03-09T11:12:32Z</time>
      </trkpt>
      <trkpt lat="43.32134" lon="5.68575">
        <ele>849.9</ele>
        <time>2022-03-09T11:12:36Z</time>
      </trkpt>
      <trkpt lat="43.32136" lon="5.68581">
        <ele>849.9</ele>
        <time>2022-03-09T11:12:41Z</time>
      </trkpt>
      <trkpt lat="43.3214" lon="5.68585">
        <ele>849.4</ele>
        <time>2022-03-09T11:12:48Z</time>
      </trkpt>
      <trkpt lat="43.32144" lon="5.68588">
        <ele>848.3</ele>
        <time>2022-03-09T11:12:54Z</time>
      </trkpt>
      <trkpt lat="43.32148" lon="5.68592">
        <ele>847.2</ele>
        <time>2022-03-09T11:13:02Z</time>
      </trkpt>
      <trkpt lat="43.32154" lon="5.68594">
        <ele>846.8</ele>
        <time>2022-03-09T11:13:08Z</time>
      </trkpt>
      <trkpt lat="43.32158" lon="5.68596">
        <ele>846.4</ele>
        <time>2022-03-09T11:13:13Z</time>
      </trkpt>
      <trkpt lat="43.32163" lon="5.68597">
        <ele>846.5</ele>
        <time>2022-03-09T11:13:17Z</time>
      </trkpt>
      <trkpt lat="43.32167" lon="5.68599">
        <ele>846.4</ele>
        <time>2022-03-09T11:13:24Z</time>
      </trkpt>
      <trkpt lat="43.32172" lon="5.68601">
        <ele>846.1</ele>
        <time>2022-03-09T11:13:32Z</time>
      </trkpt>
      <trkpt lat="43.32177" lon="5.68603">
        <ele>845.8</ele>
        <time>2022-03-09T11:13:37Z</time>
      </trkpt>
      <trkpt lat="43.32181" lon="5.68606">
        <ele>845.6</ele>
        <time>2022-03-09T11:13:42Z</time>
      </trkpt>
      <trkpt lat="43.32186" lon="5.68608">
        <ele>845.3</ele>
        <time>2022-03-09T11:13:47Z</time>
      </trkpt>
      <trkpt lat="43.3219" lon="5.68611">
        <ele>845.1</ele>
        <time>2022-03-09T11:13:52Z</time>
      </trkpt>
      <trkpt lat="43.32195" lon="5.68613">
        <ele>844.3</ele>
        <time>2022-03-09T11:14:00Z</time>
      </trkpt>
      <trkpt lat="43.322" lon="5.68614">
        <ele>843.7</ele>
        <time>2022-03-09T11:14:05Z</time>
      </trkpt>
      <trkpt lat="43.32205" lon="5.68616">
        <ele>843.3</ele>
        <time>2022-03-09T11:14:10Z</time>
      </trkpt>
      <trkpt lat="43.3221" lon="5.68618">
        <ele>843.1</ele>
        <time>2022-03-09T11:14:15Z</time>
      </trkpt>
      <trkpt lat="43.32214" lon="5.68621">
        <ele>842.8</ele>
        <time>2022-03-09T11:14:19Z</time>
      </trkpt>
      <trkpt lat="43.32219" lon="5.68625">
        <ele>842.9</ele>
        <time>2022-03-09T11:14:23Z</time>
      </trkpt>
      <trkpt lat="43.32222" lon="5.68628">
        <ele>843.4</ele>
        <time>2022-03-09T11:14:28Z</time>
      </trkpt>
      <trkpt lat="43.32228" lon="5.68631">
        <ele>843.4</ele>
        <time>2022-03-09T11:14:33Z</time>
      </trkpt>
      <trkpt lat="43.32232" lon="5.68633">
        <ele>843.4</ele>
        <time>2022-03-09T11:14:38Z</time>
      </trkpt>
      <trkpt lat="43.32237" lon="5.68636">
        <ele>843.5</ele>
        <time>2022-03-09T11:14:43Z</time>
      </trkpt>
      <trkpt lat="43.32241" lon="5.68638">
        <ele>843.7</ele>
        <time>2022-03-09T11:14:50Z</time>
      </trkpt>
      <trkpt lat="43.32246" lon="5.68639">
        <ele>843.8</ele>
        <time>2022-03-09T11:14:56Z</time>
      </trkpt>
      <trkpt lat="43.3225" lon="5.68644">
        <ele>836.9</ele>
        <time>2022-03-09T11:15:04Z</time>
      </trkpt>
      <trkpt lat="43.32254" lon="5.68647">
        <ele>832.1</ele>
        <time>2022-03-09T11:15:10Z</time>
      </trkpt>
      <trkpt lat="43.32259" lon="5.68648">
        <ele>830.9</ele>
        <time>2022-03-09T11:15:17Z</time>
      </trkpt>
      <trkpt lat="43.32256" lon="5.68653">
        <ele>823.8</ele>
        <time>2022-03-09T11:15:45Z</time>
      </trkpt>
      <trkpt lat="43.32255" lon="5.68646">
        <ele>833</ele>
        <time>2022-03-09T11:16:15Z</time>
      </trkpt>
      <trkpt lat="43.32259" lon="5.68642">
        <ele>840.4</ele>
        <time>2022-03-09T11:16:26Z</time>
      </trkpt>
      <trkpt lat="43.32262" lon="5.68638">
        <ele>844.4</ele>
        <time>2022-03-09T11:17:10Z</time>
      </trkpt>
      <trkpt lat="43.32267" lon="5.68635">
        <ele>844.5</ele>
        <time>2022-03-09T11:17:18Z</time>
      </trkpt>
      <trkpt lat="43.32271" lon="5.68636">
        <ele>844.7</ele>
        <time>2022-03-09T11:17:24Z</time>
      </trkpt>
      <trkpt lat="43.32276" lon="5.68635">
        <ele>844.8</ele>
        <time>2022-03-09T11:17:31Z</time>
      </trkpt>
      <trkpt lat="43.32281" lon="5.68632">
        <ele>844.4</ele>
        <time>2022-03-09T11:17:38Z</time>
      </trkpt>
      <trkpt lat="43.32285" lon="5.6863">
        <ele>843.9</ele>
        <time>2022-03-09T11:17:46Z</time>
      </trkpt>
      <trkpt lat="43.32289" lon="5.68626">
        <ele>843.7</ele>
        <time>2022-03-09T11:17:52Z</time>
      </trkpt>
      <trkpt lat="43.32292" lon="5.68622">
        <ele>843.7</ele>
        <time>2022-03-09T11:18:00Z</time>
      </trkpt>
      <trkpt lat="43.32297" lon="5.68619">
        <ele>843.8</ele>
        <time>2022-03-09T11:18:08Z</time>
      </trkpt>
      <trkpt lat="43.32301" lon="5.68617">
        <ele>844</ele>
        <time>2022-03-09T11:18:14Z</time>
      </trkpt>
      <trkpt lat="43.32306" lon="5.68619">
        <ele>843.6</ele>
        <time>2022-03-09T11:18:21Z</time>
      </trkpt>
      <trkpt lat="43.32311" lon="5.6862">
        <ele>842.8</ele>
        <time>2022-03-09T11:18:26Z</time>
      </trkpt>
      <trkpt lat="43.32316" lon="5.68621">
        <ele>841.8</ele>
        <time>2022-03-09T11:18:31Z</time>
      </trkpt>
      <trkpt lat="43.32321" lon="5.68623">
        <ele>840.6</ele>
        <time>2022-03-09T11:18:37Z</time>
      </trkpt>
      <trkpt lat="43.32325" lon="5.68623">
        <ele>839.8</ele>
        <time>2022-03-09T11:18:42Z</time>
      </trkpt>
      <trkpt lat="43.32331" lon="5.68622">
        <ele>839.3</ele>
        <time>2022-03-09T11:18:49Z</time>
      </trkpt>
      <trkpt lat="43.32334" lon="5.68617">
        <ele>842</ele>
        <time>2022-03-09T11:18:55Z</time>
      </trkpt>
      <trkpt lat="43.32337" lon="5.68612">
        <ele>845</ele>
        <time>2022-03-09T11:19:01Z</time>
      </trkpt>
      <trkpt lat="43.32341" lon="5.68607">
        <ele>843.5</ele>
        <time>2022-03-09T11:19:07Z</time>
      </trkpt>
      <trkpt lat="43.32344" lon="5.68602">
        <ele>841.3</ele>
        <time>2022-03-09T11:19:14Z</time>
      </trkpt>
      <trkpt lat="43.32349" lon="5.686">
        <ele>839.9</ele>
        <time>2022-03-09T11:19:34Z</time>
      </trkpt>
      <trkpt lat="43.32354" lon="5.68602">
        <ele>839.7</ele>
        <time>2022-03-09T11:19:41Z</time>
      </trkpt>
      <trkpt lat="43.32358" lon="5.68602">
        <ele>838.9</ele>
        <time>2022-03-09T11:19:50Z</time>
      </trkpt>
      <trkpt lat="43.32363" lon="5.68602">
        <ele>838.3</ele>
        <time>2022-03-09T11:20:01Z</time>
      </trkpt>
      <trkpt lat="43.32368" lon="5.68604">
        <ele>838.8</ele>
        <time>2022-03-09T11:20:10Z</time>
      </trkpt>
      <trkpt lat="43.32371" lon="5.68608">
        <ele>840</ele>
        <time>2022-03-09T11:20:17Z</time>
      </trkpt>
      <trkpt lat="43.32376" lon="5.68608">
        <ele>840.1</ele>
        <time>2022-03-09T11:20:23Z</time>
      </trkpt>
      <trkpt lat="43.32381" lon="5.68609">
        <ele>840.5</ele>
        <time>2022-03-09T11:20:28Z</time>
      </trkpt>
      <trkpt lat="43.32386" lon="5.68611">
        <ele>840.8</ele>
        <time>2022-03-09T11:20:33Z</time>
      </trkpt>
      <trkpt lat="43.3239" lon="5.68613">
        <ele>840.4</ele>
        <time>2022-03-09T11:20:40Z</time>
      </trkpt>
      <trkpt lat="43.32395" lon="5.68612">
        <ele>840.4</ele>
        <time>2022-03-09T11:20:47Z</time>
      </trkpt>
      <trkpt lat="43.324" lon="5.68611">
        <ele>840.5</ele>
        <time>2022-03-09T11:20:52Z</time>
      </trkpt>
      <trkpt lat="43.32405" lon="5.68609">
        <ele>839.7</ele>
        <time>2022-03-09T11:20:59Z</time>
      </trkpt>
      <trkpt lat="43.3241" lon="5.68608">
        <ele>839.4</ele>
        <time>2022-03-09T11:21:04Z</time>
      </trkpt>
      <trkpt lat="43.32415" lon="5.68608">
        <ele>839.2</ele>
        <time>2022-03-09T11:21:08Z</time>
      </trkpt>
      <trkpt lat="43.32419" lon="5.6861">
        <ele>839.6</ele>
        <time>2022-03-09T11:21:13Z</time>
      </trkpt>
      <trkpt lat="43.32425" lon="5.68611">
        <ele>839.7</ele>
        <time>2022-03-09T11:21:19Z</time>
      </trkpt>
      <trkpt lat="43.32429" lon="5.68611">
        <ele>839.5</ele>
        <time>2022-03-09T11:21:23Z</time>
      </trkpt>
      <trkpt lat="43.32434" lon="5.68613">
        <ele>839.1</ele>
        <time>2022-03-09T11:21:27Z</time>
      </trkpt>
      <trkpt lat="43.32438" lon="5.68615">
        <ele>838.7</ele>
        <time>2022-03-09T11:21:31Z</time>
      </trkpt>
      <trkpt lat="43.32443" lon="5.68618">
        <ele>838.3</ele>
        <time>2022-03-09T11:21:36Z</time>
      </trkpt>
      <trkpt lat="43.32448" lon="5.68619">
        <ele>837.9</ele>
        <time>2022-03-09T11:21:41Z</time>
      </trkpt>
      <trkpt lat="43.32453" lon="5.68621">
        <ele>837.6</ele>
        <time>2022-03-09T11:21:45Z</time>
      </trkpt>
      <trkpt lat="43.32457" lon="5.68623">
        <ele>837.2</ele>
        <time>2022-03-09T11:21:51Z</time>
      </trkpt>
      <trkpt lat="43.32462" lon="5.68626">
        <ele>836.8</ele>
        <time>2022-03-09T11:21:57Z</time>
      </trkpt>
      <trkpt lat="43.32465" lon="5.68631">
        <ele>836.5</ele>
        <time>2022-03-09T11:22:17Z</time>
      </trkpt>
      <trkpt lat="43.32468" lon="5.68635">
        <ele>836.2</ele>
        <time>2022-03-09T11:23:35Z</time>
      </trkpt>
      <trkpt lat="43.32473" lon="5.68635">
        <ele>836.2</ele>
        <time>2022-03-09T11:24:33Z</time>
      </trkpt>
      <trkpt lat="43.32477" lon="5.68637">
        <ele>836.2</ele>
        <time>2022-03-09T11:24:43Z</time>
      </trkpt>
      <trkpt lat="43.32481" lon="5.68639">
        <ele>836.1</ele>
        <time>2022-03-09T11:24:49Z</time>
      </trkpt>
      <trkpt lat="43.32486" lon="5.68642">
        <ele>835.2</ele>
        <time>2022-03-09T11:24:55Z</time>
      </trkpt>
      <trkpt lat="43.3249" lon="5.68643">
        <ele>834.9</ele>
        <time>2022-03-09T11:25:01Z</time>
      </trkpt>
      <trkpt lat="43.32495" lon="5.68642">
        <ele>835.5</ele>
        <time>2022-03-09T11:25:05Z</time>
      </trkpt>
      <trkpt lat="43.32499" lon="5.68643">
        <ele>835.6</ele>
        <time>2022-03-09T11:25:10Z</time>
      </trkpt>
      <trkpt lat="43.32504" lon="5.68645">
        <ele>835</ele>
        <time>2022-03-09T11:25:16Z</time>
      </trkpt>
      <trkpt lat="43.32509" lon="5.68647">
        <ele>834.6</ele>
        <time>2022-03-09T11:25:21Z</time>
      </trkpt>
      <trkpt lat="43.32514" lon="5.6865">
        <ele>834.2</ele>
        <time>2022-03-09T11:25:28Z</time>
      </trkpt>
      <trkpt lat="43.32518" lon="5.68649">
        <ele>834.7</ele>
        <time>2022-03-09T11:25:34Z</time>
      </trkpt>
      <trkpt lat="43.32523" lon="5.6865">
        <ele>834.7</ele>
        <time>2022-03-09T11:25:39Z</time>
      </trkpt>
      <trkpt lat="43.32528" lon="5.68651">
        <ele>835.1</ele>
        <time>2022-03-09T11:25:45Z</time>
      </trkpt>
      <trkpt lat="43.32532" lon="5.6865">
        <ele>835.4</ele>
        <time>2022-03-09T11:25:51Z</time>
      </trkpt>
      <trkpt lat="43.32536" lon="5.68654">
        <ele>835</ele>
        <time>2022-03-09T11:25:58Z</time>
      </trkpt>
      <trkpt lat="43.32541" lon="5.68655">
        <ele>835.1</ele>
        <time>2022-03-09T11:26:05Z</time>
      </trkpt>
      <trkpt lat="43.32546" lon="5.68657">
        <ele>835.3</ele>
        <time>2022-03-09T11:26:11Z</time>
      </trkpt>
      <trkpt lat="43.32549" lon="5.68661">
        <ele>835.3</ele>
        <time>2022-03-09T11:26:16Z</time>
      </trkpt>
      <trkpt lat="43.32554" lon="5.68665">
        <ele>835.8</ele>
        <time>2022-03-09T11:26:24Z</time>
      </trkpt>
      <trkpt lat="43.32559" lon="5.68666">
        <ele>836.1</ele>
        <time>2022-03-09T11:26:30Z</time>
      </trkpt>
      <trkpt lat="43.32563" lon="5.68668">
        <ele>835.5</ele>
        <time>2022-03-09T11:26:36Z</time>
      </trkpt>
      <trkpt lat="43.32567" lon="5.68672">
        <ele>834.2</ele>
        <time>2022-03-09T11:26:42Z</time>
      </trkpt>
      <trkpt lat="43.32571" lon="5.68675">
        <ele>833.5</ele>
        <time>2022-03-09T11:26:48Z</time>
      </trkpt>
      <trkpt lat="43.32574" lon="5.6868">
        <ele>831.9</ele>
        <time>2022-03-09T11:26:54Z</time>
      </trkpt>
      <trkpt lat="43.32579" lon="5.68682">
        <ele>832</ele>
        <time>2022-03-09T11:27:01Z</time>
      </trkpt>
      <trkpt lat="43.32584" lon="5.68681">
        <ele>833</ele>
        <time>2022-03-09T11:27:07Z</time>
      </trkpt>
      <trkpt lat="43.32589" lon="5.6868">
        <ele>833.4</ele>
        <time>2022-03-09T11:27:12Z</time>
      </trkpt>
      <trkpt lat="43.32593" lon="5.68681">
        <ele>833.4</ele>
        <time>2022-03-09T11:27:19Z</time>
      </trkpt>
      <trkpt lat="43.32597" lon="5.68686">
        <ele>832.7</ele>
        <time>2022-03-09T11:27:26Z</time>
      </trkpt>
      <trkpt lat="43.32601" lon="5.68684">
        <ele>833.3</ele>
        <time>2022-03-09T11:27:31Z</time>
      </trkpt>
      <trkpt lat="43.32606" lon="5.68682">
        <ele>833.7</ele>
        <time>2022-03-09T11:27:37Z</time>
      </trkpt>
      <trkpt lat="43.3261" lon="5.68684">
        <ele>833.9</ele>
        <time>2022-03-09T11:27:43Z</time>
      </trkpt>
      <trkpt lat="43.32615" lon="5.68686">
        <ele>829.8</ele>
        <time>2022-03-09T11:27:49Z</time>
      </trkpt>
      <trkpt lat="43.32611" lon="5.68688">
        <ele>833.9</ele>
        <time>2022-03-09T11:28:06Z</time>
      </trkpt>
      <trkpt lat="43.32606" lon="5.68685">
        <ele>833.6</ele>
        <time>2022-03-09T11:28:13Z</time>
      </trkpt>
      <trkpt lat="43.32601" lon="5.68684">
        <ele>833.3</ele>
        <time>2022-03-09T11:28:21Z</time>
      </trkpt>
      <trkpt lat="43.32597" lon="5.68682">
        <ele>833.3</ele>
        <time>2022-03-09T11:28:30Z</time>
      </trkpt>
      <trkpt lat="43.32592" lon="5.6868">
        <ele>833.4</ele>
        <time>2022-03-09T11:28:36Z</time>
      </trkpt>
      <trkpt lat="43.32586" lon="5.68681">
        <ele>832.9</ele>
        <time>2022-03-09T11:28:41Z</time>
      </trkpt>
      <trkpt lat="43.32581" lon="5.68682">
        <ele>832.3</ele>
        <time>2022-03-09T11:28:46Z</time>
      </trkpt>
      <trkpt lat="43.32576" lon="5.68683">
        <ele>831.4</ele>
        <time>2022-03-09T11:28:51Z</time>
      </trkpt>
      <trkpt lat="43.32573" lon="5.68678">
        <ele>832.5</ele>
        <time>2022-03-09T11:28:56Z</time>
      </trkpt>
      <trkpt lat="43.32568" lon="5.68675">
        <ele>833.2</ele>
        <time>2022-03-09T11:29:03Z</time>
      </trkpt>
      <trkpt lat="43.32564" lon="5.68673">
        <ele>833.5</ele>
        <time>2022-03-09T11:29:10Z</time>
      </trkpt>
      <trkpt lat="43.32559" lon="5.68669">
        <ele>834.9</ele>
        <time>2022-03-09T11:29:17Z</time>
      </trkpt>
      <trkpt lat="43.32555" lon="5.68666">
        <ele>836</ele>
        <time>2022-03-09T11:29:22Z</time>
      </trkpt>
      <trkpt lat="43.32552" lon="5.68661">
        <ele>835.7</ele>
        <time>2022-03-09T11:29:28Z</time>
      </trkpt>
      <trkpt lat="43.32546" lon="5.68662">
        <ele>834.9</ele>
        <time>2022-03-09T11:29:33Z</time>
      </trkpt>
      <trkpt lat="43.32543" lon="5.68657">
        <ele>835</ele>
        <time>2022-03-09T11:29:40Z</time>
      </trkpt>
      <trkpt lat="43.32538" lon="5.68657">
        <ele>834.5</ele>
        <time>2022-03-09T11:29:50Z</time>
      </trkpt>
      <trkpt lat="43.32534" lon="5.68659">
        <ele>833.7</ele>
        <time>2022-03-09T11:30:02Z</time>
      </trkpt>
      <trkpt lat="43.32532" lon="5.68665">
        <ele>832.1</ele>
        <time>2022-03-09T11:30:21Z</time>
      </trkpt>
      <trkpt lat="43.32534" lon="5.6867">
        <ele>830.5</ele>
        <time>2022-03-09T11:30:45Z</time>
      </trkpt>
      <trkpt lat="43.32538" lon="5.68673">
        <ele>830.1</ele>
        <time>2022-03-09T11:30:54Z</time>
      </trkpt>
      <trkpt lat="43.32542" lon="5.68678">
        <ele>828.5</ele>
        <time>2022-03-09T11:31:03Z</time>
      </trkpt>
      <trkpt lat="43.32545" lon="5.68683">
        <ele>826.8</ele>
        <time>2022-03-09T11:31:14Z</time>
      </trkpt>
      <trkpt lat="43.32549" lon="5.68687">
        <ele>825.6</ele>
        <time>2022-03-09T11:31:20Z</time>
      </trkpt>
      <trkpt lat="43.32551" lon="5.68692">
        <ele>823.4</ele>
        <time>2022-03-09T11:31:27Z</time>
      </trkpt>
      <trkpt lat="43.32555" lon="5.68696">
        <ele>822.2</ele>
        <time>2022-03-09T11:31:33Z</time>
      </trkpt>
      <trkpt lat="43.32557" lon="5.68702">
        <ele>820.8</ele>
        <time>2022-03-09T11:31:39Z</time>
      </trkpt>
      <trkpt lat="43.3256" lon="5.68707">
        <ele>818.9</ele>
        <time>2022-03-09T11:31:44Z</time>
      </trkpt>
      <trkpt lat="43.32564" lon="5.68712">
        <ele>817.5</ele>
        <time>2022-03-09T11:31:51Z</time>
      </trkpt>
      <trkpt lat="43.32567" lon="5.68717">
        <ele>815.6</ele>
        <time>2022-03-09T11:31:57Z</time>
      </trkpt>
      <trkpt lat="43.32571" lon="5.68721">
        <ele>814.1</ele>
        <time>2022-03-09T11:32:05Z</time>
      </trkpt>
      <trkpt lat="43.32576" lon="5.68722">
        <ele>813.8</ele>
        <time>2022-03-09T11:32:10Z</time>
      </trkpt>
      <trkpt lat="43.3258" lon="5.68723">
        <ele>813.5</ele>
        <time>2022-03-09T11:32:16Z</time>
      </trkpt>
      <trkpt lat="43.32584" lon="5.68726">
        <ele>812.4</ele>
        <time>2022-03-09T11:32:26Z</time>
      </trkpt>
      <trkpt lat="43.32589" lon="5.68727">
        <ele>811.5</ele>
        <time>2022-03-09T11:32:32Z</time>
      </trkpt>
      <trkpt lat="43.32594" lon="5.6873">
        <ele>809.8</ele>
        <time>2022-03-09T11:32:39Z</time>
      </trkpt>
      <trkpt lat="43.32598" lon="5.68732">
        <ele>808.8</ele>
        <time>2022-03-09T11:32:49Z</time>
      </trkpt>
      <trkpt lat="43.32603" lon="5.68732">
        <ele>808.4</ele>
        <time>2022-03-09T11:32:57Z</time>
      </trkpt>
      <trkpt lat="43.32609" lon="5.6873">
        <ele>808.6</ele>
        <time>2022-03-09T11:33:01Z</time>
      </trkpt>
      <trkpt lat="43.32614" lon="5.68731">
        <ele>807.9</ele>
        <time>2022-03-09T11:33:04Z</time>
      </trkpt>
      <trkpt lat="43.3262" lon="5.68731">
        <ele>806.9</ele>
        <time>2022-03-09T11:33:07Z</time>
      </trkpt>
      <trkpt lat="43.32625" lon="5.68732">
        <ele>805.9</ele>
        <time>2022-03-09T11:33:10Z</time>
      </trkpt>
      <trkpt lat="43.3263" lon="5.68734">
        <ele>804.8</ele>
        <time>2022-03-09T11:33:15Z</time>
      </trkpt>
      <trkpt lat="43.32635" lon="5.68734">
        <ele>804</ele>
        <time>2022-03-09T11:33:21Z</time>
      </trkpt>
      <trkpt lat="43.3264" lon="5.68735">
        <ele>802.9</ele>
        <time>2022-03-09T11:33:26Z</time>
      </trkpt>
      <trkpt lat="43.32644" lon="5.68737">
        <ele>801.3</ele>
        <time>2022-03-09T11:33:33Z</time>
      </trkpt>
      <trkpt lat="43.32649" lon="5.68739">
        <ele>799.7</ele>
        <time>2022-03-09T11:33:37Z</time>
      </trkpt>
      <trkpt lat="43.32654" lon="5.6874">
        <ele>798.4</ele>
        <time>2022-03-09T11:33:41Z</time>
      </trkpt>
      <trkpt lat="43.32658" lon="5.68744">
        <ele>797.4</ele>
        <time>2022-03-09T11:33:47Z</time>
      </trkpt>
      <trkpt lat="43.32661" lon="5.6875">
        <ele>796.6</ele>
        <time>2022-03-09T11:33:53Z</time>
      </trkpt>
      <trkpt lat="43.32663" lon="5.68756">
        <ele>796</ele>
        <time>2022-03-09T11:33:57Z</time>
      </trkpt>
      <trkpt lat="43.32665" lon="5.68761">
        <ele>795.6</ele>
        <time>2022-03-09T11:34:02Z</time>
      </trkpt>
      <trkpt lat="43.32668" lon="5.68769">
        <ele>795.3</ele>
        <time>2022-03-09T11:34:06Z</time>
      </trkpt>
      <trkpt lat="43.32671" lon="5.68774">
        <ele>795.3</ele>
        <time>2022-03-09T11:34:09Z</time>
      </trkpt>
      <trkpt lat="43.32674" lon="5.68781">
        <ele>795.3</ele>
        <time>2022-03-09T11:34:14Z</time>
      </trkpt>
      <trkpt lat="43.32676" lon="5.68787">
        <ele>795.3</ele>
        <time>2022-03-09T11:34:19Z</time>
      </trkpt>
      <trkpt lat="43.32678" lon="5.68793">
        <ele>795.4</ele>
        <time>2022-03-09T11:34:24Z</time>
      </trkpt>
      <trkpt lat="43.32679" lon="5.68799">
        <ele>795.3</ele>
        <time>2022-03-09T11:34:29Z</time>
      </trkpt>
      <trkpt lat="43.32678" lon="5.68805">
        <ele>794.9</ele>
        <time>2022-03-09T11:34:34Z</time>
      </trkpt>
      <trkpt lat="43.32681" lon="5.6881">
        <ele>794.9</ele>
        <time>2022-03-09T11:34:39Z</time>
      </trkpt>
      <trkpt lat="43.32684" lon="5.68816">
        <ele>794.6</ele>
        <time>2022-03-09T11:34:47Z</time>
      </trkpt>
      <trkpt lat="43.32687" lon="5.6882">
        <ele>794.9</ele>
        <time>2022-03-09T11:34:53Z</time>
      </trkpt>
      <trkpt lat="43.32691" lon="5.68823">
        <ele>795.8</ele>
        <time>2022-03-09T11:34:58Z</time>
      </trkpt>
      <trkpt lat="43.32694" lon="5.68829">
        <ele>796.5</ele>
        <time>2022-03-09T11:35:04Z</time>
      </trkpt>
      <trkpt lat="43.32697" lon="5.68834">
        <ele>795.8</ele>
        <time>2022-03-09T11:35:10Z</time>
      </trkpt>
      <trkpt lat="43.32701" lon="5.68838">
        <ele>795.2</ele>
        <time>2022-03-09T11:35:15Z</time>
      </trkpt>
      <trkpt lat="43.32705" lon="5.68842">
        <ele>794.7</ele>
        <time>2022-03-09T11:35:20Z</time>
      </trkpt>
      <trkpt lat="43.32708" lon="5.68848">
        <ele>794.4</ele>
        <time>2022-03-09T11:35:27Z</time>
      </trkpt>
      <trkpt lat="43.3271" lon="5.68854">
        <ele>794.2</ele>
        <time>2022-03-09T11:35:33Z</time>
      </trkpt>
      <trkpt lat="43.32715" lon="5.68856">
        <ele>794.7</ele>
        <time>2022-03-09T11:35:40Z</time>
      </trkpt>
      <trkpt lat="43.32719" lon="5.68859">
        <ele>795.3</ele>
        <time>2022-03-09T11:35:49Z</time>
      </trkpt>
      <trkpt lat="43.32719" lon="5.68866">
        <ele>795.3</ele>
        <time>2022-03-09T11:36:05Z</time>
      </trkpt>
      <trkpt lat="43.32721" lon="5.68872">
        <ele>795.6</ele>
        <time>2022-03-09T11:37:13Z</time>
      </trkpt>
      <trkpt lat="43.32723" lon="5.68878">
        <ele>795.8</ele>
        <time>2022-03-09T11:37:21Z</time>
      </trkpt>
      <trkpt lat="43.32726" lon="5.68884">
        <ele>795.1</ele>
        <time>2022-03-09T11:37:26Z</time>
      </trkpt>
      <trkpt lat="43.32728" lon="5.68889">
        <ele>794.5</ele>
        <time>2022-03-09T11:37:31Z</time>
      </trkpt>
      <trkpt lat="43.32731" lon="5.68895">
        <ele>794.4</ele>
        <time>2022-03-09T11:37:37Z</time>
      </trkpt>
      <trkpt lat="43.32735" lon="5.68899">
        <ele>794.2</ele>
        <time>2022-03-09T11:37:44Z</time>
      </trkpt>
      <trkpt lat="43.32738" lon="5.68904">
        <ele>794.4</ele>
        <time>2022-03-09T11:37:50Z</time>
      </trkpt>
      <trkpt lat="43.32739" lon="5.6891">
        <ele>795.1</ele>
        <time>2022-03-09T11:37:59Z</time>
      </trkpt>
      <trkpt lat="43.32743" lon="5.68914">
        <ele>795.4</ele>
        <time>2022-03-09T11:38:12Z</time>
      </trkpt>
      <trkpt lat="43.32742" lon="5.68921">
        <ele>797.1</ele>
        <time>2022-03-09T11:38:51Z</time>
      </trkpt>
      <trkpt lat="43.32737" lon="5.68923">
        <ele>797.9</ele>
        <time>2022-03-09T11:39:04Z</time>
      </trkpt>
      <trkpt lat="43.32734" lon="5.68928">
        <ele>798.8</ele>
        <time>2022-03-09T11:39:20Z</time>
      </trkpt>
      <trkpt lat="43.32736" lon="5.68922">
        <ele>797.7</ele>
        <time>2022-03-09T11:40:57Z</time>
      </trkpt>
      <trkpt lat="43.3274" lon="5.68925">
        <ele>798.3</ele>
        <time>2022-03-09T11:41:10Z</time>
      </trkpt>
      <trkpt lat="43.32743" lon="5.6892">
        <ele>796.9</ele>
        <time>2022-03-09T11:41:17Z</time>
      </trkpt>
      <trkpt lat="43.32749" lon="5.6892">
        <ele>796.4</ele>
        <time>2022-03-09T11:41:21Z</time>
      </trkpt>
      <trkpt lat="43.32753" lon="5.68923">
        <ele>795.6</ele>
        <time>2022-03-09T11:41:25Z</time>
      </trkpt>
      <trkpt lat="43.32755" lon="5.68929">
        <ele>797.3</ele>
        <time>2022-03-09T11:41:33Z</time>
      </trkpt>
      <trkpt lat="43.32758" lon="5.68933">
        <ele>796.8</ele>
        <time>2022-03-09T11:41:41Z</time>
      </trkpt>
      <trkpt lat="43.3276" lon="5.6894">
        <ele>798.3</ele>
        <time>2022-03-09T11:41:47Z</time>
      </trkpt>
      <trkpt lat="43.32762" lon="5.68946">
        <ele>799.5</ele>
        <time>2022-03-09T11:42:19Z</time>
      </trkpt>
      <trkpt lat="43.32766" lon="5.6895">
        <ele>799.1</ele>
        <time>2022-03-09T11:42:26Z</time>
      </trkpt>
      <trkpt lat="43.32768" lon="5.68955">
        <ele>800.2</ele>
        <time>2022-03-09T11:42:32Z</time>
      </trkpt>
      <trkpt lat="43.32765" lon="5.6895">
        <ele>799.3</ele>
        <time>2022-03-09T11:42:54Z</time>
      </trkpt>
      <trkpt lat="43.32765" lon="5.68957">
        <ele>803.2</ele>
        <time>2022-03-09T11:43:16Z</time>
      </trkpt>
      <trkpt lat="43.32766" lon="5.68963">
        <ele>805.7</ele>
        <time>2022-03-09T11:43:26Z</time>
      </trkpt>
      <trkpt lat="43.32767" lon="5.68971">
        <ele>808.6</ele>
        <time>2022-03-09T11:43:32Z</time>
      </trkpt>
      <trkpt lat="43.32767" lon="5.68977">
        <ele>807.7</ele>
        <time>2022-03-09T11:43:41Z</time>
      </trkpt>
      <trkpt lat="43.32768" lon="5.68969">
        <ele>807.2</ele>
        <time>2022-03-09T11:45:16Z</time>
      </trkpt>
      <trkpt lat="43.32769" lon="5.68962">
        <ele>803.1</ele>
        <time>2022-03-09T11:45:22Z</time>
      </trkpt>
      <trkpt lat="43.32769" lon="5.68956">
        <ele>799.6</ele>
        <time>2022-03-09T11:45:25Z</time>
      </trkpt>
      <trkpt lat="43.3277" lon="5.68949">
        <ele>795.9</ele>
        <time>2022-03-09T11:45:30Z</time>
      </trkpt>
      <trkpt lat="43.32771" lon="5.68956">
        <ele>798.3</ele>
        <time>2022-03-09T11:46:05Z</time>
      </trkpt>
      <trkpt lat="43.32767" lon="5.68959">
        <ele>802.7</ele>
        <time>2022-03-09T11:46:23Z</time>
      </trkpt>
      <trkpt lat="43.32765" lon="5.68965">
        <ele>806.7</ele>
        <time>2022-03-09T11:46:47Z</time>
      </trkpt>
      <trkpt lat="43.32765" lon="5.68971">
        <ele>810.3</ele>
        <time>2022-03-09T11:47:13Z</time>
      </trkpt>
      <trkpt lat="43.32767" lon="5.68977">
        <ele>807.5</ele>
        <time>2022-03-09T11:47:59Z</time>
      </trkpt>
      <trkpt lat="43.32767" lon="5.68984">
        <ele>806</ele>
        <time>2022-03-09T11:48:06Z</time>
      </trkpt>
      <trkpt lat="43.32762" lon="5.68982">
        <ele>808.7</ele>
        <time>2022-03-09T11:49:18Z</time>
      </trkpt>
      <trkpt lat="43.32758" lon="5.68985">
        <ele>809.2</ele>
        <time>2022-03-09T11:49:30Z</time>
      </trkpt>
      <trkpt lat="43.32754" lon="5.68989">
        <ele>808.2</ele>
        <time>2022-03-09T11:49:49Z</time>
      </trkpt>
      <trkpt lat="43.32756" lon="5.68983">
        <ele>810.7</ele>
        <time>2022-03-09T11:50:52Z</time>
      </trkpt>
      <trkpt lat="43.32752" lon="5.68981">
        <ele>814.5</ele>
        <time>2022-03-09T11:51:09Z</time>
      </trkpt>
      <trkpt lat="43.32748" lon="5.68976">
        <ele>817.5</ele>
        <time>2022-03-09T11:51:15Z</time>
      </trkpt>
      <trkpt lat="43.32745" lon="5.6897">
        <ele>816.2</ele>
        <time>2022-03-09T11:51:20Z</time>
      </trkpt>
      <trkpt lat="43.32743" lon="5.68964">
        <ele>811.8</ele>
        <time>2022-03-09T11:51:28Z</time>
      </trkpt>
      <trkpt lat="43.32742" lon="5.68957">
        <ele>808.7</ele>
        <time>2022-03-09T11:51:34Z</time>
      </trkpt>
      <trkpt lat="43.32743" lon="5.68951">
        <ele>807.3</ele>
        <time>2022-03-09T11:51:45Z</time>
      </trkpt>
      <trkpt lat="43.32741" lon="5.68956">
        <ele>807.4</ele>
        <time>2022-03-09T11:52:18Z</time>
      </trkpt>
      <trkpt lat="43.32741" lon="5.68963">
        <ele>810.1</ele>
        <time>2022-03-09T11:52:30Z</time>
      </trkpt>
      <trkpt lat="43.32743" lon="5.68968">
        <ele>813.7</ele>
        <time>2022-03-09T11:52:36Z</time>
      </trkpt>
      <trkpt lat="43.32746" lon="5.68973">
        <ele>817.7</ele>
        <time>2022-03-09T11:52:40Z</time>
      </trkpt>
      <trkpt lat="43.3275" lon="5.68977">
        <ele>818.1</ele>
        <time>2022-03-09T11:52:46Z</time>
      </trkpt>
      <trkpt lat="43.32755" lon="5.6898">
        <ele>813.8</ele>
        <time>2022-03-09T11:53:09Z</time>
      </trkpt>
      <trkpt lat="43.32759" lon="5.68982">
        <ele>810.3</ele>
        <time>2022-03-09T11:53:18Z</time>
      </trkpt>
      <trkpt lat="43.32763" lon="5.68979">
        <ele>809.1</ele>
        <time>2022-03-09T11:53:29Z</time>
      </trkpt>
      <trkpt lat="43.32768" lon="5.68982">
        <ele>806</ele>
        <time>2022-03-09T11:53:35Z</time>
      </trkpt>
      <trkpt lat="43.32771" lon="5.68977">
        <ele>805.2</ele>
        <time>2022-03-09T11:53:53Z</time>
      </trkpt>
      <trkpt lat="43.32769" lon="5.68971">
        <ele>807.3</ele>
        <time>2022-03-09T11:54:18Z</time>
      </trkpt>
      <trkpt lat="43.32767" lon="5.68965">
        <ele>805.7</ele>
        <time>2022-03-09T11:54:45Z</time>
      </trkpt>
      <trkpt lat="43.32765" lon="5.6896">
        <ele>804.6</ele>
        <time>2022-03-09T11:55:29Z</time>
      </trkpt>
      <trkpt lat="43.32766" lon="5.68953">
        <ele>800.5</ele>
        <time>2022-03-09T11:55:58Z</time>
      </trkpt>
      <trkpt lat="43.32768" lon="5.68948">
        <ele>796.2</ele>
        <time>2022-03-09T11:56:44Z</time>
      </trkpt>
      <trkpt lat="43.32766" lon="5.68942">
        <ele>794.9</ele>
        <time>2022-03-09T11:57:09Z</time>
      </trkpt>
      <trkpt lat="43.32762" lon="5.68939">
        <ele>796.4</ele>
        <time>2022-03-09T11:57:14Z</time>
      </trkpt>
      <trkpt lat="43.32759" lon="5.68934">
        <ele>796.9</ele>
        <time>2022-03-09T11:57:20Z</time>
      </trkpt>
      <trkpt lat="43.32756" lon="5.68929">
        <ele>797</ele>
        <time>2022-03-09T11:57:27Z</time>
      </trkpt>
      <trkpt lat="43.32755" lon="5.68922">
        <ele>794.8</ele>
        <time>2022-03-09T11:57:34Z</time>
      </trkpt>
      <trkpt lat="43.32754" lon="5.68916">
        <ele>792.8</ele>
        <time>2022-03-09T11:57:40Z</time>
      </trkpt>
      <trkpt lat="43.32754" lon="5.68909">
        <ele>791.3</ele>
        <time>2022-03-09T11:57:47Z</time>
      </trkpt>
      <trkpt lat="43.32755" lon="5.68903">
        <ele>789.1</ele>
        <time>2022-03-09T11:57:54Z</time>
      </trkpt>
      <trkpt lat="43.32752" lon="5.68897">
        <ele>789.6</ele>
        <time>2022-03-09T11:57:59Z</time>
      </trkpt>
      <trkpt lat="43.32751" lon="5.6889">
        <ele>788.8</ele>
        <time>2022-03-09T11:58:06Z</time>
      </trkpt>
      <trkpt lat="43.32747" lon="5.68895">
        <ele>790.9</ele>
        <time>2022-03-09T11:58:58Z</time>
      </trkpt>
      <trkpt lat="43.32743" lon="5.68897">
        <ele>792.2</ele>
        <time>2022-03-09T11:59:03Z</time>
      </trkpt>
      <trkpt lat="43.32739" lon="5.68901">
        <ele>793.7</ele>
        <time>2022-03-09T11:59:09Z</time>
      </trkpt>
      <trkpt lat="43.32734" lon="5.68903">
        <ele>794.8</ele>
        <time>2022-03-09T11:59:15Z</time>
      </trkpt>
      <trkpt lat="43.3273" lon="5.68906">
        <ele>796</ele>
        <time>2022-03-09T11:59:20Z</time>
      </trkpt>
      <trkpt lat="43.32728" lon="5.68912">
        <ele>797</ele>
        <time>2022-03-09T11:59:28Z</time>
      </trkpt>
      <trkpt lat="43.32725" lon="5.68918">
        <ele>797.8</ele>
        <time>2022-03-09T11:59:40Z</time>
      </trkpt>
      <trkpt lat="43.3272" lon="5.6892">
        <ele>797</ele>
        <time>2022-03-09T11:59:49Z</time>
      </trkpt>
      <trkpt lat="43.32719" lon="5.68921">
        <ele>796.3</ele>
        <time>2022-03-09T12:39:53Z</time>
      </trkpt>
      <trkpt lat="43.32722" lon="5.68915">
        <ele>797.9</ele>
        <time>2022-03-09T12:59:52Z</time>
      </trkpt>
      <trkpt lat="43.32722" lon="5.68908">
        <ele>797.3</ele>
        <time>2022-03-09T12:59:58Z</time>
      </trkpt>
      <trkpt lat="43.32723" lon="5.689">
        <ele>796.7</ele>
        <time>2022-03-09T13:00:02Z</time>
      </trkpt>
      <trkpt lat="43.32724" lon="5.68894">
        <ele>796</ele>
        <time>2022-03-09T13:00:07Z</time>
      </trkpt>
      <trkpt lat="43.32723" lon="5.68887">
        <ele>795.9</ele>
        <time>2022-03-09T13:00:12Z</time>
      </trkpt>
      <trkpt lat="43.32721" lon="5.68881">
        <ele>795.5</ele>
        <time>2022-03-09T13:00:17Z</time>
      </trkpt>
      <trkpt lat="43.32719" lon="5.68874">
        <ele>795.2</ele>
        <time>2022-03-09T13:00:23Z</time>
      </trkpt>
      <trkpt lat="43.32718" lon="5.68868">
        <ele>795</ele>
        <time>2022-03-09T13:00:29Z</time>
      </trkpt>
      <trkpt lat="43.32715" lon="5.68862">
        <ele>794.7</ele>
        <time>2022-03-09T13:00:36Z</time>
      </trkpt>
      <trkpt lat="43.32713" lon="5.68856">
        <ele>794.5</ele>
        <time>2022-03-09T13:00:42Z</time>
      </trkpt>
      <trkpt lat="43.32709" lon="5.68851">
        <ele>794.3</ele>
        <time>2022-03-09T13:00:48Z</time>
      </trkpt>
      <trkpt lat="43.32705" lon="5.68846">
        <ele>794.4</ele>
        <time>2022-03-09T13:00:54Z</time>
      </trkpt>
      <trkpt lat="43.32701" lon="5.68841">
        <ele>794.8</ele>
        <time>2022-03-09T13:00:59Z</time>
      </trkpt>
      <trkpt lat="43.32698" lon="5.68835">
        <ele>795.6</ele>
        <time>2022-03-09T13:01:06Z</time>
      </trkpt>
      <trkpt lat="43.32694" lon="5.68831">
        <ele>796.1</ele>
        <time>2022-03-09T13:01:10Z</time>
      </trkpt>
      <trkpt lat="43.3269" lon="5.68826">
        <ele>795.2</ele>
        <time>2022-03-09T13:01:15Z</time>
      </trkpt>
      <trkpt lat="43.32688" lon="5.68821">
        <ele>795</ele>
        <time>2022-03-09T13:01:22Z</time>
      </trkpt>
      <trkpt lat="43.32684" lon="5.68815">
        <ele>794.7</ele>
        <time>2022-03-09T13:01:27Z</time>
      </trkpt>
      <trkpt lat="43.32681" lon="5.6881">
        <ele>794.9</ele>
        <time>2022-03-09T13:01:32Z</time>
      </trkpt>
      <trkpt lat="43.32679" lon="5.68804">
        <ele>795</ele>
        <time>2022-03-09T13:01:37Z</time>
      </trkpt>
      <trkpt lat="43.32675" lon="5.688">
        <ele>794.4</ele>
        <time>2022-03-09T13:01:41Z</time>
      </trkpt>
      <trkpt lat="43.32672" lon="5.68795">
        <ele>794</ele>
        <time>2022-03-09T13:01:45Z</time>
      </trkpt>
      <trkpt lat="43.32669" lon="5.6879">
        <ele>794</ele>
        <time>2022-03-09T13:01:51Z</time>
      </trkpt>
      <trkpt lat="43.32665" lon="5.68787">
        <ele>793.7</ele>
        <time>2022-03-09T13:01:56Z</time>
      </trkpt>
      <trkpt lat="43.32662" lon="5.68781">
        <ele>794.1</ele>
        <time>2022-03-09T13:02:02Z</time>
      </trkpt>
      <trkpt lat="43.32658" lon="5.68775">
        <ele>794.3</ele>
        <time>2022-03-09T13:02:07Z</time>
      </trkpt>
      <trkpt lat="43.32653" lon="5.68772">
        <ele>794.3</ele>
        <time>2022-03-09T13:02:13Z</time>
      </trkpt>
      <trkpt lat="43.32649" lon="5.68771">
        <ele>794.3</ele>
        <time>2022-03-09T13:02:17Z</time>
      </trkpt>
      <trkpt lat="43.32644" lon="5.68768">
        <ele>794.6</ele>
        <time>2022-03-09T13:02:23Z</time>
      </trkpt>
      <trkpt lat="43.3264" lon="5.68764">
        <ele>795.4</ele>
        <time>2022-03-09T13:02:28Z</time>
      </trkpt>
      <trkpt lat="43.32637" lon="5.68759">
        <ele>796.7</ele>
        <time>2022-03-09T13:02:35Z</time>
      </trkpt>
      <trkpt lat="43.32632" lon="5.6876">
        <ele>796.4</ele>
        <time>2022-03-09T13:02:47Z</time>
      </trkpt>
      <trkpt lat="43.32627" lon="5.68759">
        <ele>796.7</ele>
        <time>2022-03-09T13:02:51Z</time>
      </trkpt>
      <trkpt lat="43.32623" lon="5.68757">
        <ele>797.3</ele>
        <time>2022-03-09T13:02:57Z</time>
      </trkpt>
      <trkpt lat="43.32618" lon="5.68755">
        <ele>798.1</ele>
        <time>2022-03-09T13:03:03Z</time>
      </trkpt>
      <trkpt lat="43.32614" lon="5.68753">
        <ele>798.9</ele>
        <time>2022-03-09T13:03:10Z</time>
      </trkpt>
      <trkpt lat="43.32609" lon="5.68751">
        <ele>799.8</ele>
        <time>2022-03-09T13:03:15Z</time>
      </trkpt>
      <trkpt lat="43.32605" lon="5.6875">
        <ele>800.4</ele>
        <time>2022-03-09T13:03:20Z</time>
      </trkpt>
      <trkpt lat="43.326" lon="5.68751">
        <ele>800.1</ele>
        <time>2022-03-09T13:03:26Z</time>
      </trkpt>
      <trkpt lat="43.32594" lon="5.6875">
        <ele>800.4</ele>
        <time>2022-03-09T13:03:31Z</time>
      </trkpt>
      <trkpt lat="43.32589" lon="5.68751">
        <ele>800.2</ele>
        <time>2022-03-09T13:03:36Z</time>
      </trkpt>
      <trkpt lat="43.32583" lon="5.68753">
        <ele>799.5</ele>
        <time>2022-03-09T13:03:40Z</time>
      </trkpt>
      <trkpt lat="43.32579" lon="5.68754">
        <ele>799.7</ele>
        <time>2022-03-09T13:03:43Z</time>
      </trkpt>
      <trkpt lat="43.32574" lon="5.68754">
        <ele>800.4</ele>
        <time>2022-03-09T13:03:51Z</time>
      </trkpt>
      <trkpt lat="43.3257" lon="5.68752">
        <ele>801.7</ele>
        <time>2022-03-09T13:03:57Z</time>
      </trkpt>
      <trkpt lat="43.32565" lon="5.68751">
        <ele>802.4</ele>
        <time>2022-03-09T13:04:02Z</time>
      </trkpt>
      <trkpt lat="43.3256" lon="5.68749">
        <ele>803.8</ele>
        <time>2022-03-09T13:04:10Z</time>
      </trkpt>
      <trkpt lat="43.32556" lon="5.68746">
        <ele>805.2</ele>
        <time>2022-03-09T13:04:17Z</time>
      </trkpt>
      <trkpt lat="43.32551" lon="5.68744">
        <ele>805.4</ele>
        <time>2022-03-09T13:04:25Z</time>
      </trkpt>
      <trkpt lat="43.32548" lon="5.68748">
        <ele>803.9</ele>
        <time>2022-03-09T13:04:31Z</time>
      </trkpt>
      <trkpt lat="43.32544" lon="5.68751">
        <ele>802.2</ele>
        <time>2022-03-09T13:04:36Z</time>
      </trkpt>
      <trkpt lat="43.32539" lon="5.68755">
        <ele>800.3</ele>
        <time>2022-03-09T13:04:49Z</time>
      </trkpt>
      <trkpt lat="43.32535" lon="5.68756">
        <ele>799.6</ele>
        <time>2022-03-09T13:04:54Z</time>
      </trkpt>
      <trkpt lat="43.3253" lon="5.68756">
        <ele>799.1</ele>
        <time>2022-03-09T13:04:58Z</time>
      </trkpt>
      <trkpt lat="43.32525" lon="5.68757">
        <ele>797.9</ele>
        <time>2022-03-09T13:05:03Z</time>
      </trkpt>
      <trkpt lat="43.3252" lon="5.68758">
        <ele>796.6</ele>
        <time>2022-03-09T13:05:14Z</time>
      </trkpt>
      <trkpt lat="43.32516" lon="5.68754">
        <ele>796.6</ele>
        <time>2022-03-09T13:05:19Z</time>
      </trkpt>
      <trkpt lat="43.32512" lon="5.6875">
        <ele>796.9</ele>
        <time>2022-03-09T13:05:26Z</time>
      </trkpt>
      <trkpt lat="43.32507" lon="5.68748">
        <ele>796.4</ele>
        <time>2022-03-09T13:05:31Z</time>
      </trkpt>
      <trkpt lat="43.32502" lon="5.68746">
        <ele>795.9</ele>
        <time>2022-03-09T13:05:38Z</time>
      </trkpt>
      <trkpt lat="43.32498" lon="5.68744">
        <ele>795.9</ele>
        <time>2022-03-09T13:05:42Z</time>
      </trkpt>
      <trkpt lat="43.32493" lon="5.68742">
        <ele>795.9</ele>
        <time>2022-03-09T13:05:48Z</time>
      </trkpt>
      <trkpt lat="43.32489" lon="5.68738">
        <ele>796.5</ele>
        <time>2022-03-09T13:05:54Z</time>
      </trkpt>
      <trkpt lat="43.32485" lon="5.68734">
        <ele>797.9</ele>
        <time>2022-03-09T13:05:58Z</time>
      </trkpt>
      <trkpt lat="43.32481" lon="5.6873">
        <ele>798.9</ele>
        <time>2022-03-09T13:06:03Z</time>
      </trkpt>
      <trkpt lat="43.32477" lon="5.68727">
        <ele>799.7</ele>
        <time>2022-03-09T13:06:12Z</time>
      </trkpt>
      <trkpt lat="43.32474" lon="5.68722">
        <ele>801.4</ele>
        <time>2022-03-09T13:06:17Z</time>
      </trkpt>
      <trkpt lat="43.3247" lon="5.68718">
        <ele>802.4</ele>
        <time>2022-03-09T13:06:23Z</time>
      </trkpt>
      <trkpt lat="43.32465" lon="5.68721">
        <ele>801.1</ele>
        <time>2022-03-09T13:06:30Z</time>
      </trkpt>
      <trkpt lat="43.3246" lon="5.68722">
        <ele>800.8</ele>
        <time>2022-03-09T13:06:34Z</time>
      </trkpt>
      <trkpt lat="43.32455" lon="5.68723">
        <ele>800</ele>
        <time>2022-03-09T13:06:39Z</time>
      </trkpt>
      <trkpt lat="43.32451" lon="5.68725">
        <ele>798.9</ele>
        <time>2022-03-09T13:06:43Z</time>
      </trkpt>
      <trkpt lat="43.32447" lon="5.68724">
        <ele>799.2</ele>
        <time>2022-03-09T13:06:47Z</time>
      </trkpt>
      <trkpt lat="43.32441" lon="5.68723">
        <ele>799.3</ele>
        <time>2022-03-09T13:06:52Z</time>
      </trkpt>
      <trkpt lat="43.32437" lon="5.68723">
        <ele>798.4</ele>
        <time>2022-03-09T13:06:57Z</time>
      </trkpt>
      <trkpt lat="43.32432" lon="5.68725">
        <ele>796.9</ele>
        <time>2022-03-09T13:07:05Z</time>
      </trkpt>
      <trkpt lat="43.32427" lon="5.68724">
        <ele>796.7</ele>
        <time>2022-03-09T13:07:14Z</time>
      </trkpt>
      <trkpt lat="43.32423" lon="5.68725">
        <ele>795.5</ele>
        <time>2022-03-09T13:07:20Z</time>
      </trkpt>
      <trkpt lat="43.32418" lon="5.68726">
        <ele>794.5</ele>
        <time>2022-03-09T13:07:27Z</time>
      </trkpt>
      <trkpt lat="43.32413" lon="5.68725">
        <ele>794.3</ele>
        <time>2022-03-09T13:07:32Z</time>
      </trkpt>
      <trkpt lat="43.32409" lon="5.68722">
        <ele>794.9</ele>
        <time>2022-03-09T13:07:38Z</time>
      </trkpt>
      <trkpt lat="43.32404" lon="5.68723">
        <ele>793.8</ele>
        <time>2022-03-09T13:07:43Z</time>
      </trkpt>
      <trkpt lat="43.324" lon="5.68722">
        <ele>793.6</ele>
        <time>2022-03-09T13:07:48Z</time>
      </trkpt>
      <trkpt lat="43.32395" lon="5.68719">
        <ele>794.2</ele>
        <time>2022-03-09T13:07:53Z</time>
      </trkpt>
      <trkpt lat="43.32391" lon="5.68714">
        <ele>795.9</ele>
        <time>2022-03-09T13:07:58Z</time>
      </trkpt>
      <trkpt lat="43.32387" lon="5.68711">
        <ele>797.3</ele>
        <time>2022-03-09T13:08:05Z</time>
      </trkpt>
      <trkpt lat="43.32382" lon="5.68712">
        <ele>796.4</ele>
        <time>2022-03-09T13:08:11Z</time>
      </trkpt>
      <trkpt lat="43.32378" lon="5.68711">
        <ele>796.2</ele>
        <time>2022-03-09T13:08:17Z</time>
      </trkpt>
      <trkpt lat="43.32373" lon="5.68712">
        <ele>795.8</ele>
        <time>2022-03-09T13:08:24Z</time>
      </trkpt>
      <trkpt lat="43.32367" lon="5.68711">
        <ele>795.5</ele>
        <time>2022-03-09T13:08:29Z</time>
      </trkpt>
      <trkpt lat="43.32363" lon="5.6871">
        <ele>795.8</ele>
        <time>2022-03-09T13:08:35Z</time>
      </trkpt>
      <trkpt lat="43.32358" lon="5.68709">
        <ele>795.9</ele>
        <time>2022-03-09T13:08:40Z</time>
      </trkpt>
      <trkpt lat="43.32353" lon="5.68708">
        <ele>796</ele>
        <time>2022-03-09T13:08:45Z</time>
      </trkpt>
      <trkpt lat="43.32348" lon="5.6871">
        <ele>794.7</ele>
        <time>2022-03-09T13:08:53Z</time>
      </trkpt>
      <trkpt lat="43.32344" lon="5.6871">
        <ele>794.3</ele>
        <time>2022-03-09T13:08:58Z</time>
      </trkpt>
      <trkpt lat="43.32339" lon="5.68707">
        <ele>795.3</ele>
        <time>2022-03-09T13:09:02Z</time>
      </trkpt>
      <trkpt lat="43.32335" lon="5.68705">
        <ele>795.9</ele>
        <time>2022-03-09T13:09:06Z</time>
      </trkpt>
      <trkpt lat="43.3233" lon="5.68704">
        <ele>795.5</ele>
        <time>2022-03-09T13:09:12Z</time>
      </trkpt>
      <trkpt lat="43.32325" lon="5.68703">
        <ele>795.4</ele>
        <time>2022-03-09T13:09:18Z</time>
      </trkpt>
      <trkpt lat="43.3232" lon="5.68702">
        <ele>795</ele>
        <time>2022-03-09T13:09:24Z</time>
      </trkpt>
      <trkpt lat="43.32315" lon="5.68702">
        <ele>794.4</ele>
        <time>2022-03-09T13:09:30Z</time>
      </trkpt>
      <trkpt lat="43.3231" lon="5.68702">
        <ele>793.7</ele>
        <time>2022-03-09T13:09:36Z</time>
      </trkpt>
      <trkpt lat="43.32305" lon="5.68701">
        <ele>793.4</ele>
        <time>2022-03-09T13:09:43Z</time>
      </trkpt>
      <trkpt lat="43.32301" lon="5.687">
        <ele>793.6</ele>
        <time>2022-03-09T13:09:49Z</time>
      </trkpt>
      <trkpt lat="43.32296" lon="5.68698">
        <ele>793.9</ele>
        <time>2022-03-09T13:09:55Z</time>
      </trkpt>
      <trkpt lat="43.32291" lon="5.68696">
        <ele>794</ele>
        <time>2022-03-09T13:10:01Z</time>
      </trkpt>
      <trkpt lat="43.32287" lon="5.68694">
        <ele>794.6</ele>
        <time>2022-03-09T13:10:05Z</time>
      </trkpt>
      <trkpt lat="43.32283" lon="5.68692">
        <ele>795.1</ele>
        <time>2022-03-09T13:10:10Z</time>
      </trkpt>
      <trkpt lat="43.32278" lon="5.6869">
        <ele>794.9</ele>
        <time>2022-03-09T13:10:17Z</time>
      </trkpt>
      <trkpt lat="43.32273" lon="5.6869">
        <ele>794.5</ele>
        <time>2022-03-09T13:10:22Z</time>
      </trkpt>
      <trkpt lat="43.32268" lon="5.68691">
        <ele>793.4</ele>
        <time>2022-03-09T13:10:26Z</time>
      </trkpt>
      <trkpt lat="43.32263" lon="5.68688">
        <ele>794</ele>
        <time>2022-03-09T13:10:30Z</time>
      </trkpt>
      <trkpt lat="43.32258" lon="5.68685">
        <ele>794.4</ele>
        <time>2022-03-09T13:10:35Z</time>
      </trkpt>
      <trkpt lat="43.32254" lon="5.68686">
        <ele>793.4</ele>
        <time>2022-03-09T13:10:43Z</time>
      </trkpt>
      <trkpt lat="43.32248" lon="5.68687">
        <ele>792.3</ele>
        <time>2022-03-09T13:10:51Z</time>
      </trkpt>
      <trkpt lat="43.32244" lon="5.68689">
        <ele>790.9</ele>
        <time>2022-03-09T13:10:58Z</time>
      </trkpt>
      <trkpt lat="43.32239" lon="5.68691">
        <ele>789.6</ele>
        <time>2022-03-09T13:11:05Z</time>
      </trkpt>
      <trkpt lat="43.32234" lon="5.68691">
        <ele>788.7</ele>
        <time>2022-03-09T13:11:10Z</time>
      </trkpt>
      <trkpt lat="43.32229" lon="5.6869">
        <ele>788.9</ele>
        <time>2022-03-09T13:11:16Z</time>
      </trkpt>
      <trkpt lat="43.32224" lon="5.6869">
        <ele>788.6</ele>
        <time>2022-03-09T13:11:21Z</time>
      </trkpt>
      <trkpt lat="43.3222" lon="5.68686">
        <ele>790.1</ele>
        <time>2022-03-09T13:11:27Z</time>
      </trkpt>
      <trkpt lat="43.32215" lon="5.68685">
        <ele>790.1</ele>
        <time>2022-03-09T13:11:35Z</time>
      </trkpt>
      <trkpt lat="43.3221" lon="5.68685">
        <ele>789.3</ele>
        <time>2022-03-09T13:11:41Z</time>
      </trkpt>
      <trkpt lat="43.32205" lon="5.68685">
        <ele>788.9</ele>
        <time>2022-03-09T13:11:49Z</time>
      </trkpt>
      <trkpt lat="43.322" lon="5.68686">
        <ele>788</ele>
        <time>2022-03-09T13:11:53Z</time>
      </trkpt>
      <trkpt lat="43.32196" lon="5.68684">
        <ele>788.6</ele>
        <time>2022-03-09T13:11:59Z</time>
      </trkpt>
      <trkpt lat="43.32192" lon="5.68681">
        <ele>790.1</ele>
        <time>2022-03-09T13:12:05Z</time>
      </trkpt>
      <trkpt lat="43.32187" lon="5.68679">
        <ele>790.6</ele>
        <time>2022-03-09T13:12:10Z</time>
      </trkpt>
      <trkpt lat="43.32182" lon="5.68678">
        <ele>790.3</ele>
        <time>2022-03-09T13:12:17Z</time>
      </trkpt>
      <trkpt lat="43.32177" lon="5.68677">
        <ele>790.4</ele>
        <time>2022-03-09T13:12:24Z</time>
      </trkpt>
      <trkpt lat="43.32173" lon="5.68677">
        <ele>789.7</ele>
        <time>2022-03-09T13:12:29Z</time>
      </trkpt>
      <trkpt lat="43.32168" lon="5.68675">
        <ele>790.2</ele>
        <time>2022-03-09T13:12:35Z</time>
      </trkpt>
      <trkpt lat="43.32163" lon="5.68674">
        <ele>790.1</ele>
        <time>2022-03-09T13:12:40Z</time>
      </trkpt>
      <trkpt lat="43.32158" lon="5.68673">
        <ele>789.7</ele>
        <time>2022-03-09T13:12:47Z</time>
      </trkpt>
      <trkpt lat="43.32154" lon="5.6867">
        <ele>790.9</ele>
        <time>2022-03-09T13:12:54Z</time>
      </trkpt>
      <trkpt lat="43.32149" lon="5.68667">
        <ele>792.2</ele>
        <time>2022-03-09T13:13:01Z</time>
      </trkpt>
      <trkpt lat="43.32145" lon="5.68666">
        <ele>791.7</ele>
        <time>2022-03-09T13:13:07Z</time>
      </trkpt>
      <trkpt lat="43.3214" lon="5.68666">
        <ele>791.7</ele>
        <time>2022-03-09T13:13:14Z</time>
      </trkpt>
      <trkpt lat="43.32136" lon="5.68662">
        <ele>793.4</ele>
        <time>2022-03-09T13:13:20Z</time>
      </trkpt>
      <trkpt lat="43.32131" lon="5.68663">
        <ele>792.6</ele>
        <time>2022-03-09T13:13:27Z</time>
      </trkpt>
      <trkpt lat="43.32125" lon="5.68661">
        <ele>792.8</ele>
        <time>2022-03-09T13:13:35Z</time>
      </trkpt>
      <trkpt lat="43.32121" lon="5.68658">
        <ele>793.8</ele>
        <time>2022-03-09T13:13:40Z</time>
      </trkpt>
      <trkpt lat="43.32116" lon="5.68656">
        <ele>794</ele>
        <time>2022-03-09T13:13:46Z</time>
      </trkpt>
      <trkpt lat="43.32111" lon="5.68656">
        <ele>793.3</ele>
        <time>2022-03-09T13:13:54Z</time>
      </trkpt>
      <trkpt lat="43.32106" lon="5.68656">
        <ele>793</ele>
        <time>2022-03-09T13:14:02Z</time>
      </trkpt>
      <trkpt lat="43.32102" lon="5.68659">
        <ele>791.4</ele>
        <time>2022-03-09T13:14:11Z</time>
      </trkpt>
      <trkpt lat="43.32097" lon="5.68659">
        <ele>790.6</ele>
        <time>2022-03-09T13:14:18Z</time>
      </trkpt>
      <trkpt lat="43.32092" lon="5.68656">
        <ele>791.8</ele>
        <time>2022-03-09T13:14:23Z</time>
      </trkpt>
      <trkpt lat="43.32087" lon="5.68654">
        <ele>792.9</ele>
        <time>2022-03-09T13:14:29Z</time>
      </trkpt>
      <trkpt lat="43.32082" lon="5.6865">
        <ele>794.4</ele>
        <time>2022-03-09T13:14:34Z</time>
      </trkpt>
      <trkpt lat="43.32078" lon="5.68652">
        <ele>793.3</ele>
        <time>2022-03-09T13:14:39Z</time>
      </trkpt>
      <trkpt lat="43.32073" lon="5.68653">
        <ele>792.5</ele>
        <time>2022-03-09T13:14:44Z</time>
      </trkpt>
      <trkpt lat="43.32068" lon="5.68652">
        <ele>792.7</ele>
        <time>2022-03-09T13:14:49Z</time>
      </trkpt>
      <trkpt lat="43.32064" lon="5.6865">
        <ele>793.5</ele>
        <time>2022-03-09T13:14:54Z</time>
      </trkpt>
      <trkpt lat="43.32059" lon="5.6865">
        <ele>793.3</ele>
        <time>2022-03-09T13:15:01Z</time>
      </trkpt>
      <trkpt lat="43.32053" lon="5.6865">
        <ele>793.1</ele>
        <time>2022-03-09T13:15:06Z</time>
      </trkpt>
      <trkpt lat="43.32048" lon="5.6865">
        <ele>791.9</ele>
        <time>2022-03-09T13:15:11Z</time>
      </trkpt>
      <trkpt lat="43.32043" lon="5.68648">
        <ele>792.1</ele>
        <time>2022-03-09T13:15:17Z</time>
      </trkpt>
      <trkpt lat="43.32039" lon="5.68645">
        <ele>792.8</ele>
        <time>2022-03-09T13:15:21Z</time>
      </trkpt>
      <trkpt lat="43.32036" lon="5.68639">
        <ele>794.5</ele>
        <time>2022-03-09T13:15:25Z</time>
      </trkpt>
      <trkpt lat="43.32033" lon="5.68634">
        <ele>797</ele>
        <time>2022-03-09T13:15:29Z</time>
      </trkpt>
      <trkpt lat="43.3203" lon="5.68628">
        <ele>799</ele>
        <time>2022-03-09T13:15:33Z</time>
      </trkpt>
      <trkpt lat="43.32026" lon="5.68625">
        <ele>799.2</ele>
        <time>2022-03-01T11:58:58Z</time>
      </trkpt>
      <trkpt lat="43.31974" lon="5.68574">
        <ele>795.8</ele>
        <time>2022-03-09T13:17:15Z</time>
      </trkpt>
      <trkpt lat="43.3197" lon="5.68578">
        <ele>791.1</ele>
        <time>2022-03-09T13:17:20Z</time>
      </trkpt>
      <trkpt lat="43.31967" lon="5.68584">
        <ele>787.9</ele>
        <time>2022-03-09T13:17:28Z</time>
      </trkpt>
      <trkpt lat="43.31964" lon="5.68589">
        <ele>786.3</ele>
        <time>2022-03-09T13:17:37Z</time>
      </trkpt>
      <trkpt lat="43.31959" lon="5.68591">
        <ele>785.5</ele>
        <time>2022-03-09T13:17:43Z</time>
      </trkpt>
      <trkpt lat="43.31954" lon="5.68594">
        <ele>784.5</ele>
        <time>2022-03-09T13:17:48Z</time>
      </trkpt>
      <trkpt lat="43.3195" lon="5.68596">
        <ele>783.5</ele>
        <time>2022-03-09T13:17:55Z</time>
      </trkpt>
      <trkpt lat="43.31946" lon="5.686">
        <ele>782.2</ele>
        <time>2022-03-09T13:18:00Z</time>
      </trkpt>
      <trkpt lat="43.31942" lon="5.68602">
        <ele>781.7</ele>
        <time>2022-03-09T13:18:09Z</time>
      </trkpt>
      <trkpt lat="43.3194" lon="5.68608">
        <ele>780</ele>
        <time>2022-03-09T13:18:13Z</time>
      </trkpt>
      <trkpt lat="43.31935" lon="5.6861">
        <ele>779.9</ele>
        <time>2022-03-09T13:18:18Z</time>
      </trkpt>
      <trkpt lat="43.31935" lon="5.68618">
        <ele>778.4</ele>
        <time>2022-03-09T13:18:25Z</time>
      </trkpt>
      <trkpt lat="43.31936" lon="5.68625">
        <ele>776.9</ele>
        <time>2022-03-09T13:18:29Z</time>
      </trkpt>
      <trkpt lat="43.31933" lon="5.68631">
        <ele>776.7</ele>
        <time>2022-03-09T13:18:33Z</time>
      </trkpt>
      <trkpt lat="43.31929" lon="5.68634">
        <ele>777.3</ele>
        <time>2022-03-09T13:18:38Z</time>
      </trkpt>
      <trkpt lat="43.31927" lon="5.6864">
        <ele>776.9</ele>
        <time>2022-03-09T13:18:43Z</time>
      </trkpt>
      <trkpt lat="43.31925" lon="5.68646">
        <ele>777</ele>
        <time>2022-03-09T13:18:46Z</time>
      </trkpt>
      <trkpt lat="43.31924" lon="5.68653">
        <ele>776.8</ele>
        <time>2022-03-09T13:18:50Z</time>
      </trkpt>
      <trkpt lat="43.31923" lon="5.68659">
        <ele>776.5</ele>
        <time>2022-03-09T13:18:54Z</time>
      </trkpt>
      <trkpt lat="43.31921" lon="5.68666">
        <ele>776.5</ele>
        <time>2022-03-09T13:18:59Z</time>
      </trkpt>
      <trkpt lat="43.31921" lon="5.68672">
        <ele>776</ele>
        <time>2022-03-09T13:19:04Z</time>
      </trkpt>
      <trkpt lat="43.31921" lon="5.68679">
        <ele>775</ele>
        <time>2022-03-09T13:19:08Z</time>
      </trkpt>
      <trkpt lat="43.31921" lon="5.68686">
        <ele>774</ele>
        <time>2022-03-09T13:19:14Z</time>
      </trkpt>
      <trkpt lat="43.31918" lon="5.6869">
        <ele>774.4</ele>
        <time>2022-03-09T13:19:35Z</time>
      </trkpt>
      <trkpt lat="43.31922" lon="5.68694">
        <ele>772.9</ele>
        <time>2022-03-09T13:20:06Z</time>
      </trkpt>
      <trkpt lat="43.31921" lon="5.68687">
        <ele>773.8</ele>
        <time>2022-03-09T13:20:33Z</time>
      </trkpt>
      <trkpt lat="43.31917" lon="5.68687">
        <ele>774.9</ele>
        <time>2022-03-09T13:21:40Z</time>
      </trkpt>
      <trkpt lat="43.31913" lon="5.6869">
        <ele>775.9</ele>
        <time>2022-03-09T13:22:29Z</time>
      </trkpt>
      <trkpt lat="43.31908" lon="5.68689">
        <ele>777.5</ele>
        <time>2022-03-09T13:22:55Z</time>
      </trkpt>
      <trkpt lat="43.31903" lon="5.6869">
        <ele>779</ele>
        <time>2022-03-09T13:22:58Z</time>
      </trkpt>
      <trkpt lat="43.31899" lon="5.68693">
        <ele>779.5</ele>
        <time>2022-03-09T13:23:07Z</time>
      </trkpt>
      <trkpt lat="43.31895" lon="5.68696">
        <ele>779.7</ele>
        <time>2022-03-09T13:23:13Z</time>
      </trkpt>
      <trkpt lat="43.3189" lon="5.687">
        <ele>780.4</ele>
        <time>2022-03-09T13:23:19Z</time>
      </trkpt>
      <trkpt lat="43.31885" lon="5.68701">
        <ele>782</ele>
        <time>2022-03-09T13:23:23Z</time>
      </trkpt>
      <trkpt lat="43.31881" lon="5.68704">
        <ele>783.3</ele>
        <time>2022-03-09T13:23:27Z</time>
      </trkpt>
      <trkpt lat="43.31876" lon="5.68705">
        <ele>785.2</ele>
        <time>2022-03-09T13:23:34Z</time>
      </trkpt>
      <trkpt lat="43.31871" lon="5.68704">
        <ele>788.2</ele>
        <time>2022-03-09T13:23:41Z</time>
      </trkpt>
      <trkpt lat="43.31866" lon="5.68706">
        <ele>789.5</ele>
        <time>2022-03-09T13:23:50Z</time>
      </trkpt>
      <trkpt lat="43.31861" lon="5.68706">
        <ele>791.3</ele>
        <time>2022-03-09T13:23:56Z</time>
      </trkpt>
      <trkpt lat="43.31856" lon="5.68708">
        <ele>791.9</ele>
        <time>2022-03-09T13:24:01Z</time>
      </trkpt>
      <trkpt lat="43.31851" lon="5.68709">
        <ele>792.8</ele>
        <time>2022-03-09T13:24:09Z</time>
      </trkpt>
      <trkpt lat="43.31846" lon="5.68712">
        <ele>792.7</ele>
        <time>2022-03-09T13:24:14Z</time>
      </trkpt>
      <trkpt lat="43.31842" lon="5.68715">
        <ele>792.5</ele>
        <time>2022-03-09T13:24:24Z</time>
      </trkpt>
      <trkpt lat="43.31838" lon="5.68719">
        <ele>791.5</ele>
        <time>2022-03-09T13:24:31Z</time>
      </trkpt>
      <trkpt lat="43.31835" lon="5.68724">
        <ele>790.3</ele>
        <time>2022-03-09T13:24:39Z</time>
      </trkpt>
      <trkpt lat="43.31832" lon="5.68729">
        <ele>791.3</ele>
        <time>2022-03-09T13:24:47Z</time>
      </trkpt>
      <trkpt lat="43.3183" lon="5.68734">
        <ele>792.2</ele>
        <time>2022-03-09T13:24:55Z</time>
      </trkpt>
      <trkpt lat="43.31828" lon="5.68741">
        <ele>792.7</ele>
        <time>2022-03-09T13:24:59Z</time>
      </trkpt>
      <trkpt lat="43.31827" lon="5.68748">
        <ele>792.8</ele>
        <time>2022-03-09T13:25:04Z</time>
      </trkpt>
      <trkpt lat="43.31824" lon="5.68754">
        <ele>794.4</ele>
        <time>2022-03-09T13:25:10Z</time>
      </trkpt>
      <trkpt lat="43.3182" lon="5.68758">
        <ele>796.4</ele>
        <time>2022-03-09T13:25:16Z</time>
      </trkpt>
      <trkpt lat="43.31816" lon="5.6876">
        <ele>798.1</ele>
        <time>2022-03-09T13:25:24Z</time>
      </trkpt>
      <trkpt lat="43.31811" lon="5.6876">
        <ele>799.5</ele>
        <time>2022-03-09T13:25:32Z</time>
      </trkpt>
      <trkpt lat="43.31806" lon="5.68758">
        <ele>800.6</ele>
        <time>2022-03-09T13:25:39Z</time>
      </trkpt>
      <trkpt lat="43.31802" lon="5.68756">
        <ele>801.7</ele>
        <time>2022-03-09T13:25:45Z</time>
      </trkpt>
      <trkpt lat="43.31796" lon="5.68757">
        <ele>803.7</ele>
        <time>2022-03-09T13:25:53Z</time>
      </trkpt>
      <trkpt lat="43.31791" lon="5.68757">
        <ele>805.6</ele>
        <time>2022-03-09T13:26:01Z</time>
      </trkpt>
      <trkpt lat="43.31786" lon="5.68756">
        <ele>807.1</ele>
        <time>2022-03-09T13:26:06Z</time>
      </trkpt>
      <trkpt lat="43.31783" lon="5.68752">
        <ele>807.2</ele>
        <time>2022-03-09T13:26:14Z</time>
      </trkpt>
      <trkpt lat="43.31779" lon="5.68748">
        <ele>807.8</ele>
        <time>2022-03-09T13:26:22Z</time>
      </trkpt>
      <trkpt lat="43.31777" lon="5.68742">
        <ele>808.5</ele>
        <time>2022-03-09T13:26:31Z</time>
      </trkpt>
      <trkpt lat="43.31774" lon="5.68738">
        <ele>810.2</ele>
        <time>2022-03-09T13:26:37Z</time>
      </trkpt>
      <trkpt lat="43.3177" lon="5.68733">
        <ele>811.8</ele>
        <time>2022-03-09T13:26:44Z</time>
      </trkpt>
      <trkpt lat="43.31766" lon="5.68729">
        <ele>813.5</ele>
        <time>2022-03-09T13:26:50Z</time>
      </trkpt>
      <trkpt lat="43.31763" lon="5.68724">
        <ele>814.5</ele>
        <time>2022-03-09T13:26:57Z</time>
      </trkpt>
      <trkpt lat="43.31761" lon="5.68718">
        <ele>815.2</ele>
        <time>2022-03-09T13:27:07Z</time>
      </trkpt>
      <trkpt lat="43.31757" lon="5.68714">
        <ele>816.9</ele>
        <time>2022-03-09T13:27:17Z</time>
      </trkpt>
      <trkpt lat="43.31756" lon="5.68708">
        <ele>817.6</ele>
        <time>2022-03-09T13:27:25Z</time>
      </trkpt>
      <trkpt lat="43.31753" lon="5.68702">
        <ele>818.4</ele>
        <time>2022-03-09T13:27:30Z</time>
      </trkpt>
      <trkpt lat="43.31751" lon="5.68697">
        <ele>818.8</ele>
        <time>2022-03-09T13:27:37Z</time>
      </trkpt>
      <trkpt lat="43.3175" lon="5.6869">
        <ele>819.5</ele>
        <time>2022-03-09T13:27:45Z</time>
      </trkpt>
      <trkpt lat="43.3175" lon="5.68683">
        <ele>820.2</ele>
        <time>2022-03-09T13:27:54Z</time>
      </trkpt>
      <trkpt lat="43.31751" lon="5.68676">
        <ele>820.9</ele>
        <time>2022-03-09T13:28:01Z</time>
      </trkpt>
      <trkpt lat="43.31748" lon="5.68671">
        <ele>822.4</ele>
        <time>2022-03-09T13:28:08Z</time>
      </trkpt>
      <trkpt lat="43.31745" lon="5.68666">
        <ele>824.4</ele>
        <time>2022-03-09T13:28:23Z</time>
      </trkpt>
      <trkpt lat="43.3174" lon="5.68665">
        <ele>826.2</ele>
        <time>2022-03-09T13:31:45Z</time>
      </trkpt>
      <trkpt lat="43.31736" lon="5.68665">
        <ele>828.1</ele>
        <time>2022-03-09T13:33:06Z</time>
      </trkpt>
      <trkpt lat="43.31732" lon="5.68661">
        <ele>830.1</ele>
        <time>2022-03-09T13:33:21Z</time>
      </trkpt>
      <trkpt lat="43.31728" lon="5.68659">
        <ele>831.6</ele>
        <time>2022-03-09T13:33:38Z</time>
      </trkpt>
      <trkpt lat="43.31724" lon="5.68657">
        <ele>833</ele>
        <time>2022-03-09T13:33:53Z</time>
      </trkpt>
      <trkpt lat="43.31719" lon="5.68655">
        <ele>834.8</ele>
        <time>2022-03-09T13:34:03Z</time>
      </trkpt>
      <trkpt lat="43.31715" lon="5.68653">
        <ele>836.8</ele>
        <time>2022-03-09T13:34:13Z</time>
      </trkpt>
      <trkpt lat="43.31709" lon="5.68651">
        <ele>839.3</ele>
        <time>2022-03-09T13:34:18Z</time>
      </trkpt>
      <trkpt lat="43.31705" lon="5.68647">
        <ele>841.1</ele>
        <time>2022-03-09T13:34:24Z</time>
      </trkpt>
      <trkpt lat="43.31701" lon="5.68643">
        <ele>842.5</ele>
        <time>2022-03-09T13:34:31Z</time>
      </trkpt>
      <trkpt lat="43.31698" lon="5.68638">
        <ele>843.9</ele>
        <time>2022-03-09T13:34:46Z</time>
      </trkpt>
      <trkpt lat="43.31695" lon="5.68632">
        <ele>845.3</ele>
        <time>2022-03-09T13:34:56Z</time>
      </trkpt>
      <trkpt lat="43.3169" lon="5.68626">
        <ele>847.8</ele>
        <time>2022-03-09T13:35:07Z</time>
      </trkpt>
      <trkpt lat="43.31686" lon="5.68623">
        <ele>849.4</ele>
        <time>2022-03-09T13:35:16Z</time>
      </trkpt>
      <trkpt lat="43.31682" lon="5.68619">
        <ele>850.9</ele>
        <time>2022-03-09T13:35:33Z</time>
      </trkpt>
      <trkpt lat="43.31678" lon="5.68616">
        <ele>852.2</ele>
        <time>2022-03-09T13:35:42Z</time>
      </trkpt>
      <trkpt lat="43.31674" lon="5.68614">
        <ele>853.8</ele>
        <time>2022-03-09T13:36:05Z</time>
      </trkpt>
      <trkpt lat="43.31667" lon="5.68611">
        <ele>856</ele>
        <time>2022-03-09T13:36:08Z</time>
      </trkpt>
      <trkpt lat="43.31662" lon="5.6861">
        <ele>857.5</ele>
        <time>2022-03-09T13:36:12Z</time>
      </trkpt>
      <trkpt lat="43.31658" lon="5.68607">
        <ele>858.9</ele>
        <time>2022-03-09T13:36:21Z</time>
      </trkpt>
      <trkpt lat="43.31654" lon="5.68602">
        <ele>860.3</ele>
        <time>2022-03-09T13:36:25Z</time>
      </trkpt>
      <trkpt lat="43.31651" lon="5.68597">
        <ele>861.4</ele>
        <time>2022-03-09T13:36:30Z</time>
      </trkpt>
      <trkpt lat="43.31647" lon="5.68596">
        <ele>862.4</ele>
        <time>2022-03-09T13:36:39Z</time>
      </trkpt>
      <trkpt lat="43.31642" lon="5.68597">
        <ele>863.3</ele>
        <time>2022-03-09T13:36:46Z</time>
      </trkpt>
      <trkpt lat="43.31637" lon="5.68599">
        <ele>864</ele>
        <time>2022-03-09T13:36:54Z</time>
      </trkpt>
      <trkpt lat="43.31633" lon="5.68598">
        <ele>864.1</ele>
        <time>2022-03-09T13:37:08Z</time>
      </trkpt>
      <trkpt lat="43.31631" lon="5.68604">
        <ele>864.5</ele>
        <time>2022-03-09T13:43:36Z</time>
      </trkpt>
      <trkpt lat="43.31633" lon="5.68609">
        <ele>864.6</ele>
        <time>2022-03-09T13:43:43Z</time>
      </trkpt>
      <trkpt lat="43.31634" lon="5.68615">
        <ele>864.9</ele>
        <time>2022-03-09T13:43:51Z</time>
      </trkpt>
      <trkpt lat="43.31632" lon="5.68621">
        <ele>865.8</ele>
        <time>2022-03-09T13:44:04Z</time>
      </trkpt>
      <trkpt lat="43.3163" lon="5.68627">
        <ele>866.7</ele>
        <time>2022-03-09T13:44:17Z</time>
      </trkpt>
      <trkpt lat="43.31627" lon="5.68632">
        <ele>867.8</ele>
        <time>2022-03-09T13:44:26Z</time>
      </trkpt>
      <trkpt lat="43.31625" lon="5.68638">
        <ele>868.9</ele>
        <time>2022-03-09T13:44:35Z</time>
      </trkpt>
      <trkpt lat="43.31625" lon="5.68644">
        <ele>869.6</ele>
        <time>2022-03-09T13:45:21Z</time>
      </trkpt>
      <trkpt lat="43.31622" lon="5.6865">
        <ele>871</ele>
        <time>2022-03-09T13:45:27Z</time>
      </trkpt>
      <trkpt lat="43.31619" lon="5.68655">
        <ele>872.6</ele>
        <time>2022-03-09T13:45:32Z</time>
      </trkpt>
      <trkpt lat="43.31617" lon="5.68662">
        <ele>873.9</ele>
        <time>2022-03-09T13:45:38Z</time>
      </trkpt>
      <trkpt lat="43.31616" lon="5.68669">
        <ele>875</ele>
        <time>2022-03-09T13:45:45Z</time>
      </trkpt>
      <trkpt lat="43.31619" lon="5.68675">
        <ele>875.2</ele>
        <time>2022-03-09T13:45:56Z</time>
      </trkpt>
      <trkpt lat="43.31623" lon="5.68677">
        <ele>874.4</ele>
        <time>2022-03-09T13:46:05Z</time>
      </trkpt>
      <trkpt lat="43.31628" lon="5.68681">
        <ele>873.5</ele>
        <time>2022-03-09T13:46:12Z</time>
      </trkpt>
      <trkpt lat="43.31628" lon="5.68687">
        <ele>874.3</ele>
        <time>2022-03-09T13:46:18Z</time>
      </trkpt>
      <trkpt lat="43.31628" lon="5.68694">
        <ele>875</ele>
        <time>2022-03-09T13:46:26Z</time>
      </trkpt>
      <trkpt lat="43.31628" lon="5.68701">
        <ele>875.7</ele>
        <time>2022-03-09T13:46:32Z</time>
      </trkpt>
      <trkpt lat="43.31628" lon="5.68708">
        <ele>876.3</ele>
        <time>2022-03-09T13:46:38Z</time>
      </trkpt>
      <trkpt lat="43.31628" lon="5.68714">
        <ele>876.7</ele>
        <time>2022-03-09T13:46:45Z</time>
      </trkpt>
      <trkpt lat="43.31629" lon="5.68721">
        <ele>877.3</ele>
        <time>2022-03-09T13:46:52Z</time>
      </trkpt>
      <trkpt lat="43.3163" lon="5.68728">
        <ele>877.3</ele>
        <time>2022-03-09T13:46:58Z</time>
      </trkpt>
      <trkpt lat="43.31631" lon="5.68735">
        <ele>877.2</ele>
        <time>2022-03-09T13:47:06Z</time>
      </trkpt>
      <trkpt lat="43.3163" lon="5.68741">
        <ele>877.1</ele>
        <time>2022-03-09T13:47:18Z</time>
      </trkpt>
      <trkpt lat="43.31632" lon="5.68746">
        <ele>877.3</ele>
        <time>2022-03-09T13:47:23Z</time>
      </trkpt>
      <trkpt lat="43.31632" lon="5.68753">
        <ele>877.1</ele>
        <time>2022-03-09T13:47:37Z</time>
      </trkpt>
      <trkpt lat="43.31632" lon="5.68759">
        <ele>876.8</ele>
        <time>2022-03-09T13:47:43Z</time>
      </trkpt>
      <trkpt lat="43.31632" lon="5.68766">
        <ele>876.5</ele>
        <time>2022-03-09T13:47:49Z</time>
      </trkpt>
      <trkpt lat="43.31632" lon="5.68773">
        <ele>876.2</ele>
        <time>2022-03-09T13:48:03Z</time>
      </trkpt>
      <trkpt lat="43.31635" lon="5.6878">
        <ele>876.4</ele>
        <time>2022-03-09T13:48:07Z</time>
      </trkpt>
      <trkpt lat="43.31639" lon="5.68786">
        <ele>876.7</ele>
        <time>2022-03-09T13:48:12Z</time>
      </trkpt>
      <trkpt lat="43.31641" lon="5.68791">
        <ele>876.5</ele>
        <time>2022-03-09T13:48:17Z</time>
      </trkpt>
      <trkpt lat="43.31641" lon="5.68798">
        <ele>876.3</ele>
        <time>2022-03-09T13:48:21Z</time>
      </trkpt>
      <trkpt lat="43.31641" lon="5.68805">
        <ele>876.1</ele>
        <time>2022-03-09T13:48:25Z</time>
      </trkpt>
      <trkpt lat="43.31641" lon="5.68812">
        <ele>876.5</ele>
        <time>2022-03-09T13:48:29Z</time>
      </trkpt>
      <trkpt lat="43.31639" lon="5.68819">
        <ele>876.9</ele>
        <time>2022-03-09T13:48:34Z</time>
      </trkpt>
      <trkpt lat="43.31637" lon="5.68824">
        <ele>877.4</ele>
        <time>2022-03-09T13:48:38Z</time>
      </trkpt>
      <trkpt lat="43.31636" lon="5.68831">
        <ele>878</ele>
        <time>2022-03-09T13:48:43Z</time>
      </trkpt>
      <trkpt lat="43.31634" lon="5.68838">
        <ele>878.5</ele>
        <time>2022-03-09T13:48:57Z</time>
      </trkpt>
      <trkpt lat="43.31632" lon="5.68843">
        <ele>879</ele>
        <time>2022-03-09T13:49:01Z</time>
      </trkpt>
      <trkpt lat="43.31628" lon="5.68848">
        <ele>879.4</ele>
        <time>2022-03-09T13:49:05Z</time>
      </trkpt>
      <trkpt lat="43.31624" lon="5.68852">
        <ele>879.9</ele>
        <time>2022-03-09T13:49:10Z</time>
      </trkpt>
      <trkpt lat="43.3162" lon="5.68855">
        <ele>880.2</ele>
        <time>2022-03-09T13:49:21Z</time>
      </trkpt>
      <trkpt lat="43.31618" lon="5.68861">
        <ele>880.7</ele>
        <time>2022-03-09T13:49:25Z</time>
      </trkpt>
      <trkpt lat="43.31616" lon="5.68867">
        <ele>881.2</ele>
        <time>2022-03-09T13:49:30Z</time>
      </trkpt>
      <trkpt lat="43.31613" lon="5.68874">
        <ele>881.8</ele>
        <time>2022-03-09T13:49:36Z</time>
      </trkpt>
      <trkpt lat="43.31612" lon="5.68879">
        <ele>882.3</ele>
        <time>2022-03-09T13:49:40Z</time>
      </trkpt>
      <trkpt lat="43.31609" lon="5.68885">
        <ele>883</ele>
        <time>2022-03-09T13:49:46Z</time>
      </trkpt>
      <trkpt lat="43.31607" lon="5.6889">
        <ele>883.8</ele>
        <time>2022-03-09T13:49:53Z</time>
      </trkpt>
      <trkpt lat="43.31606" lon="5.68897">
        <ele>884.1</ele>
        <time>2022-03-09T13:50:00Z</time>
      </trkpt>
      <trkpt lat="43.31603" lon="5.68903">
        <ele>884.3</ele>
        <time>2022-03-09T13:50:11Z</time>
      </trkpt>
      <trkpt lat="43.31598" lon="5.68903">
        <ele>884.4</ele>
        <time>2022-03-09T13:50:20Z</time>
      </trkpt>
      <trkpt lat="43.31594" lon="5.68901">
        <ele>884.8</ele>
        <time>2022-03-09T13:50:27Z</time>
      </trkpt>
      <trkpt lat="43.31591" lon="5.68895">
        <ele>885.7</ele>
        <time>2022-03-09T13:50:35Z</time>
      </trkpt>
      <trkpt lat="43.31595" lon="5.68899">
        <ele>885</ele>
        <time>2022-03-09T13:52:18Z</time>
      </trkpt>
      <trkpt lat="43.31598" lon="5.68903">
        <ele>884.4</ele>
        <time>2022-03-09T13:52:25Z</time>
      </trkpt>
      <trkpt lat="43.31598" lon="5.68911">
        <ele>884</ele>
        <time>2022-03-09T13:52:38Z</time>
      </trkpt>
      <trkpt lat="43.316" lon="5.68917">
        <ele>883.8</ele>
        <time>2022-03-09T13:52:44Z</time>
      </trkpt>
      <trkpt lat="43.31596" lon="5.6892">
        <ele>882.9</ele>
        <time>2022-03-09T13:53:14Z</time>
      </trkpt>
      <trkpt lat="43.31593" lon="5.68924">
        <ele>881.8</ele>
        <time>2022-03-09T13:53:41Z</time>
      </trkpt>
      <trkpt lat="43.31589" lon="5.68928">
        <ele>880.3</ele>
        <time>2022-03-09T13:54:21Z</time>
      </trkpt>
      <trkpt lat="43.31585" lon="5.6893">
        <ele>878.9</ele>
        <time>2022-03-09T13:54:33Z</time>
      </trkpt>
      <trkpt lat="43.3158" lon="5.68932">
        <ele>877.4</ele>
        <time>2022-03-09T13:54:38Z</time>
      </trkpt>
      <trkpt lat="43.31574" lon="5.68933">
        <ele>876</ele>
        <time>2022-03-09T13:54:43Z</time>
      </trkpt>
      <trkpt lat="43.31569" lon="5.68934">
        <ele>874.8</ele>
        <time>2022-03-09T13:54:49Z</time>
      </trkpt>
      <trkpt lat="43.31564" lon="5.68935">
        <ele>873.7</ele>
        <time>2022-03-09T13:54:55Z</time>
      </trkpt>
      <trkpt lat="43.3156" lon="5.68936">
        <ele>872.7</ele>
        <time>2022-03-09T13:55:00Z</time>
      </trkpt>
      <trkpt lat="43.31554" lon="5.68936">
        <ele>871.9</ele>
        <time>2022-03-09T13:55:05Z</time>
      </trkpt>
      <trkpt lat="43.3155" lon="5.68938">
        <ele>872</ele>
        <time>2022-03-09T13:55:12Z</time>
      </trkpt>
      <trkpt lat="43.31546" lon="5.68941">
        <ele>872</ele>
        <time>2022-03-09T13:55:19Z</time>
      </trkpt>
      <trkpt lat="43.31541" lon="5.68943">
        <ele>872.2</ele>
        <time>2022-03-09T13:55:23Z</time>
      </trkpt>
      <trkpt lat="43.31536" lon="5.68945">
        <ele>872.4</ele>
        <time>2022-03-09T13:55:27Z</time>
      </trkpt>
      <trkpt lat="43.3153" lon="5.68948">
        <ele>872.4</ele>
        <time>2022-03-09T13:55:30Z</time>
      </trkpt>
      <trkpt lat="43.31526" lon="5.68948">
        <ele>872.6</ele>
        <time>2022-03-09T13:55:33Z</time>
      </trkpt>
      <trkpt lat="43.31521" lon="5.68947">
        <ele>872.6</ele>
        <time>2022-03-09T13:55:39Z</time>
      </trkpt>
      <trkpt lat="43.31516" lon="5.68947">
        <ele>872.5</ele>
        <time>2022-03-09T13:56:14Z</time>
      </trkpt>
      <trkpt lat="43.31512" lon="5.68945">
        <ele>872.4</ele>
        <time>2022-03-09T13:56:57Z</time>
      </trkpt>
      <trkpt lat="43.31508" lon="5.68949">
        <ele>872.5</ele>
        <time>2022-03-09T13:58:00Z</time>
      </trkpt>
      <trkpt lat="43.31512" lon="5.68953">
        <ele>872.6</ele>
        <time>2022-03-09T13:58:55Z</time>
      </trkpt>
      <trkpt lat="43.31517" lon="5.68953">
        <ele>872.4</ele>
        <time>2022-03-09T13:59:13Z</time>
      </trkpt>
      <trkpt lat="43.3152" lon="5.68949">
        <ele>872.5</ele>
        <time>2022-03-09T13:59:21Z</time>
      </trkpt>
      <trkpt lat="43.31524" lon="5.68947">
        <ele>872.7</ele>
        <time>2022-03-09T13:59:28Z</time>
      </trkpt>
      <trkpt lat="43.31529" lon="5.68948">
        <ele>872.6</ele>
        <time>2022-03-09T13:59:35Z</time>
      </trkpt>
      <trkpt lat="43.31534" lon="5.68946">
        <ele>872.4</ele>
        <time>2022-03-09T13:59:41Z</time>
      </trkpt>
      <trkpt lat="43.31538" lon="5.68943">
        <ele>872.3</ele>
        <time>2022-03-09T13:59:45Z</time>
      </trkpt>
      <trkpt lat="43.31543" lon="5.68943">
        <ele>872</ele>
        <time>2022-03-09T13:59:51Z</time>
      </trkpt>
      <trkpt lat="43.31548" lon="5.68946">
        <ele>871.4</ele>
        <time>2022-03-09T13:59:58Z</time>
      </trkpt>
      <trkpt lat="43.31552" lon="5.68942">
        <ele>871.5</ele>
        <time>2022-03-09T14:00:04Z</time>
      </trkpt>
      <trkpt lat="43.31557" lon="5.68938">
        <ele>872</ele>
        <time>2022-03-09T14:00:07Z</time>
      </trkpt>
      <trkpt lat="43.31561" lon="5.68935">
        <ele>873.1</ele>
        <time>2022-03-09T14:00:11Z</time>
      </trkpt>
      <trkpt lat="43.31567" lon="5.68933">
        <ele>874.4</ele>
        <time>2022-03-09T14:00:15Z</time>
      </trkpt>
      <trkpt lat="43.31571" lon="5.68933">
        <ele>875.5</ele>
        <time>2022-03-09T14:00:19Z</time>
      </trkpt>
      <trkpt lat="43.31576" lon="5.68934">
        <ele>876.2</ele>
        <time>2022-03-09T14:00:23Z</time>
      </trkpt>
      <trkpt lat="43.31581" lon="5.68933">
        <ele>877.4</ele>
        <time>2022-03-09T14:00:31Z</time>
      </trkpt>
      <trkpt lat="43.31585" lon="5.68932">
        <ele>878.7</ele>
        <time>2022-03-09T14:00:40Z</time>
      </trkpt>
      <trkpt lat="43.31589" lon="5.68928">
        <ele>880.4</ele>
        <time>2022-03-09T14:00:58Z</time>
      </trkpt>
      <trkpt lat="43.31593" lon="5.68924">
        <ele>881.8</ele>
        <time>2022-03-09T14:01:09Z</time>
      </trkpt>
      <trkpt lat="43.31597" lon="5.68921">
        <ele>882.9</ele>
        <time>2022-03-09T14:01:23Z</time>
      </trkpt>
      <trkpt lat="43.316" lon="5.68916">
        <ele>883.8</ele>
        <time>2022-03-09T14:01:36Z</time>
      </trkpt>
      <trkpt lat="43.316" lon="5.6891">
        <ele>884.1</ele>
        <time>2022-03-09T14:01:46Z</time>
      </trkpt>
      <trkpt lat="43.31602" lon="5.68903">
        <ele>884.3</ele>
        <time>2022-03-09T14:01:59Z</time>
      </trkpt>
      <trkpt lat="43.31602" lon="5.68896">
        <ele>884.5</ele>
        <time>2022-03-09T14:02:15Z</time>
      </trkpt>
      <trkpt lat="43.31606" lon="5.68892">
        <ele>884</ele>
        <time>2022-03-09T14:02:21Z</time>
      </trkpt>
      <trkpt lat="43.31609" lon="5.68888">
        <ele>883.3</ele>
        <time>2022-03-09T14:02:27Z</time>
      </trkpt>
      <trkpt lat="43.31612" lon="5.68883">
        <ele>882.5</ele>
        <time>2022-03-09T14:02:35Z</time>
      </trkpt>
      <trkpt lat="43.31614" lon="5.68876">
        <ele>882</ele>
        <time>2022-03-09T14:02:41Z</time>
      </trkpt>
      <trkpt lat="43.31615" lon="5.6887">
        <ele>881.5</ele>
        <time>2022-03-09T14:02:49Z</time>
      </trkpt>
      <trkpt lat="43.31617" lon="5.68864">
        <ele>881</ele>
        <time>2022-03-09T14:02:54Z</time>
      </trkpt>
      <trkpt lat="43.31619" lon="5.68857">
        <ele>880.5</ele>
        <time>2022-03-09T14:02:59Z</time>
      </trkpt>
      <trkpt lat="43.31622" lon="5.68853">
        <ele>880</ele>
        <time>2022-03-09T14:03:03Z</time>
      </trkpt>
      <trkpt lat="43.31626" lon="5.68846">
        <ele>879.4</ele>
        <time>2022-03-09T14:03:07Z</time>
      </trkpt>
      <trkpt lat="43.31628" lon="5.6884">
        <ele>878.9</ele>
        <time>2022-03-09T14:03:11Z</time>
      </trkpt>
      <trkpt lat="43.31632" lon="5.68837">
        <ele>878.5</ele>
        <time>2022-03-09T14:03:15Z</time>
      </trkpt>
      <trkpt lat="43.31634" lon="5.68831">
        <ele>878</ele>
        <time>2022-03-09T14:03:24Z</time>
      </trkpt>
      <trkpt lat="43.31635" lon="5.68825">
        <ele>877.5</ele>
        <time>2022-03-09T14:03:28Z</time>
      </trkpt>
      <trkpt lat="43.31638" lon="5.68818">
        <ele>876.9</ele>
        <time>2022-03-09T14:03:32Z</time>
      </trkpt>
      <trkpt lat="43.3164" lon="5.6881">
        <ele>876.4</ele>
        <time>2022-03-09T14:03:36Z</time>
      </trkpt>
      <trkpt lat="43.31641" lon="5.68803">
        <ele>876.2</ele>
        <time>2022-03-09T14:03:41Z</time>
      </trkpt>
      <trkpt lat="43.31642" lon="5.68796">
        <ele>876.4</ele>
        <time>2022-03-09T14:03:45Z</time>
      </trkpt>
      <trkpt lat="43.31643" lon="5.68788">
        <ele>876.5</ele>
        <time>2022-03-09T14:03:49Z</time>
      </trkpt>
      <trkpt lat="43.31644" lon="5.68782">
        <ele>876.6</ele>
        <time>2022-03-09T14:03:53Z</time>
      </trkpt>
      <trkpt lat="43.31644" lon="5.68775">
        <ele>876.6</ele>
        <time>2022-03-09T14:03:58Z</time>
      </trkpt>
      <trkpt lat="43.31645" lon="5.68768">
        <ele>876.3</ele>
        <time>2022-03-09T14:04:05Z</time>
      </trkpt>
      <trkpt lat="43.31646" lon="5.68761">
        <ele>876.1</ele>
        <time>2022-03-09T14:04:11Z</time>
      </trkpt>
      <trkpt lat="43.31644" lon="5.68755">
        <ele>876.4</ele>
        <time>2022-03-09T14:04:16Z</time>
      </trkpt>
      <trkpt lat="43.31642" lon="5.68749">
        <ele>876.9</ele>
        <time>2022-03-09T14:04:20Z</time>
      </trkpt>
      <trkpt lat="43.3164" lon="5.68743">
        <ele>877.3</ele>
        <time>2022-03-09T14:04:25Z</time>
      </trkpt>
      <trkpt lat="43.31638" lon="5.68737">
        <ele>877.5</ele>
        <time>2022-03-09T14:04:32Z</time>
      </trkpt>
      <trkpt lat="43.31636" lon="5.68731">
        <ele>877.3</ele>
        <time>2022-03-09T14:04:39Z</time>
      </trkpt>
      <trkpt lat="43.31634" lon="5.68725">
        <ele>877.2</ele>
        <time>2022-03-09T14:04:45Z</time>
      </trkpt>
      <trkpt lat="43.31634" lon="5.68717">
        <ele>876.5</ele>
        <time>2022-03-09T14:04:51Z</time>
      </trkpt>
      <trkpt lat="43.31633" lon="5.68711">
        <ele>875.9</ele>
        <time>2022-03-09T14:04:56Z</time>
      </trkpt>
      <trkpt lat="43.31631" lon="5.68705">
        <ele>875.4</ele>
        <time>2022-03-09T14:05:01Z</time>
      </trkpt>
      <trkpt lat="43.3163" lon="5.68698">
        <ele>875</ele>
        <time>2022-03-09T14:05:06Z</time>
      </trkpt>
      <trkpt lat="43.31629" lon="5.68692">
        <ele>874.7</ele>
        <time>2022-03-09T14:05:14Z</time>
      </trkpt>
      <trkpt lat="43.31626" lon="5.68686">
        <ele>874.5</ele>
        <time>2022-03-09T14:05:21Z</time>
      </trkpt>
      <trkpt lat="43.31626" lon="5.68679">
        <ele>873.9</ele>
        <time>2022-03-09T14:05:27Z</time>
      </trkpt>
      <trkpt lat="43.31624" lon="5.68674">
        <ele>873.7</ele>
        <time>2022-03-09T14:05:45Z</time>
      </trkpt>
      <trkpt lat="43.31622" lon="5.68667">
        <ele>873.2</ele>
        <time>2022-03-09T14:05:52Z</time>
      </trkpt>
      <trkpt lat="43.31621" lon="5.68661">
        <ele>872.6</ele>
        <time>2022-03-09T14:05:59Z</time>
      </trkpt>
      <trkpt lat="43.31623" lon="5.68654">
        <ele>871.3</ele>
        <time>2022-03-09T14:06:03Z</time>
      </trkpt>
      <trkpt lat="43.31625" lon="5.68648">
        <ele>870.2</ele>
        <time>2022-03-09T14:06:07Z</time>
      </trkpt>
      <trkpt lat="43.31624" lon="5.68641">
        <ele>869.5</ele>
        <time>2022-03-09T14:06:13Z</time>
      </trkpt>
      <trkpt lat="43.31627" lon="5.68636">
        <ele>868.3</ele>
        <time>2022-03-09T14:06:20Z</time>
      </trkpt>
      <trkpt lat="43.31628" lon="5.6863">
        <ele>867.4</ele>
        <time>2022-03-09T14:06:30Z</time>
      </trkpt>
      <trkpt lat="43.3163" lon="5.68624">
        <ele>866.4</ele>
        <time>2022-03-09T14:06:38Z</time>
      </trkpt>
      <trkpt lat="43.31632" lon="5.68618">
        <ele>865.4</ele>
        <time>2022-03-09T14:06:46Z</time>
      </trkpt>
      <trkpt lat="43.31634" lon="5.68612">
        <ele>864.6</ele>
        <time>2022-03-09T14:06:52Z</time>
      </trkpt>
      <trkpt lat="43.31633" lon="5.68605">
        <ele>864.4</ele>
        <time>2022-03-09T14:07:04Z</time>
      </trkpt>
      <trkpt lat="43.31633" lon="5.68599">
        <ele>864.2</ele>
        <time>2022-03-09T14:07:34Z</time>
      </trkpt>
      <trkpt lat="43.31636" lon="5.68594">
        <ele>864</ele>
        <time>2022-03-09T14:07:46Z</time>
      </trkpt>
      <trkpt lat="43.31635" lon="5.686">
        <ele>864.2</ele>
        <time>2022-03-09T14:08:06Z</time>
      </trkpt>
      <trkpt lat="43.31632" lon="5.68605">
        <ele>864.5</ele>
        <time>2022-03-09T14:08:16Z</time>
      </trkpt>
      <trkpt lat="43.31633" lon="5.68599">
        <ele>864.2</ele>
        <time>2022-03-09T14:10:38Z</time>
      </trkpt>
      <trkpt lat="43.31638" lon="5.686">
        <ele>864.1</ele>
        <time>2022-03-09T14:10:59Z</time>
      </trkpt>
      <trkpt lat="43.31635" lon="5.68595">
        <ele>864</ele>
        <time>2022-03-09T14:12:11Z</time>
      </trkpt>
      <trkpt lat="43.31638" lon="5.68588">
        <ele>863.9</ele>
        <time>2022-03-09T14:12:22Z</time>
      </trkpt>
      <trkpt lat="43.31641" lon="5.68582">
        <ele>863.8</ele>
        <time>2022-03-09T14:12:28Z</time>
      </trkpt>
      <trkpt lat="43.3164" lon="5.68576">
        <ele>864.6</ele>
        <time>2022-03-09T14:12:34Z</time>
      </trkpt>
      <trkpt lat="43.3164" lon="5.6857">
        <ele>865.4</ele>
        <time>2022-03-09T14:12:40Z</time>
      </trkpt>
      <trkpt lat="43.3164" lon="5.68564">
        <ele>866.1</ele>
        <time>2022-03-09T14:12:46Z</time>
      </trkpt>
      <trkpt lat="43.31642" lon="5.68557">
        <ele>866.9</ele>
        <time>2022-03-09T14:12:51Z</time>
      </trkpt>
      <trkpt lat="43.31646" lon="5.68553">
        <ele>867.4</ele>
        <time>2022-03-09T14:12:57Z</time>
      </trkpt>
      <trkpt lat="43.31648" lon="5.68547">
        <ele>867.7</ele>
        <time>2022-03-09T14:13:06Z</time>
      </trkpt>
      <trkpt lat="43.31652" lon="5.68543">
        <ele>867.9</ele>
        <time>2022-03-09T14:13:12Z</time>
      </trkpt>
      <trkpt lat="43.31653" lon="5.68536">
        <ele>868.2</ele>
        <time>2022-03-09T14:13:18Z</time>
      </trkpt>
      <trkpt lat="43.31653" lon="5.68528">
        <ele>868.5</ele>
        <time>2022-03-09T14:13:23Z</time>
      </trkpt>
      <trkpt lat="43.31654" lon="5.68522">
        <ele>868.2</ele>
        <time>2022-03-09T14:13:31Z</time>
      </trkpt>
      <trkpt lat="43.31658" lon="5.68518">
        <ele>868.3</ele>
        <time>2022-03-09T14:13:39Z</time>
      </trkpt>
      <trkpt lat="43.3166" lon="5.68512">
        <ele>868</ele>
        <time>2022-03-09T14:13:45Z</time>
      </trkpt>
      <trkpt lat="43.31659" lon="5.68505">
        <ele>867.7</ele>
        <time>2022-03-09T14:13:51Z</time>
      </trkpt>
      <trkpt lat="43.31658" lon="5.68499">
        <ele>867.3</ele>
        <time>2022-03-09T14:13:57Z</time>
      </trkpt>
      <trkpt lat="43.31657" lon="5.68492">
        <ele>866.6</ele>
        <time>2022-03-09T14:14:06Z</time>
      </trkpt>
      <trkpt lat="43.31657" lon="5.68485">
        <ele>865.9</ele>
        <time>2022-03-09T14:14:15Z</time>
      </trkpt>
      <trkpt lat="43.31659" lon="5.68479">
        <ele>865.5</ele>
        <time>2022-03-09T14:14:20Z</time>
      </trkpt>
      <trkpt lat="43.3166" lon="5.68473">
        <ele>865.2</ele>
        <time>2022-03-09T14:14:24Z</time>
      </trkpt>
      <trkpt lat="43.31661" lon="5.68467">
        <ele>865.6</ele>
        <time>2022-03-09T14:14:28Z</time>
      </trkpt>
      <trkpt lat="43.31662" lon="5.6846">
        <ele>865.6</ele>
        <time>2022-03-09T14:14:33Z</time>
      </trkpt>
      <trkpt lat="43.3166" lon="5.68454">
        <ele>865.1</ele>
        <time>2022-03-09T14:14:40Z</time>
      </trkpt>
      <trkpt lat="43.31653" lon="5.68435">
        <ele>862.5</ele>
        <time>2022-03-09T14:15:02Z</time>
      </trkpt>
      <trkpt lat="43.31653" lon="5.68428">
        <ele>862.7</ele>
        <time>2022-03-09T14:15:09Z</time>
      </trkpt>
      <trkpt lat="43.31652" lon="5.68422">
        <ele>862.2</ele>
        <time>2022-03-09T14:15:16Z</time>
      </trkpt>
      <trkpt lat="43.3165" lon="5.68416">
        <ele>861.7</ele>
        <time>2022-03-09T14:15:24Z</time>
      </trkpt>
      <trkpt lat="43.3165" lon="5.68409">
        <ele>861.1</ele>
        <time>2022-03-09T14:15:28Z</time>
      </trkpt>
      <trkpt lat="43.31652" lon="5.68403">
        <ele>860.7</ele>
        <time>2022-03-09T14:15:32Z</time>
      </trkpt>
      <trkpt lat="43.31655" lon="5.68398">
        <ele>860.4</ele>
        <time>2022-03-09T14:15:40Z</time>
      </trkpt>
      <trkpt lat="43.31657" lon="5.68392">
        <ele>859.8</ele>
        <time>2022-03-09T14:15:47Z</time>
      </trkpt>
      <trkpt lat="43.3166" lon="5.68387">
        <ele>859.1</ele>
        <time>2022-03-09T14:15:54Z</time>
      </trkpt>
      <trkpt lat="43.31664" lon="5.68383">
        <ele>858.1</ele>
        <time>2022-03-09T14:15:59Z</time>
      </trkpt>
      <trkpt lat="43.31669" lon="5.68381">
        <ele>857.2</ele>
        <time>2022-03-09T14:16:05Z</time>
      </trkpt>
      <trkpt lat="43.31674" lon="5.6838">
        <ele>855.9</ele>
        <time>2022-03-09T14:16:10Z</time>
      </trkpt>
      <trkpt lat="43.31678" lon="5.6838">
        <ele>854.9</ele>
        <time>2022-03-09T14:16:17Z</time>
      </trkpt>
      <trkpt lat="43.31683" lon="5.68381">
        <ele>854.2</ele>
        <time>2022-03-09T14:16:21Z</time>
      </trkpt>
      <trkpt lat="43.31687" lon="5.68382">
        <ele>853.6</ele>
        <time>2022-03-09T14:16:29Z</time>
      </trkpt>
      <trkpt lat="43.31691" lon="5.68378">
        <ele>851.7</ele>
        <time>2022-03-01T13:00:00Z</time>
      </trkpt>
      <trkpt lat="43.31696" lon="5.68377">
        <ele>850.3</ele>
        <time>2022-03-09T14:16:59Z</time>
      </trkpt>
      <trkpt lat="43.31701" lon="5.68376">
        <ele>848.9</ele>
        <time>2022-03-09T14:17:05Z</time>
      </trkpt>
      <trkpt lat="43.31706" lon="5.68376">
        <ele>847.8</ele>
        <time>2022-03-09T14:17:17Z</time>
      </trkpt>
      <trkpt lat="43.3171" lon="5.68377">
        <ele>847.4</ele>
        <time>2022-03-09T14:17:21Z</time>
      </trkpt>
      <trkpt lat="43.31715" lon="5.6838">
        <ele>847.3</ele>
        <time>2022-03-09T14:17:25Z</time>
      </trkpt>
      <trkpt lat="43.3172" lon="5.68383">
        <ele>847.2</ele>
        <time>2022-03-09T14:17:29Z</time>
      </trkpt>
      <trkpt lat="43.31725" lon="5.68381">
        <ele>845.7</ele>
        <time>2022-03-09T14:17:35Z</time>
      </trkpt>
      <trkpt lat="43.3173" lon="5.6838">
        <ele>844.8</ele>
        <time>2022-03-09T14:17:41Z</time>
      </trkpt>
      <trkpt lat="43.31734" lon="5.68378">
        <ele>843.3</ele>
        <time>2022-03-09T14:17:48Z</time>
      </trkpt>
      <trkpt lat="43.31739" lon="5.68376">
        <ele>841.8</ele>
        <time>2022-03-09T14:18:27Z</time>
      </trkpt>
      <trkpt lat="43.31743" lon="5.68374">
        <ele>840.1</ele>
        <time>2022-03-09T14:18:39Z</time>
      </trkpt>
      <trkpt lat="43.31748" lon="5.68377">
        <ele>840.6</ele>
        <time>2022-03-09T14:18:47Z</time>
      </trkpt>
      <trkpt lat="43.31752" lon="5.6838">
        <ele>841.7</ele>
        <time>2022-03-09T14:18:52Z</time>
      </trkpt>
      <trkpt lat="43.31756" lon="5.68384">
        <ele>844</ele>
        <time>2022-03-09T14:19:06Z</time>
      </trkpt>
      <trkpt lat="43.3176" lon="5.68388">
        <ele>845.8</ele>
        <time>2022-03-09T14:19:26Z</time>
      </trkpt>
      <trkpt lat="43.31766" lon="5.68388">
        <ele>846</ele>
        <time>2022-03-09T14:19:31Z</time>
      </trkpt>
      <trkpt lat="43.31771" lon="5.68385">
        <ele>844.6</ele>
        <time>2022-03-09T14:19:36Z</time>
      </trkpt>
      <trkpt lat="43.31775" lon="5.68382">
        <ele>843</ele>
        <time>2022-03-09T14:19:41Z</time>
      </trkpt>
      <trkpt lat="43.31781" lon="5.68379">
        <ele>842.8</ele>
        <time>2022-03-09T14:19:49Z</time>
      </trkpt>
      <trkpt lat="43.31783" lon="5.68374">
        <ele>841</ele>
        <time>2022-03-09T14:20:02Z</time>
      </trkpt>
      <trkpt lat="43.31783" lon="5.68368">
        <ele>837.6</ele>
        <time>2022-03-09T14:20:16Z</time>
      </trkpt>
      <trkpt lat="43.31787" lon="5.68364">
        <ele>836.8</ele>
        <time>2022-03-09T14:20:33Z</time>
      </trkpt>
      <trkpt lat="43.3179" lon="5.68359">
        <ele>836</ele>
        <time>2022-03-09T14:20:40Z</time>
      </trkpt>
      <trkpt lat="43.31794" lon="5.68355">
        <ele>836.5</ele>
        <time>2022-03-09T14:20:44Z</time>
      </trkpt>
      <trkpt lat="43.31797" lon="5.6835">
        <ele>836.3</ele>
        <time>2022-03-09T14:20:48Z</time>
      </trkpt>
      <trkpt lat="43.318" lon="5.68346">
        <ele>836.2</ele>
        <time>2022-03-09T14:20:54Z</time>
      </trkpt>
      <trkpt lat="43.31803" lon="5.68339">
        <ele>835.6</ele>
        <time>2022-03-09T14:21:00Z</time>
      </trkpt>
      <trkpt lat="43.31806" lon="5.68333">
        <ele>835.1</ele>
        <time>2022-03-09T14:21:06Z</time>
      </trkpt>
      <trkpt lat="43.31806" lon="5.68327">
        <ele>833.9</ele>
        <time>2022-03-09T14:21:10Z</time>
      </trkpt>
      <trkpt lat="43.31806" lon="5.68319">
        <ele>832</ele>
        <time>2022-03-09T14:21:16Z</time>
      </trkpt>
      <trkpt lat="43.31805" lon="5.68313">
        <ele>829.6</ele>
        <time>2022-03-09T14:21:20Z</time>
      </trkpt>
      <trkpt lat="43.31804" lon="5.68306">
        <ele>827.1</ele>
        <time>2022-03-09T14:21:25Z</time>
      </trkpt>
      <trkpt lat="43.31806" lon="5.683">
        <ele>826.5</ele>
        <time>2022-03-09T14:21:35Z</time>
      </trkpt>
      <trkpt lat="43.31809" lon="5.68295">
        <ele>827</ele>
        <time>2022-03-09T14:21:41Z</time>
      </trkpt>
      <trkpt lat="43.31813" lon="5.6829">
        <ele>827.5</ele>
        <time>2022-03-09T14:22:03Z</time>
      </trkpt>
      <trkpt lat="43.31816" lon="5.68283">
        <ele>827</ele>
        <time>2022-03-09T14:22:08Z</time>
      </trkpt>
      <trkpt lat="43.3182" lon="5.68278">
        <ele>827</ele>
        <time>2022-03-09T14:22:13Z</time>
      </trkpt>
      <trkpt lat="43.31823" lon="5.68271">
        <ele>827</ele>
        <time>2022-03-09T14:22:17Z</time>
      </trkpt>
      <trkpt lat="43.31826" lon="5.68265">
        <ele>826.9</ele>
        <time>2022-03-09T14:22:21Z</time>
      </trkpt>
      <trkpt lat="43.31829" lon="5.6826">
        <ele>827.3</ele>
        <time>2022-03-09T14:22:27Z</time>
      </trkpt>
      <trkpt lat="43.31831" lon="5.68254">
        <ele>826.9</ele>
        <time>2022-03-09T14:22:35Z</time>
      </trkpt>
      <trkpt lat="43.31833" lon="5.68248">
        <ele>826.2</ele>
        <time>2022-03-09T14:22:43Z</time>
      </trkpt>
      <trkpt lat="43.31835" lon="5.68242">
        <ele>827</ele>
        <time>2022-03-09T14:22:49Z</time>
      </trkpt>
      <trkpt lat="43.31838" lon="5.68235">
        <ele>828.1</ele>
        <time>2022-03-09T14:22:54Z</time>
      </trkpt>
      <trkpt lat="43.31839" lon="5.68229">
        <ele>828</ele>
        <time>2022-03-09T14:22:59Z</time>
      </trkpt>
      <trkpt lat="43.31839" lon="5.68222">
        <ele>826.9</ele>
        <time>2022-03-09T14:23:02Z</time>
      </trkpt>
      <trkpt lat="43.31841" lon="5.68215">
        <ele>827.4</ele>
        <time>2022-03-09T14:23:04Z</time>
      </trkpt>
      <trkpt lat="43.31843" lon="5.68209">
        <ele>827.7</ele>
        <time>2022-03-09T14:23:06Z</time>
      </trkpt>
      <trkpt lat="43.31843" lon="5.68202">
        <ele>826.8</ele>
        <time>2022-03-09T14:23:10Z</time>
      </trkpt>
      <trkpt lat="43.31843" lon="5.68195">
        <ele>826</ele>
        <time>2022-03-09T14:23:15Z</time>
      </trkpt>
      <trkpt lat="43.31844" lon="5.68188">
        <ele>825.6</ele>
        <time>2022-03-09T14:23:21Z</time>
      </trkpt>
      <trkpt lat="43.31842" lon="5.68181">
        <ele>823.9</ele>
        <time>2022-03-09T14:23:25Z</time>
      </trkpt>
      <trkpt lat="43.3184" lon="5.68175">
        <ele>821.5</ele>
        <time>2022-03-09T14:23:28Z</time>
      </trkpt>
      <trkpt lat="43.31838" lon="5.68169">
        <ele>819.1</ele>
        <time>2022-03-09T14:23:32Z</time>
      </trkpt>
      <trkpt lat="43.3184" lon="5.68163">
        <ele>819.9</ele>
        <time>2022-03-09T14:23:40Z</time>
      </trkpt>
      <trkpt lat="43.3184" lon="5.68156">
        <ele>818.9</ele>
        <time>2022-03-09T14:23:48Z</time>
      </trkpt>
      <trkpt lat="43.31842" lon="5.68151">
        <ele>820</ele>
        <time>2022-03-09T14:23:53Z</time>
      </trkpt>
      <trkpt lat="43.31844" lon="5.68143">
        <ele>820.9</ele>
        <time>2022-03-09T14:23:58Z</time>
      </trkpt>
      <trkpt lat="43.31845" lon="5.68137">
        <ele>820.6</ele>
        <time>2022-03-09T14:24:04Z</time>
      </trkpt>
      <trkpt lat="43.31846" lon="5.6813">
        <ele>820.3</ele>
        <time>2022-03-09T14:24:09Z</time>
      </trkpt>
      <trkpt lat="43.31848" lon="5.68125">
        <ele>821.7</ele>
        <time>2022-03-09T14:24:15Z</time>
      </trkpt>
      <trkpt lat="43.31848" lon="5.68118">
        <ele>820.1</ele>
        <time>2022-03-09T14:24:22Z</time>
      </trkpt>
      <trkpt lat="43.31847" lon="5.68112">
        <ele>817.9</ele>
        <time>2022-03-09T14:24:31Z</time>
      </trkpt>
      <trkpt lat="43.3185" lon="5.68106">
        <ele>818.7</ele>
        <time>2022-03-09T14:24:38Z</time>
      </trkpt>
      <trkpt lat="43.31852" lon="5.68099">
        <ele>819.2</ele>
        <time>2022-03-09T14:24:44Z</time>
      </trkpt>
      <trkpt lat="43.31852" lon="5.68093">
        <ele>818.2</ele>
        <time>2022-03-09T14:24:51Z</time>
      </trkpt>
      <trkpt lat="43.31853" lon="5.68087">
        <ele>817.2</ele>
        <time>2022-03-09T14:24:57Z</time>
      </trkpt>
      <trkpt lat="43.31852" lon="5.6808">
        <ele>815.2</ele>
        <time>2022-03-09T14:25:04Z</time>
      </trkpt>
      <trkpt lat="43.31852" lon="5.68073">
        <ele>814</ele>
        <time>2022-03-09T14:25:10Z</time>
      </trkpt>
      <trkpt lat="43.31852" lon="5.68066">
        <ele>813</ele>
        <time>2022-03-09T14:25:16Z</time>
      </trkpt>
      <trkpt lat="43.31851" lon="5.68059">
        <ele>811.4</ele>
        <time>2022-03-09T14:25:22Z</time>
      </trkpt>
      <trkpt lat="43.31851" lon="5.68052">
        <ele>810.9</ele>
        <time>2022-03-09T14:25:26Z</time>
      </trkpt>
      <trkpt lat="43.31852" lon="5.68046">
        <ele>811.2</ele>
        <time>2022-03-09T14:25:31Z</time>
      </trkpt>
      <trkpt lat="43.31852" lon="5.68039">
        <ele>810.8</ele>
        <time>2022-03-09T14:25:39Z</time>
      </trkpt>
      <trkpt lat="43.31849" lon="5.68032">
        <ele>809</ele>
        <time>2022-03-09T14:25:46Z</time>
      </trkpt>
      <trkpt lat="43.31848" lon="5.68027">
        <ele>807.9</ele>
        <time>2022-03-09T14:25:52Z</time>
      </trkpt>
      <trkpt lat="43.31844" lon="5.68021">
        <ele>805.9</ele>
        <time>2022-03-09T14:25:56Z</time>
      </trkpt>
      <trkpt lat="43.31843" lon="5.68015">
        <ele>806</ele>
        <time>2022-03-09T14:26:00Z</time>
      </trkpt>
      <trkpt lat="43.31842" lon="5.68009">
        <ele>805.5</ele>
        <time>2022-03-09T14:26:06Z</time>
      </trkpt>
      <trkpt lat="43.3184" lon="5.68002">
        <ele>804.9</ele>
        <time>2022-03-09T14:26:11Z</time>
      </trkpt>
      <trkpt lat="43.31838" lon="5.67996">
        <ele>804.1</ele>
        <time>2022-03-09T14:26:17Z</time>
      </trkpt>
      <trkpt lat="43.31838" lon="5.67989">
        <ele>804.2</ele>
        <time>2022-03-09T14:26:21Z</time>
      </trkpt>
      <trkpt lat="43.31837" lon="5.67983">
        <ele>804.2</ele>
        <time>2022-03-09T14:26:26Z</time>
      </trkpt>
      <trkpt lat="43.31837" lon="5.67977">
        <ele>804.8</ele>
        <time>2022-03-01T11:57:00Z</time>
      </trkpt>
      <trkpt lat="43.31836" lon="5.6797">
        <ele>804.8</ele>
        <time>2022-03-09T14:26:35Z</time>
      </trkpt>
      <trkpt lat="43.31834" lon="5.67952">
        <ele>804.1</ele>
        <time>2022-03-09T14:26:53Z</time>
      </trkpt>
      <trkpt lat="43.31833" lon="5.67946">
        <ele>803.7</ele>
        <time>2022-03-09T14:26:58Z</time>
      </trkpt>
      <trkpt lat="43.31829" lon="5.67942">
        <ele>801.3</ele>
        <time>2022-03-09T14:27:07Z</time>
      </trkpt>
      <trkpt lat="43.31826" lon="5.67937">
        <ele>799.9</ele>
        <time>2022-03-09T14:27:13Z</time>
      </trkpt>
      <trkpt lat="43.31825" lon="5.67931">
        <ele>799.6</ele>
        <time>2022-03-09T14:27:20Z</time>
      </trkpt>
      <trkpt lat="43.31825" lon="5.67924">
        <ele>800.1</ele>
        <time>2022-03-09T14:27:26Z</time>
      </trkpt>
      <trkpt lat="43.31824" lon="5.67917">
        <ele>799.9</ele>
        <time>2022-03-09T14:27:31Z</time>
      </trkpt>
      <trkpt lat="43.31821" lon="5.67911">
        <ele>800</ele>
        <time>2022-03-09T14:27:36Z</time>
      </trkpt>
      <trkpt lat="43.31819" lon="5.67905">
        <ele>800.1</ele>
        <time>2022-03-09T14:27:41Z</time>
      </trkpt>
      <trkpt lat="43.31817" lon="5.679">
        <ele>799.8</ele>
        <time>2022-03-09T14:27:45Z</time>
      </trkpt>
      <trkpt lat="43.31815" lon="5.67894">
        <ele>800</ele>
        <time>2022-03-09T14:27:50Z</time>
      </trkpt>
      <trkpt lat="43.3181" lon="5.67891">
        <ele>798.2</ele>
        <time>2022-03-09T14:27:56Z</time>
      </trkpt>
      <trkpt lat="43.31806" lon="5.67889">
        <ele>796</ele>
        <time>2022-03-09T14:28:03Z</time>
      </trkpt>
      <trkpt lat="43.31801" lon="5.67886">
        <ele>794.4</ele>
        <time>2022-03-09T14:28:09Z</time>
      </trkpt>
      <trkpt lat="43.31798" lon="5.67881">
        <ele>794</ele>
        <time>2022-03-09T14:28:15Z</time>
      </trkpt>
      <trkpt lat="43.31795" lon="5.67875">
        <ele>794.2</ele>
        <time>2022-03-09T14:28:21Z</time>
      </trkpt>
      <trkpt lat="43.31792" lon="5.67872">
        <ele>793.1</ele>
        <time>2022-03-09T14:30:25Z</time>
      </trkpt>
      <trkpt lat="43.31788" lon="5.67867">
        <ele>792.2</ele>
        <time>2022-03-09T14:30:31Z</time>
      </trkpt>
      <trkpt lat="43.31785" lon="5.67862">
        <ele>792.1</ele>
        <time>2022-03-09T14:30:40Z</time>
      </trkpt>
      <trkpt lat="43.31783" lon="5.67856">
        <ele>791.9</ele>
        <time>2022-03-09T14:30:50Z</time>
      </trkpt>
      <trkpt lat="43.3178" lon="5.67851">
        <ele>791.5</ele>
        <time>2022-03-09T14:30:54Z</time>
      </trkpt>
      <trkpt lat="43.31777" lon="5.67847">
        <ele>790.4</ele>
        <time>2022-03-09T14:30:58Z</time>
      </trkpt>
      <trkpt lat="43.31775" lon="5.6784">
        <ele>790.7</ele>
        <time>2022-03-09T14:31:04Z</time>
      </trkpt>
      <trkpt lat="43.31773" lon="5.67835">
        <ele>790.8</ele>
        <time>2022-03-09T14:31:10Z</time>
      </trkpt>
      <trkpt lat="43.3177" lon="5.67828">
        <ele>790.4</ele>
        <time>2022-03-09T14:31:16Z</time>
      </trkpt>
      <trkpt lat="43.31768" lon="5.67822">
        <ele>789.8</ele>
        <time>2022-03-09T14:31:21Z</time>
      </trkpt>
      <trkpt lat="43.31766" lon="5.67816">
        <ele>789.3</ele>
        <time>2022-03-09T14:31:26Z</time>
      </trkpt>
      <trkpt lat="43.31764" lon="5.67811">
        <ele>788.7</ele>
        <time>2022-03-09T14:31:32Z</time>
      </trkpt>
      <trkpt lat="43.31763" lon="5.67805">
        <ele>789.2</ele>
        <time>2022-03-09T14:31:39Z</time>
      </trkpt>
      <trkpt lat="43.31761" lon="5.67799">
        <ele>788.3</ele>
        <time>2022-03-09T14:31:43Z</time>
      </trkpt>
      <trkpt lat="43.31759" lon="5.67793">
        <ele>787.2</ele>
        <time>2022-03-09T14:31:49Z</time>
      </trkpt>
      <trkpt lat="43.31756" lon="5.67787">
        <ele>786</ele>
        <time>2022-03-09T14:31:54Z</time>
      </trkpt>
      <trkpt lat="43.31753" lon="5.67782">
        <ele>784.6</ele>
        <time>2022-03-09T14:32:00Z</time>
      </trkpt>
      <trkpt lat="43.3175" lon="5.67777">
        <ele>783.3</ele>
        <time>2022-03-09T14:32:06Z</time>
      </trkpt>
      <trkpt lat="43.31748" lon="5.67771">
        <ele>782</ele>
        <time>2022-03-09T14:32:13Z</time>
      </trkpt>
      <trkpt lat="43.31746" lon="5.67764">
        <ele>781</ele>
        <time>2022-03-09T14:32:20Z</time>
      </trkpt>
      <trkpt lat="43.31745" lon="5.67757">
        <ele>780.7</ele>
        <time>2022-03-09T14:32:24Z</time>
      </trkpt>
      <trkpt lat="43.31746" lon="5.6775">
        <ele>780.9</ele>
        <time>2022-03-09T14:32:29Z</time>
      </trkpt>
      <trkpt lat="43.31747" lon="5.67743">
        <ele>780.4</ele>
        <time>2022-03-09T14:32:35Z</time>
      </trkpt>
      <trkpt lat="43.31747" lon="5.67737">
        <ele>780.1</ele>
        <time>2022-03-09T14:32:39Z</time>
      </trkpt>
      <trkpt lat="43.31746" lon="5.6773">
        <ele>779</ele>
        <time>2022-03-09T14:32:44Z</time>
      </trkpt>
      <trkpt lat="43.31748" lon="5.67723">
        <ele>778.8</ele>
        <time>2022-03-09T14:32:50Z</time>
      </trkpt>
      <trkpt lat="43.31747" lon="5.67716">
        <ele>778.7</ele>
        <time>2022-03-09T14:32:55Z</time>
      </trkpt>
      <trkpt lat="43.31747" lon="5.67709">
        <ele>779</ele>
        <time>2022-03-09T14:33:01Z</time>
      </trkpt>
      <trkpt lat="43.31745" lon="5.67703">
        <ele>778.7</ele>
        <time>2022-03-09T14:33:07Z</time>
      </trkpt>
      <trkpt lat="43.31744" lon="5.67696">
        <ele>778.4</ele>
        <time>2022-03-09T14:33:12Z</time>
      </trkpt>
      <trkpt lat="43.31743" lon="5.6769">
        <ele>777.7</ele>
        <time>2022-03-09T14:33:17Z</time>
      </trkpt>
      <trkpt lat="43.31741" lon="5.67683">
        <ele>777</ele>
        <time>2022-03-09T14:33:22Z</time>
      </trkpt>
      <trkpt lat="43.31738" lon="5.67677">
        <ele>776</ele>
        <time>2022-03-09T14:33:28Z</time>
      </trkpt>
      <trkpt lat="43.31738" lon="5.6767">
        <ele>776.1</ele>
        <time>2022-03-09T14:33:32Z</time>
      </trkpt>
      <trkpt lat="43.31737" lon="5.67663">
        <ele>776.2</ele>
        <time>2022-03-09T14:33:36Z</time>
      </trkpt>
      <trkpt lat="43.31734" lon="5.67657">
        <ele>775.7</ele>
        <time>2022-03-09T14:33:41Z</time>
      </trkpt>
      <trkpt lat="43.31732" lon="5.67651">
        <ele>775.2</ele>
        <time>2022-03-09T14:33:46Z</time>
      </trkpt>
      <trkpt lat="43.31732" lon="5.67645">
        <ele>776.2</ele>
        <time>2022-03-09T14:33:53Z</time>
      </trkpt>
      <trkpt lat="43.31729" lon="5.67639">
        <ele>775.5</ele>
        <time>2022-03-09T14:34:00Z</time>
      </trkpt>
      <trkpt lat="43.3173" lon="5.67633">
        <ele>775.3</ele>
        <time>2022-03-09T14:34:05Z</time>
      </trkpt>
      <trkpt lat="43.3173" lon="5.67626">
        <ele>774.9</ele>
        <time>2022-03-09T14:34:10Z</time>
      </trkpt>
      <trkpt lat="43.31731" lon="5.6762">
        <ele>775.4</ele>
        <time>2022-03-09T14:34:14Z</time>
      </trkpt>
      <trkpt lat="43.31733" lon="5.67613">
        <ele>775.7</ele>
        <time>2022-03-09T14:34:21Z</time>
      </trkpt>
      <trkpt lat="43.31732" lon="5.67606">
        <ele>774.7</ele>
        <time>2022-03-09T14:34:27Z</time>
      </trkpt>
      <trkpt lat="43.31733" lon="5.67599">
        <ele>774.7</ele>
        <time>2022-03-09T14:34:32Z</time>
      </trkpt>
      <trkpt lat="43.31733" lon="5.67592">
        <ele>773.9</ele>
        <time>2022-03-09T14:34:38Z</time>
      </trkpt>
      <trkpt lat="43.31735" lon="5.67586">
        <ele>774</ele>
        <time>2022-03-09T14:34:43Z</time>
      </trkpt>
      <trkpt lat="43.31735" lon="5.6758">
        <ele>774.1</ele>
        <time>2022-03-09T14:34:49Z</time>
      </trkpt>
      <trkpt lat="43.31737" lon="5.67574">
        <ele>775.3</ele>
        <time>2022-03-09T14:34:54Z</time>
      </trkpt>
      <trkpt lat="43.31739" lon="5.67567">
        <ele>776.2</ele>
        <time>2022-03-09T14:34:59Z</time>
      </trkpt>
      <trkpt lat="43.3174" lon="5.6756">
        <ele>776.5</ele>
        <time>2022-03-09T14:35:04Z</time>
      </trkpt>
      <trkpt lat="43.31737" lon="5.67555">
        <ele>775.3</ele>
        <time>2022-03-09T14:35:07Z</time>
      </trkpt>
      <trkpt lat="43.31733" lon="5.67551">
        <ele>774.4</ele>
        <time>2022-03-09T14:35:10Z</time>
      </trkpt>
      <trkpt lat="43.31729" lon="5.67547">
        <ele>773.7</ele>
        <time>2022-03-09T14:35:15Z</time>
      </trkpt>
      <trkpt lat="43.31726" lon="5.67542">
        <ele>773.4</ele>
        <time>2022-03-09T14:35:20Z</time>
      </trkpt>
      <trkpt lat="43.31723" lon="5.67537">
        <ele>773</ele>
        <time>2022-03-09T14:35:25Z</time>
      </trkpt>
      <trkpt lat="43.31718" lon="5.67532">
        <ele>772.4</ele>
        <time>2022-03-09T14:35:30Z</time>
      </trkpt>
      <trkpt lat="43.31713" lon="5.6753">
        <ele>771.5</ele>
        <time>2022-03-09T14:35:32Z</time>
      </trkpt>
      <trkpt lat="43.31709" lon="5.67527">
        <ele>770.9</ele>
        <time>2022-03-09T14:35:36Z</time>
      </trkpt>
      <trkpt lat="43.31706" lon="5.67521">
        <ele>771.8</ele>
        <time>2022-03-09T14:35:43Z</time>
      </trkpt>
      <trkpt lat="43.31704" lon="5.67515">
        <ele>773</ele>
        <time>2022-03-09T14:35:49Z</time>
      </trkpt>
      <trkpt lat="43.31702" lon="5.6751">
        <ele>774</ele>
        <time>2022-03-09T14:35:54Z</time>
      </trkpt>
      <trkpt lat="43.31698" lon="5.67504">
        <ele>774.8</ele>
        <time>2022-03-09T14:36:00Z</time>
      </trkpt>
      <trkpt lat="43.31696" lon="5.67499">
        <ele>775.7</ele>
        <time>2022-03-09T14:36:06Z</time>
      </trkpt>
      <trkpt lat="43.31694" lon="5.67493">
        <ele>776</ele>
        <time>2022-03-09T14:36:12Z</time>
      </trkpt>
      <trkpt lat="43.31691" lon="5.67487">
        <ele>776</ele>
        <time>2022-03-09T14:36:17Z</time>
      </trkpt>
      <trkpt lat="43.31688" lon="5.67482">
        <ele>776</ele>
        <time>2022-03-09T14:36:21Z</time>
      </trkpt>
      <trkpt lat="43.31686" lon="5.67476">
        <ele>776.5</ele>
        <time>2022-03-09T14:36:25Z</time>
      </trkpt>
      <trkpt lat="43.31683" lon="5.6747">
        <ele>776.6</ele>
        <time>2022-03-09T14:36:30Z</time>
      </trkpt>
      <trkpt lat="43.31679" lon="5.67465">
        <ele>776.3</ele>
        <time>2022-03-09T14:36:36Z</time>
      </trkpt>
      <trkpt lat="43.31676" lon="5.6746">
        <ele>776.1</ele>
        <time>2022-03-09T14:36:42Z</time>
      </trkpt>
      <trkpt lat="43.31673" lon="5.67456">
        <ele>776.1</ele>
        <time>2022-03-09T14:36:47Z</time>
      </trkpt>
      <trkpt lat="43.3167" lon="5.6745">
        <ele>776.6</ele>
        <time>2022-03-09T14:36:54Z</time>
      </trkpt>
      <trkpt lat="43.31667" lon="5.67445">
        <ele>777.1</ele>
        <time>2022-03-09T14:37:01Z</time>
      </trkpt>
      <trkpt lat="43.31667" lon="5.67439">
        <ele>777</ele>
        <time>2022-03-09T14:37:07Z</time>
      </trkpt>
      <trkpt lat="43.3167" lon="5.67434">
        <ele>777.8</ele>
        <time>2022-03-09T14:37:15Z</time>
      </trkpt>
      <trkpt lat="43.31672" lon="5.67428">
        <ele>778.2</ele>
        <time>2022-03-09T14:37:19Z</time>
      </trkpt>
      <trkpt lat="43.31672" lon="5.67422">
        <ele>778.2</ele>
        <time>2022-03-09T14:37:28Z</time>
      </trkpt>
      <trkpt lat="43.31672" lon="5.67415">
        <ele>778</ele>
        <time>2022-03-09T14:37:37Z</time>
      </trkpt>
      <trkpt lat="43.3167" lon="5.67409">
        <ele>777.2</ele>
        <time>2022-03-09T14:37:42Z</time>
      </trkpt>
      <trkpt lat="43.31669" lon="5.67403">
        <ele>776.5</ele>
        <time>2022-03-09T14:37:47Z</time>
      </trkpt>
      <trkpt lat="43.31667" lon="5.67397">
        <ele>775.7</ele>
        <time>2022-03-09T14:37:51Z</time>
      </trkpt>
      <trkpt lat="43.31666" lon="5.67391">
        <ele>775.1</ele>
        <time>2022-03-09T14:37:57Z</time>
      </trkpt>
      <trkpt lat="43.31667" lon="5.67385">
        <ele>774.3</ele>
        <time>2022-03-09T14:38:27Z</time>
      </trkpt>
      <trkpt lat="43.31668" lon="5.67377">
        <ele>773.3</ele>
        <time>2022-03-09T14:38:33Z</time>
      </trkpt>
      <trkpt lat="43.31669" lon="5.6737">
        <ele>772.3</ele>
        <time>2022-03-09T14:38:37Z</time>
      </trkpt>
      <trkpt lat="43.3167" lon="5.67363">
        <ele>771.4</ele>
        <time>2022-03-09T14:38:43Z</time>
      </trkpt>
      <trkpt lat="43.31672" lon="5.67357">
        <ele>770.8</ele>
        <time>2022-03-09T14:38:48Z</time>
      </trkpt>
      <trkpt lat="43.31674" lon="5.6735">
        <ele>770.2</ele>
        <time>2022-03-09T14:38:53Z</time>
      </trkpt>
      <trkpt lat="43.31676" lon="5.67344">
        <ele>770</ele>
        <time>2022-03-09T14:38:59Z</time>
      </trkpt>
      <trkpt lat="43.31679" lon="5.67338">
        <ele>770.3</ele>
        <time>2022-03-09T14:39:06Z</time>
      </trkpt>
      <trkpt lat="43.31682" lon="5.67333">
        <ele>770.5</ele>
        <time>2022-03-09T14:39:11Z</time>
      </trkpt>
      <trkpt lat="43.31683" lon="5.67327">
        <ele>770.6</ele>
        <time>2022-03-09T14:39:18Z</time>
      </trkpt>
      <trkpt lat="43.31682" lon="5.67319">
        <ele>770.2</ele>
        <time>2022-03-09T14:39:23Z</time>
      </trkpt>
      <trkpt lat="43.31681" lon="5.67313">
        <ele>769.5</ele>
        <time>2022-03-09T14:39:28Z</time>
      </trkpt>
      <trkpt lat="43.3168" lon="5.67307">
        <ele>768.6</ele>
        <time>2022-03-09T14:39:33Z</time>
      </trkpt>
      <trkpt lat="43.31679" lon="5.67299">
        <ele>769.2</ele>
        <time>2022-03-09T14:39:38Z</time>
      </trkpt>
      <trkpt lat="43.31676" lon="5.67294">
        <ele>768.5</ele>
        <time>2022-03-09T14:39:43Z</time>
      </trkpt>
      <trkpt lat="43.31673" lon="5.67289">
        <ele>768.1</ele>
        <time>2022-03-09T14:39:49Z</time>
      </trkpt>
      <trkpt lat="43.31669" lon="5.67285">
        <ele>767.3</ele>
        <time>2022-03-09T14:39:53Z</time>
      </trkpt>
      <trkpt lat="43.31665" lon="5.6728">
        <ele>767</ele>
        <time>2022-03-09T14:39:57Z</time>
      </trkpt>
      <trkpt lat="43.31662" lon="5.67274">
        <ele>767.6</ele>
        <time>2022-03-09T14:40:01Z</time>
      </trkpt>
      <trkpt lat="43.3166" lon="5.67268">
        <ele>768</ele>
        <time>2022-03-09T14:40:05Z</time>
      </trkpt>
      <trkpt lat="43.31656" lon="5.67264">
        <ele>767.9</ele>
        <time>2022-03-09T14:40:09Z</time>
      </trkpt>
      <trkpt lat="43.31652" lon="5.6726">
        <ele>767.7</ele>
        <time>2022-03-09T14:40:13Z</time>
      </trkpt>
      <trkpt lat="43.31647" lon="5.67256">
        <ele>767.6</ele>
        <time>2022-03-09T14:40:17Z</time>
      </trkpt>
      <trkpt lat="43.31644" lon="5.67252">
        <ele>767.6</ele>
        <time>2022-03-09T14:40:22Z</time>
      </trkpt>
      <trkpt lat="43.3164" lon="5.67247">
        <ele>767.4</ele>
        <time>2022-03-09T14:40:27Z</time>
      </trkpt>
      <trkpt lat="43.31641" lon="5.67239">
        <ele>768</ele>
        <time>2022-03-09T14:40:33Z</time>
      </trkpt>
      <trkpt lat="43.31642" lon="5.67232">
        <ele>768.3</ele>
        <time>2022-03-09T14:40:38Z</time>
      </trkpt>
      <trkpt lat="43.31642" lon="5.67225">
        <ele>768.6</ele>
        <time>2022-03-09T14:40:42Z</time>
      </trkpt>
      <trkpt lat="43.31642" lon="5.67218">
        <ele>768.6</ele>
        <time>2022-03-09T14:40:46Z</time>
      </trkpt>
      <trkpt lat="43.31642" lon="5.67211">
        <ele>768.4</ele>
        <time>2022-03-09T14:40:51Z</time>
      </trkpt>
      <trkpt lat="43.3164" lon="5.67204">
        <ele>767.7</ele>
        <time>2022-03-09T14:40:56Z</time>
      </trkpt>
      <trkpt lat="43.31639" lon="5.67198">
        <ele>767.1</ele>
        <time>2022-03-09T14:41:02Z</time>
      </trkpt>
      <trkpt lat="43.31637" lon="5.67192">
        <ele>766.4</ele>
        <time>2022-03-09T14:41:07Z</time>
      </trkpt>
      <trkpt lat="43.31635" lon="5.67186">
        <ele>765.3</ele>
        <time>2022-03-09T14:41:12Z</time>
      </trkpt>
      <trkpt lat="43.31633" lon="5.6718">
        <ele>764.4</ele>
        <time>2022-03-09T14:41:18Z</time>
      </trkpt>
      <trkpt lat="43.31629" lon="5.67176">
        <ele>763.3</ele>
        <time>2022-03-09T14:41:23Z</time>
      </trkpt>
      <trkpt lat="43.31628" lon="5.67169">
        <ele>762.3</ele>
        <time>2022-03-09T14:41:28Z</time>
      </trkpt>
      <trkpt lat="43.31626" lon="5.67163">
        <ele>761.5</ele>
        <time>2022-03-09T14:41:34Z</time>
      </trkpt>
      <trkpt lat="43.31629" lon="5.67157">
        <ele>761.6</ele>
        <time>2022-03-09T14:41:42Z</time>
      </trkpt>
      <trkpt lat="43.3163" lon="5.67149">
        <ele>761.4</ele>
        <time>2022-03-09T14:41:49Z</time>
      </trkpt>
      <trkpt lat="43.31629" lon="5.67143">
        <ele>760.9</ele>
        <time>2022-03-09T14:41:53Z</time>
      </trkpt>
      <trkpt lat="43.3163" lon="5.67136">
        <ele>760.5</ele>
        <time>2022-03-09T14:41:58Z</time>
      </trkpt>
      <trkpt lat="43.31634" lon="5.67131">
        <ele>761.1</ele>
        <time>2022-03-09T14:42:05Z</time>
      </trkpt>
      <trkpt lat="43.31638" lon="5.67129">
        <ele>762.4</ele>
        <time>2022-03-09T14:42:10Z</time>
      </trkpt>
      <trkpt lat="43.31642" lon="5.67124">
        <ele>763</ele>
        <time>2022-03-09T14:42:13Z</time>
      </trkpt>
      <trkpt lat="43.31644" lon="5.67119">
        <ele>763.2</ele>
        <time>2022-03-09T14:42:18Z</time>
      </trkpt>
      <trkpt lat="43.31647" lon="5.67113">
        <ele>763.3</ele>
        <time>2022-03-09T14:42:24Z</time>
      </trkpt>
      <trkpt lat="43.31649" lon="5.67106">
        <ele>763.6</ele>
        <time>2022-03-09T14:42:28Z</time>
      </trkpt>
      <trkpt lat="43.31651" lon="5.67099">
        <ele>763.6</ele>
        <time>2022-03-09T14:42:32Z</time>
      </trkpt>
      <trkpt lat="43.31652" lon="5.67093">
        <ele>763.5</ele>
        <time>2022-03-09T14:42:38Z</time>
      </trkpt>
      <trkpt lat="43.31655" lon="5.67088">
        <ele>764.2</ele>
        <time>2022-03-09T14:42:44Z</time>
      </trkpt>
      <trkpt lat="43.31657" lon="5.67081">
        <ele>764.2</ele>
        <time>2022-03-09T14:42:49Z</time>
      </trkpt>
      <trkpt lat="43.31656" lon="5.67075">
        <ele>763.7</ele>
        <time>2022-03-09T14:42:55Z</time>
      </trkpt>
      <trkpt lat="43.31656" lon="5.67069">
        <ele>763.3</ele>
        <time>2022-03-09T14:43:00Z</time>
      </trkpt>
      <trkpt lat="43.31657" lon="5.67062">
        <ele>763.3</ele>
        <time>2022-03-09T14:43:05Z</time>
      </trkpt>
      <trkpt lat="43.31658" lon="5.67056">
        <ele>763.5</ele>
        <time>2022-03-09T14:43:10Z</time>
      </trkpt>
      <trkpt lat="43.31658" lon="5.67049">
        <ele>763</ele>
        <time>2022-03-09T14:43:14Z</time>
      </trkpt>
      <trkpt lat="43.31657" lon="5.67042">
        <ele>762.5</ele>
        <time>2022-03-09T14:43:19Z</time>
      </trkpt>
      <trkpt lat="43.31652" lon="5.67044">
        <ele>760.5</ele>
        <time>2022-03-09T14:43:37Z</time>
      </trkpt>
      <trkpt lat="43.3165" lon="5.67037">
        <ele>759.4</ele>
        <time>2022-03-09T14:44:53Z</time>
      </trkpt>
      <trkpt lat="43.31649" lon="5.6703">
        <ele>758.6</ele>
        <time>2022-03-09T14:44:58Z</time>
      </trkpt>
      <trkpt lat="43.31648" lon="5.67023">
        <ele>757.9</ele>
        <time>2022-03-09T14:45:03Z</time>
      </trkpt>
      <trkpt lat="43.31647" lon="5.67017">
        <ele>757.2</ele>
        <time>2022-03-09T14:45:12Z</time>
      </trkpt>
      <trkpt lat="43.31645" lon="5.67011">
        <ele>756.3</ele>
        <time>2022-03-09T14:45:19Z</time>
      </trkpt>
      <trkpt lat="43.31643" lon="5.67004">
        <ele>755.3</ele>
        <time>2022-03-09T14:45:25Z</time>
      </trkpt>
      <trkpt lat="43.31646" lon="5.66997">
        <ele>756.3</ele>
        <time>2022-03-09T14:45:29Z</time>
      </trkpt>
      <trkpt lat="43.31647" lon="5.66991">
        <ele>756.7</ele>
        <time>2022-03-09T14:45:32Z</time>
      </trkpt>
      <trkpt lat="43.31648" lon="5.66985">
        <ele>757.2</ele>
        <time>2022-03-09T14:45:36Z</time>
      </trkpt>
      <trkpt lat="43.31649" lon="5.66976">
        <ele>757.4</ele>
        <time>2022-03-09T14:45:41Z</time>
      </trkpt>
      <trkpt lat="43.31648" lon="5.6697">
        <ele>756.9</ele>
        <time>2022-03-09T14:45:45Z</time>
      </trkpt>
      <trkpt lat="43.31646" lon="5.66964">
        <ele>756</ele>
        <time>2022-03-09T14:45:50Z</time>
      </trkpt>
      <trkpt lat="43.31646" lon="5.66956">
        <ele>755.7</ele>
        <time>2022-03-09T14:45:55Z</time>
      </trkpt>
      <trkpt lat="43.31648" lon="5.66949">
        <ele>756.2</ele>
        <time>2022-03-09T14:46:01Z</time>
      </trkpt>
      <trkpt lat="43.3165" lon="5.66943">
        <ele>757</ele>
        <time>2022-03-09T14:46:05Z</time>
      </trkpt>
      <trkpt lat="43.31651" lon="5.66936">
        <ele>756.8</ele>
        <time>2022-03-09T14:46:09Z</time>
      </trkpt>
      <trkpt lat="43.31652" lon="5.6693">
        <ele>757</ele>
        <time>2022-03-09T14:46:13Z</time>
      </trkpt>
      <trkpt lat="43.31654" lon="5.66923">
        <ele>757</ele>
        <time>2022-03-09T14:46:19Z</time>
      </trkpt>
      <trkpt lat="43.31655" lon="5.66917">
        <ele>756.8</ele>
        <time>2022-03-09T14:46:29Z</time>
      </trkpt>
      <trkpt lat="43.31656" lon="5.6691">
        <ele>756</ele>
        <time>2022-03-09T14:46:38Z</time>
      </trkpt>
      <trkpt lat="43.31658" lon="5.66904">
        <ele>755.5</ele>
        <time>2022-03-09T14:46:52Z</time>
      </trkpt>
      <trkpt lat="43.3166" lon="5.66898">
        <ele>755.2</ele>
        <time>2022-03-09T14:47:00Z</time>
      </trkpt>
      <trkpt lat="43.3166" lon="5.66892">
        <ele>753.9</ele>
        <time>2022-03-09T14:47:13Z</time>
      </trkpt>
      <trkpt lat="43.31663" lon="5.66886">
        <ele>754.1</ele>
        <time>2022-03-09T14:47:21Z</time>
      </trkpt>
      <trkpt lat="43.31664" lon="5.66879">
        <ele>753.7</ele>
        <time>2022-03-09T14:47:27Z</time>
      </trkpt>
      <trkpt lat="43.31663" lon="5.66873">
        <ele>752.5</ele>
        <time>2022-03-09T14:47:32Z</time>
      </trkpt>
      <trkpt lat="43.31662" lon="5.66867">
        <ele>751</ele>
        <time>2022-03-09T14:47:36Z</time>
      </trkpt>
      <trkpt lat="43.31662" lon="5.6686">
        <ele>750.3</ele>
        <time>2022-03-09T14:47:41Z</time>
      </trkpt>
      <trkpt lat="43.3166" lon="5.66854">
        <ele>749.2</ele>
        <time>2022-03-09T14:47:45Z</time>
      </trkpt>
      <trkpt lat="43.31658" lon="5.66847">
        <ele>748.4</ele>
        <time>2022-03-09T14:47:51Z</time>
      </trkpt>
      <trkpt lat="43.3166" lon="5.66841">
        <ele>749.3</ele>
        <time>2022-03-09T14:48:06Z</time>
      </trkpt>
      <trkpt lat="43.31658" lon="5.66835">
        <ele>748.5</ele>
        <time>2022-03-09T14:48:12Z</time>
      </trkpt>
      <trkpt lat="43.31656" lon="5.66829">
        <ele>747.9</ele>
        <time>2022-03-09T14:48:17Z</time>
      </trkpt>
      <trkpt lat="43.31655" lon="5.66822">
        <ele>748.3</ele>
        <time>2022-03-09T14:48:22Z</time>
      </trkpt>
      <trkpt lat="43.31654" lon="5.66815">
        <ele>748.4</ele>
        <time>2022-03-09T14:48:30Z</time>
      </trkpt>
      <trkpt lat="43.31651" lon="5.66809">
        <ele>747.6</ele>
        <time>2022-03-09T14:48:35Z</time>
      </trkpt>
      <trkpt lat="43.31649" lon="5.66802">
        <ele>747.1</ele>
        <time>2022-03-09T14:48:39Z</time>
      </trkpt>
      <trkpt lat="43.31646" lon="5.66796">
        <ele>746.7</ele>
        <time>2022-03-09T14:48:45Z</time>
      </trkpt>
      <trkpt lat="43.31644" lon="5.6679">
        <ele>746.6</ele>
        <time>2022-03-09T14:48:50Z</time>
      </trkpt>
      <trkpt lat="43.31641" lon="5.66784">
        <ele>746.3</ele>
        <time>2022-03-09T14:48:55Z</time>
      </trkpt>
      <trkpt lat="43.31639" lon="5.66777">
        <ele>746.1</ele>
        <time>2022-03-09T14:49:00Z</time>
      </trkpt>
      <trkpt lat="43.31638" lon="5.6677">
        <ele>746.7</ele>
        <time>2022-03-09T14:49:05Z</time>
      </trkpt>
      <trkpt lat="43.31638" lon="5.66763">
        <ele>747.9</ele>
        <time>2022-03-09T14:49:12Z</time>
      </trkpt>
      <trkpt lat="43.31636" lon="5.66756">
        <ele>748.4</ele>
        <time>2022-03-09T14:49:20Z</time>
      </trkpt>
      <trkpt lat="43.31633" lon="5.66752">
        <ele>747.3</ele>
        <time>2022-03-09T14:49:26Z</time>
      </trkpt>
      <trkpt lat="43.3163" lon="5.66746">
        <ele>746.3</ele>
        <time>2022-03-09T14:49:32Z</time>
      </trkpt>
      <trkpt lat="43.31628" lon="5.66741">
        <ele>745.8</ele>
        <time>2022-03-09T14:49:39Z</time>
      </trkpt>
      <trkpt lat="43.31626" lon="5.66734">
        <ele>745.9</ele>
        <time>2022-03-09T14:49:46Z</time>
      </trkpt>
      <trkpt lat="43.31625" lon="5.66728">
        <ele>746</ele>
        <time>2022-03-09T14:49:51Z</time>
      </trkpt>
      <trkpt lat="43.31624" lon="5.66721">
        <ele>746.6</ele>
        <time>2022-03-09T14:49:57Z</time>
      </trkpt>
      <trkpt lat="43.31625" lon="5.66714">
        <ele>748</ele>
        <time>2022-03-09T14:50:02Z</time>
      </trkpt>
      <trkpt lat="43.31623" lon="5.66708">
        <ele>748.1</ele>
        <time>2022-03-09T14:50:06Z</time>
      </trkpt>
      <trkpt lat="43.31622" lon="5.66702">
        <ele>748.4</ele>
        <time>2022-03-09T14:50:10Z</time>
      </trkpt>
      <trkpt lat="43.31622" lon="5.66695">
        <ele>749.2</ele>
        <time>2022-03-09T14:50:15Z</time>
      </trkpt>
      <trkpt lat="43.31621" lon="5.66688">
        <ele>749</ele>
        <time>2022-03-09T14:50:20Z</time>
      </trkpt>
      <trkpt lat="43.3162" lon="5.66681">
        <ele>749</ele>
        <time>2022-03-09T14:50:27Z</time>
      </trkpt>
      <trkpt lat="43.31621" lon="5.66674">
        <ele>749.9</ele>
        <time>2022-03-09T14:50:35Z</time>
      </trkpt>
      <trkpt lat="43.31623" lon="5.66669">
        <ele>751.5</ele>
        <time>2022-03-09T14:50:42Z</time>
      </trkpt>
      <trkpt lat="43.31626" lon="5.66663">
        <ele>753</ele>
        <time>2022-03-09T14:50:50Z</time>
      </trkpt>
      <trkpt lat="43.31627" lon="5.66657">
        <ele>753.4</ele>
        <time>2022-03-09T14:50:56Z</time>
      </trkpt>
      <trkpt lat="43.31629" lon="5.66651">
        <ele>754.1</ele>
        <time>2022-03-09T14:51:01Z</time>
      </trkpt>
      <trkpt lat="43.3163" lon="5.66645">
        <ele>754.7</ele>
        <time>2022-03-09T14:51:07Z</time>
      </trkpt>
      <trkpt lat="43.31634" lon="5.66639">
        <ele>756.4</ele>
        <time>2022-03-09T14:51:12Z</time>
      </trkpt>
      <trkpt lat="43.31635" lon="5.66633">
        <ele>756.6</ele>
        <time>2022-03-09T14:51:18Z</time>
      </trkpt>
      <trkpt lat="43.31634" lon="5.66627">
        <ele>755.7</ele>
        <time>2022-03-09T14:51:23Z</time>
      </trkpt>
      <trkpt lat="43.31633" lon="5.66619">
        <ele>754.8</ele>
        <time>2022-03-09T14:51:27Z</time>
      </trkpt>
      <trkpt lat="43.31633" lon="5.66612">
        <ele>754.1</ele>
        <time>2022-03-09T14:51:31Z</time>
      </trkpt>
      <trkpt lat="43.31632" lon="5.66606">
        <ele>753.5</ele>
        <time>2022-03-09T14:51:35Z</time>
      </trkpt>
      <trkpt lat="43.31635" lon="5.666">
        <ele>754.2</ele>
        <time>2022-03-09T14:51:44Z</time>
      </trkpt>
      <trkpt lat="43.31638" lon="5.66594">
        <ele>754.9</ele>
        <time>2022-03-09T14:51:49Z</time>
      </trkpt>
      <trkpt lat="43.31642" lon="5.66589">
        <ele>756.4</ele>
        <time>2022-03-09T14:51:55Z</time>
      </trkpt>
      <trkpt lat="43.31646" lon="5.66586">
        <ele>758.1</ele>
        <time>2022-03-09T14:52:01Z</time>
      </trkpt>
      <trkpt lat="43.31648" lon="5.6658">
        <ele>758.1</ele>
        <time>2022-03-09T14:52:07Z</time>
      </trkpt>
      <trkpt lat="43.3165" lon="5.66573">
        <ele>757.2</ele>
        <time>2022-03-09T14:52:14Z</time>
      </trkpt>
      <trkpt lat="43.31653" lon="5.66567">
        <ele>757.4</ele>
        <time>2022-03-09T14:52:18Z</time>
      </trkpt>
      <trkpt lat="43.31657" lon="5.66562">
        <ele>758.1</ele>
        <time>2022-03-09T14:52:22Z</time>
      </trkpt>
      <trkpt lat="43.3166" lon="5.66557">
        <ele>757.9</ele>
        <time>2022-03-09T14:52:27Z</time>
      </trkpt>
      <trkpt lat="43.31661" lon="5.66549">
        <ele>756.3</ele>
        <time>2022-03-09T14:52:33Z</time>
      </trkpt>
      <trkpt lat="43.31663" lon="5.66543">
        <ele>755.6</ele>
        <time>2022-03-09T14:52:38Z</time>
      </trkpt>
      <trkpt lat="43.31665" lon="5.66536">
        <ele>754.7</ele>
        <time>2022-03-09T14:52:43Z</time>
      </trkpt>
      <trkpt lat="43.31669" lon="5.66531">
        <ele>755.2</ele>
        <time>2022-03-09T14:52:47Z</time>
      </trkpt>
      <trkpt lat="43.31672" lon="5.66526">
        <ele>755.7</ele>
        <time>2022-03-09T14:52:52Z</time>
      </trkpt>
      <trkpt lat="43.31676" lon="5.6652">
        <ele>756.1</ele>
        <time>2022-03-09T14:52:58Z</time>
      </trkpt>
      <trkpt lat="43.31678" lon="5.66515">
        <ele>756.2</ele>
        <time>2022-03-09T14:53:02Z</time>
      </trkpt>
      <trkpt lat="43.31681" lon="5.66509">
        <ele>755.8</ele>
        <time>2022-03-09T14:53:07Z</time>
      </trkpt>
      <trkpt lat="43.31684" lon="5.66503">
        <ele>756.5</ele>
        <time>2022-03-09T14:53:13Z</time>
      </trkpt>
      <trkpt lat="43.31687" lon="5.66497">
        <ele>756.7</ele>
        <time>2022-03-09T14:53:18Z</time>
      </trkpt>
      <trkpt lat="43.31688" lon="5.6649">
        <ele>756.4</ele>
        <time>2022-03-09T14:53:22Z</time>
      </trkpt>
      <trkpt lat="43.31689" lon="5.66484">
        <ele>755.7</ele>
        <time>2022-03-09T14:53:26Z</time>
      </trkpt>
      <trkpt lat="43.31689" lon="5.66477">
        <ele>754.5</ele>
        <time>2022-03-09T14:53:30Z</time>
      </trkpt>
      <trkpt lat="43.3169" lon="5.66471">
        <ele>754.2</ele>
        <time>2022-03-09T14:53:34Z</time>
      </trkpt>
      <trkpt lat="43.31692" lon="5.66465">
        <ele>754.4</ele>
        <time>2022-03-09T14:53:38Z</time>
      </trkpt>
      <trkpt lat="43.31692" lon="5.66458">
        <ele>753.7</ele>
        <time>2022-03-09T14:53:42Z</time>
      </trkpt>
      <trkpt lat="43.31692" lon="5.66451">
        <ele>752.4</ele>
        <time>2022-03-09T14:53:47Z</time>
      </trkpt>
      <trkpt lat="43.31692" lon="5.66445">
        <ele>751.3</ele>
        <time>2022-03-09T14:53:51Z</time>
      </trkpt>
      <trkpt lat="43.31692" lon="5.66438">
        <ele>751.6</ele>
        <time>2022-03-09T14:53:55Z</time>
      </trkpt>
      <trkpt lat="43.3169" lon="5.66432">
        <ele>750.7</ele>
        <time>2022-03-09T14:53:59Z</time>
      </trkpt>
      <trkpt lat="43.31687" lon="5.66426">
        <ele>749.6</ele>
        <time>2022-03-09T14:54:03Z</time>
      </trkpt>
      <trkpt lat="43.31685" lon="5.66419">
        <ele>748.6</ele>
        <time>2022-03-09T14:54:08Z</time>
      </trkpt>
      <trkpt lat="43.31683" lon="5.66413">
        <ele>747.6</ele>
        <time>2022-03-09T14:54:13Z</time>
      </trkpt>
      <trkpt lat="43.31681" lon="5.66407">
        <ele>747.2</ele>
        <time>2022-03-09T00:00:00Z</time>
      </trkpt>
      <trkpt lat="43.3168" lon="5.664">
        <ele>747.6</ele>
        <time>2022-03-09T14:54:27Z</time>
      </trkpt>
      <trkpt lat="43.31663" lon="5.66345">
        <ele>745.1</ele>
        <time>2022-03-09T14:55:14Z</time>
      </trkpt>
      <trkpt lat="43.31663" lon="5.66338">
        <ele>745.9</ele>
        <time>2022-03-09T14:55:18Z</time>
      </trkpt>
      <trkpt lat="43.31663" lon="5.66331">
        <ele>747.1</ele>
        <time>2022-03-09T14:55:24Z</time>
      </trkpt>
      <trkpt lat="43.31663" lon="5.66324">
        <ele>747.3</ele>
        <time>2022-03-09T14:55:31Z</time>
      </trkpt>
      <trkpt lat="43.31661" lon="5.66318">
        <ele>746.7</ele>
        <time>2022-03-09T14:55:36Z</time>
      </trkpt>
      <trkpt lat="43.3166" lon="5.66311">
        <ele>746.2</ele>
        <time>2022-03-09T14:55:41Z</time>
      </trkpt>
      <trkpt lat="43.31659" lon="5.66304">
        <ele>745.9</ele>
        <time>2022-03-09T14:55:45Z</time>
      </trkpt>
      <trkpt lat="43.31659" lon="5.66297">
        <ele>746.6</ele>
        <time>2022-03-09T14:55:50Z</time>
      </trkpt>
      <trkpt lat="43.31658" lon="5.6629">
        <ele>746.7</ele>
        <time>2022-03-09T14:55:56Z</time>
      </trkpt>
      <trkpt lat="43.31657" lon="5.66284">
        <ele>746.2</ele>
        <time>2022-03-09T14:56:01Z</time>
      </trkpt>
      <trkpt lat="43.31655" lon="5.66277">
        <ele>745.6</ele>
        <time>2022-03-09T14:56:07Z</time>
      </trkpt>
      <trkpt lat="43.31652" lon="5.66272">
        <ele>743.8</ele>
        <time>2022-03-09T14:56:13Z</time>
      </trkpt>
      <trkpt lat="43.31649" lon="5.66267">
        <ele>741.9</ele>
        <time>2022-03-09T14:56:18Z</time>
      </trkpt>
      <trkpt lat="43.31647" lon="5.6626">
        <ele>741.2</ele>
        <time>2022-03-09T14:56:23Z</time>
      </trkpt>
      <trkpt lat="43.31645" lon="5.66254">
        <ele>740.8</ele>
        <time>2022-03-09T14:56:28Z</time>
      </trkpt>
      <trkpt lat="43.31644" lon="5.66247">
        <ele>740.9</ele>
        <time>2022-03-09T14:56:35Z</time>
      </trkpt>
      <trkpt lat="43.31642" lon="5.66242">
        <ele>739.7</ele>
        <time>2022-03-09T14:56:43Z</time>
      </trkpt>
      <trkpt lat="43.3164" lon="5.66236">
        <ele>739.1</ele>
        <time>2022-03-09T14:56:50Z</time>
      </trkpt>
      <trkpt lat="43.31638" lon="5.6623">
        <ele>738.3</ele>
        <time>2022-03-09T14:56:58Z</time>
      </trkpt>
      <trkpt lat="43.31634" lon="5.66225">
        <ele>736.6</ele>
        <time>2022-03-09T14:57:05Z</time>
      </trkpt>
      <trkpt lat="43.3163" lon="5.66221">
        <ele>734.9</ele>
        <time>2022-03-09T14:57:10Z</time>
      </trkpt>
      <trkpt lat="43.31625" lon="5.66218">
        <ele>733.1</ele>
        <time>2022-03-09T14:57:15Z</time>
      </trkpt>
      <trkpt lat="43.31621" lon="5.66215">
        <ele>731.1</ele>
        <time>2022-03-09T14:57:25Z</time>
      </trkpt>
      <trkpt lat="43.31616" lon="5.66213">
        <ele>729.4</ele>
        <time>2022-03-09T14:57:29Z</time>
      </trkpt>
      <trkpt lat="43.31611" lon="5.66212">
        <ele>726.8</ele>
        <time>2022-03-09T14:57:32Z</time>
      </trkpt>
      <trkpt lat="43.31606" lon="5.6621">
        <ele>726.4</ele>
        <time>2022-03-09T14:57:35Z</time>
      </trkpt>
      <trkpt lat="43.31603" lon="5.66204">
        <ele>727.6</ele>
        <time>2022-03-09T14:57:39Z</time>
      </trkpt>
      <trkpt lat="43.31601" lon="5.66198">
        <ele>729.3</ele>
        <time>2022-03-09T14:57:46Z</time>
      </trkpt>
      <trkpt lat="43.316" lon="5.66192">
        <ele>730.4</ele>
        <time>2022-03-09T14:58:02Z</time>
      </trkpt>
      <trkpt lat="43.31595" lon="5.66193">
        <ele>729.7</ele>
        <time>2022-03-09T14:58:19Z</time>
      </trkpt>
    </trkseg>
  </trk>
</gpx>